[[[{"header":{"parameterUnit":"kt","parameterCategory":2,"dx":1,"dy":1,"la1":29.285339999999998,"la2":30.599998999999997,"lo1":-89.70041500000002,"lo2":-87.6738589999976,"nx":112,"ny":82,"refTime":"2022-09-20T12:00:00:Z","depth":0,"parameterNumber":1,"parameterNumberName":"U-component_of_WINDS"},"data":[0.1663,0.2924,0.4282,0.5278,0.519,0.515,0.5974,0.5874,0.5617,0.5842,0.5525,0.502,0.4681,0.4465,0.4234,0.39,0.3332,0.2899,0.0,0.2363,0.0,0.0,0.0,0.0,0.0,0.0,0.0,0.0,0.0,0.0,0.0,0.8323,0.8517,1.001,0.9971,1.071,1.2281,1.2679,1.3324,1.4213,1.4855,1.5486,1.6126,1.6367,1.6743,1.7119,1.7119,1.7119,1.7119,1.7119,1.7358,1.7721,1.8602,1.9233,1.9827,2.1406,2.2762,2.369,2.3544,2.3427,2.3062,2.3136,2.3042,2.3041,2.3123,2.3042,2.2828,2.3021,2.3219,2.3538,2.3973,2.4269,2.4447,2.4221,2.4283,2.4207,2.3724,2.3559,2.3559,2.3438,2.3784,2.4144,2.4144,2.5319,2.6078,2.5567,2.7209,2.8747,2.9622,3.0591,3.0945,3.0311,3.0229,3.0047,2.9594,2.8998,2.9323,3.1055,3.0946,3.1225,3.2081,3.2307,3.2478,3.264,3.2956,3.3297,3.3718,3.4957,3.5772,3.6353,3.7307,3.8682,0.0867,0.192,0.3187,0.4092,0.3903,0.3882,0.4703,0.4528,0.4293,0.4516,0.4298,0.3933,0.3656,0.3525,0.3342,0.3154,0.2526,0.2063,0.0,0.0,0.0,0.0,0.0,0.0,0.0,0.0,0.0,0.0,0.6091,0.0,0.7081,0.689,0.6933,0.7294,0.7582,0.8439,0.9612,1.039,1.1168,1.2064,1.2959,1.3714,1.4339,1.4583,1.4972,1.535,1.5854,1.598,1.5854,1.6377,1.6743,1.7108,1.7868,1.8857,1.9952,2.0428,2.1322,2.2063,2.2537,2.2494,2.2167,2.1942,2.2005,2.2227,2.2227,2.2078,2.2055,2.2569,2.2647,2.2791,2.3168,2.3334,2.3355,2.3121,2.337,2.3486,2.3253,2.3253,2.3253,2.302,2.302,2.3035,2.3035,2.3734,2.4567,2.5227,2.6319,2.74,2.8236,2.8959,2.9079,2.845,2.8601,2.844,2.7962,2.8151,2.9036,3.0604,3.0923,3.1455,3.2248,3.2614,3.2978,3.3208,3.3978,3.4524,3.4903,3.6328,3.7154,3.7331,3.8115,3.9592,-0.0291,0.0184,0.0613,0.2294,0.2666,0.2776,0.3345,0.3123,0.287,0.2909,0.2609,0.2347,0.2347,0.2222,0.2078,0.1981,0.1696,0.0,0.0,0.0,0.0,0.0,0.0,0.0,0.0,0.0,0.0,0.0,0.6296,0.0,0.6399,0.6003,0.6104,0.6709,0.7098,0.7561,0.8203,0.899,0.926,0.926,1.0036,1.1303,1.2934,1.2934,1.3578,1.4855,1.6105,1.6482,1.6377,1.7663,1.8424,1.8797,1.9034,1.9989,2.0976,1.8368,1.7836,1.8695,1.9851,2.0502,2.0631,1.9802,1.9967,2.0338,2.0338,2.0049,1.9687,1.9687,2.0134,2.0579,2.012,2.0802,2.1576,2.1576,2.1826,2.1966,2.1966,2.1966,2.1856,2.151,2.1731,2.1966,2.1966,2.3031,2.3849,2.377,2.377,2.3714,2.367,2.434,2.4805,2.4823,2.5245,2.5749,2.623,2.689,2.8252,3.0439,3.0697,3.1064,3.1901,3.2356,3.3184,3.462,3.6138,3.7499,3.8807,3.9936,4.0526,4.0551,4.1006,4.1643,0.0525,0.0663,0.047,0.1494,0.1175,0.0877,0.1996,0.2077,0.2015,0.2314,0.2247,0.0,0.0,0.0,0.2121,0.2073,0.0,0.0889,0.0,0.1196,0.0,0.0,0.0,0.0,0.0,0.0,0.0,0.0,0.0,0.4445,0.6058,0.5655,0.5515,0.5635,0.5831,0.5872,0.6128,0.7306,0.7954,0.7954,0.9125,0.99,1.0403,1.0403,1.0532,1.0918,1.1296,1.1424,1.1296,1.168,1.2064,1.256,1.3578,1.5466,1.7641,1.675,1.7218,1.8415,1.8459,1.8684,1.862,1.8266,1.8733,1.9372,1.9372,1.9793,2.0357,2.0357,2.0802,2.1244,2.1134,2.1796,2.2454,2.2235,2.2563,2.2907,2.2704,2.2704,2.2595,2.2485,2.2704,2.2829,2.2829,2.3454,2.4043,2.4613,2.4981,2.542,2.5969,2.6416,2.6884,2.7443,2.7866,2.8067,2.7969,2.8124,2.8421,2.8881,2.985,3.1353,3.3368,3.3798,3.4662,3.6101,3.5906,3.6361,3.7665,3.8115,3.8891,3.9997,4.0967,4.1643,-0.0157,0.0147,-0.007,0.0607,0.0351,0.0169,0.1116,0.1261,0.1291,0.1538,0.0,0.0,0.0,0.0,0.0,0.0,0.064,0.0,0.0,0.0,-0.0709,0.0,0.0,0.0,0.0,0.0,0.0,0.3114,0.3039,0.3439,0.4452,0.495,0.5157,0.5037,0.5199,0.5221,0.5221,0.6396,0.6916,0.6916,0.8214,0.8861,0.899,0.9255,0.939,0.939,1.0023,1.0274,1.0274,1.1039,1.1424,1.153,1.1033,1.2049,1.388,1.4027,1.4691,1.5382,1.5529,1.5456,1.5389,1.5891,1.6708,1.7596,1.7596,1.821,1.8876,1.8876,1.945,1.9967,2.0252,2.0833,2.1299,2.1361,2.1721,2.2036,2.1932,2.1826,2.1826,2.1826,2.2157,2.2348,2.2687,2.3275,2.4092,2.5225,2.5933,2.6413,2.6847,2.7537,2.8161,2.8605,2.9034,2.9161,2.8868,2.872,2.8666,2.8609,2.9378,3.0617,3.2308,3.2918,3.3864,3.5513,3.5811,3.6708,3.8014,3.8799,3.971,4.0641,4.142,4.1925,-0.1391,-0.0765,-0.0672,-0.0206,-0.0098,0.0048,0.046,0.0,0.0595,0.056,0.0,0.0522,0.0518,0.0,0.0,0.0,0.0,0.0,-0.0679,-0.1479,-0.211,-0.2001,-0.1142,-0.0648,-0.1151,0.0,0.0662,0.057,0.2005,0.2773,0.2394,0.3782,0.4571,0.4313,0.4563,0.4697,0.4831,0.5485,0.601,0.614,0.7431,0.8203,0.8203,0.8861,0.9131,0.926,1.0525,1.1139,1.1231,1.2758,1.3391,1.3239,1.0613,0.994,1.0545,1.106,1.1317,1.1446,1.2087,1.2015,1.199,1.3332,1.4403,1.5237,1.53,1.5947,1.6485,1.6485,1.709,1.7799,1.8384,1.8777,1.9068,1.9688,1.9962,2.0165,2.0165,2.0165,2.0165,2.0165,2.0669,2.1247,2.219,2.2954,2.4091,2.5862,2.6555,2.6818,2.6891,2.8001,2.8778,2.8982,2.9455,2.9564,2.9327,2.9064,2.9032,2.9198,2.9127,2.9367,2.9969,3.0739,3.2065,3.3987,3.5893,3.7744,3.9328,4.0608,4.1339,4.1432,4.1499,4.1725,-0.1257,-0.0597,-0.0617,-0.0494,-0.0562,-0.0609,0.0,0.0,0.0,-0.0772,-0.0891,-0.0983,-0.121,0.0,0.0,0.0,0.0,0.0,0.0,-0.3017,0.0,-0.4836,-0.4158,-0.395,-0.4592,-0.3717,-0.2519,-0.1182,-0.0707,0.0,0.1028,0.1204,0.1227,0.1197,0.114,0.1566,0.2744,0.3392,0.4304,0.5482,0.6266,0.6916,0.7561,0.7695,0.8089,0.8618,0.8872,0.901,0.8944,0.9319,0.9811,1.033,1.0004,0.9972,1.0023,1.0152,1.041,1.0674,1.1053,1.1132,1.121,1.21,1.2558,1.2937,1.3962,1.5287,1.6485,1.6485,1.709,1.7772,1.7887,1.8074,1.826,1.838,1.8673,1.8893,1.8893,1.8893,1.8893,1.8893,1.9416,2.0725,2.3075,2.4148,2.5406,2.7418,2.7293,2.7445,2.8529,2.8512,2.8896,3.0044,3.0457,3.0568,3.0568,3.0075,2.9782,2.9812,2.9334,2.905,2.9185,3.0611,3.2706,3.5477,3.6391,3.7793,3.9868,3.9268,3.8716,3.8219,3.8383,3.8326,-0.2017,-0.1457,-0.1404,-0.107,-0.1109,0.0,0.0,-0.1403,-0.1919,-0.2499,-0.2252,-0.213,-0.2833,-0.208,-0.1478,-0.1827,-0.2464,-0.2924,-0.3122,-0.4467,-0.5508,-0.5619,-0.5549,-0.5433,-0.5481,-0.5203,-0.4684,-0.3655,-0.2664,-0.1858,-0.1256,-0.0239,0.0241,0.0234,0.0245,0.05,0.1251,0.1625,0.2124,0.3,0.4248,0.5416,0.6386,0.728,0.8115,0.8872,0.8872,0.8805,0.8819,0.9067,0.8608,0.7761,0.862,0.8998,0.9108,0.9108,0.9765,1.0552,1.0674,1.0667,1.0796,1.1567,1.1695,1.1921,1.2879,1.3798,1.4606,1.533,1.6063,1.6739,1.7434,1.7713,1.786,1.8175,1.8325,1.8438,1.8438,1.8988,1.9325,1.8763,1.8872,1.9672,2.1727,2.286,2.406,2.5467,2.5964,2.6284,2.6617,2.6811,2.7136,2.7775,2.8049,2.8435,2.9401,2.8873,2.9096,3.0333,2.9821,2.9517,2.984,3.0621,3.1782,3.3111,3.4671,3.6296,3.8035,3.7327,3.709,3.7456,3.7522,3.7422,-0.272,-0.2326,-0.2176,-0.1665,-0.1727,0.0,-0.1735,-0.2374,-0.326,0.0,-0.4099,-0.3844,-0.484,-0.3809,-0.2933,-0.2984,-0.371,-0.4793,-0.6256,-0.6811,-0.6993,-0.6426,-0.6653,-0.6494,-0.5584,-0.5905,-0.6176,-0.6064,-0.4472,-0.3481,-0.3577,-0.1652,-0.0589,-0.0571,-0.0471,-0.036,-0.0121,-0.0121,0.0121,0.0609,0.2188,0.3446,0.4537,0.6303,0.7534,0.8214,0.8343,0.8446,0.8531,0.9167,0.8185,0.6429,0.7552,0.829,0.8726,0.8726,0.9507,1.0545,1.0545,1.0674,1.081,1.1446,1.1574,1.1703,1.2223,1.248,1.2728,1.3995,1.4883,1.5814,1.6895,1.7158,1.7427,1.7957,1.8079,1.8079,1.8079,1.8986,1.9659,1.8859,1.9006,1.9455,2.043,2.1373,2.2401,2.3379,2.4454,2.4931,2.455,2.4898,2.531,2.5417,2.5738,2.6577,2.8251,2.8133,2.8946,3.0884,3.0458,3.0258,3.0606,3.0606,3.0611,3.0469,3.2517,3.431,3.5902,3.5527,3.5867,3.6904,3.6904,3.6888,-0.2365,-0.2234,-0.2147,-0.2191,-0.2237,0.0,-0.4109,-0.4553,-0.4941,0.0,-0.6929,-0.7523,-0.8104,-0.8664,-0.8604,-0.7175,-0.7366,-0.8594,-1.1289,-1.1288,-1.0528,-0.9258,-0.8909,-0.8206,-0.6781,-0.6658,-0.6856,-0.7379,-0.668,-0.5763,-0.4778,-0.4066,-0.3661,-0.3317,-0.3418,-0.2911,-0.1743,-0.1744,-0.1135,0.0129,0.0647,0.1295,0.1945,0.2728,0.3643,0.4301,0.4955,0.527,0.5524,0.7028,0.7884,0.8038,0.8296,0.9091,1.0288,1.0288,1.0539,1.0789,1.0789,1.1053,1.1446,1.1823,1.1952,1.208,1.2344,1.248,1.26,1.3375,1.4512,1.5642,1.5708,1.621,1.6701,1.6772,1.6772,1.6772,1.6772,1.7248,1.7967,1.846,2.0155,2.1428,2.0998,2.1734,2.2865,2.4017,2.4341,2.4535,2.5143,2.5255,2.5461,2.611,2.7337,2.8654,2.967,3.0439,3.1098,3.1537,3.0989,3.0478,3.0196,3.0175,3.0485,3.114,3.1392,3.2865,3.5624,3.4992,3.4751,3.4781,3.4781,3.4592,-0.224,-0.2218,-0.2301,-0.243,0.0,0.0,-0.5325,-0.6562,-0.8016,0.0,-0.9541,-0.9675,-1.1078,-1.0821,-1.0241,-1.0053,-1.0895,-1.1797,-1.2481,-1.2156,-1.1501,-1.0845,-1.0693,-1.0086,-0.8736,-0.8851,-0.9038,-0.911,-0.8535,-0.7713,-0.6758,-0.5036,-0.3885,-0.318,-0.3452,-0.3134,-0.2444,-0.2563,-0.2333,-0.1369,-0.0497,0.0376,0.1399,0.2291,0.3336,0.4296,0.4819,0.5175,0.5247,0.525,0.503,0.4822,0.5601,0.625,0.6769,0.6769,0.7417,0.8193,0.8457,0.8586,0.885,0.936,1.0139,1.0918,1.1175,1.1823,1.2472,1.2736,1.3494,1.4512,1.5272,1.6041,1.6555,1.6555,1.6796,1.7037,1.7037,1.8151,1.901,1.8501,1.9505,2.0335,1.9763,2.0468,2.1159,2.1557,2.1963,2.2187,2.2523,2.2857,2.3191,2.3508,2.4499,2.5682,2.7454,2.7237,2.7933,3.0021,2.9315,2.9021,2.9637,3.0396,3.0881,3.091,3.2218,3.3259,3.4247,3.3901,3.3814,3.406,3.3952,3.3863,-0.2887,0.0,0.0,0.0,0.0,0.0,-0.7728,-0.93,-1.0943,-1.2471,-1.1987,-1.1822,-1.3454,-1.2819,-1.2588,-1.3829,-1.4513,-1.4616,-1.4062,-1.3389,-1.2794,-1.2212,-1.2137,-1.1567,-1.0283,-1.0658,-1.0866,0.0,-1.0159,-0.9629,-0.8732,-0.6862,-0.5426,-0.4433,-0.4185,-0.3845,-0.364,-0.3395,-0.2925,-0.2584,-0.1596,-0.062,0.0127,0.1266,0.2174,0.2995,0.3518,0.3778,0.3911,0.2999,0.2479,0.222,0.339,0.4041,0.4431,0.4561,0.5341,0.6384,0.6778,0.7037,0.7162,0.781,0.8591,0.9501,0.9875,1.0782,1.1952,1.1959,1.26,1.3621,1.4766,1.5652,1.6293,1.6419,1.6922,1.7288,1.7402,1.8253,1.8602,1.7619,1.8004,1.8349,1.7844,1.8807,1.962,1.9659,2.0272,2.0835,2.0835,2.1251,2.148,2.148,2.2407,2.3759,2.5682,2.5559,2.6426,2.8868,2.8689,2.8774,2.9546,3.0997,3.1519,3.0984,3.2651,3.333,3.3113,3.2522,3.2654,3.3344,3.344,3.36,0.0,0.0,0.0,-0.7219,-0.8365,-0.952,-1.2047,-1.2844,-1.3286,-1.3861,-1.4252,-1.4583,-1.4874,-1.5758,-1.713,-1.9381,-1.8276,-1.7037,-1.7255,-1.6503,-1.5204,-1.3436,-1.3345,-1.2668,-1.0845,-1.111,-1.1431,-1.1424,-1.1439,-1.1174,-1.0598,-1.0324,-0.9695,-0.8812,-0.679,-0.5806,-0.5977,-0.3872,-0.3044,-0.3129,-0.2607,-0.2478,-0.2349,-0.17,-0.144,-0.131,-0.0262,0.0,-0.0393,0.0,0.0913,0.2214,0.2867,0.4036,0.5335,0.5987,0.6384,0.6778,0.7171,0.7556,0.7805,0.8203,0.8333,0.8462,0.8462,0.936,1.0647,1.0918,1.1944,1.323,1.3867,1.4766,1.5778,1.6429,1.6555,1.6671,1.7413,1.6221,1.5069,1.5098,1.5592,1.5942,1.5644,1.7227,1.8782,1.9516,2.0689,2.162,2.162,2.1445,2.1399,2.1399,2.3135,2.4628,2.5596,2.7534,2.8629,2.8583,3.0223,3.0837,3.0141,3.1877,3.243,3.1696,3.1997,3.2356,3.2853,3.1203,3.0953,3.1985,3.306,3.3661,-0.6281,-0.6746,-0.7319,-0.9625,-1.1325,-1.2854,-1.4323,-1.5484,-1.6576,-1.7786,-1.7853,-1.8091,-1.8826,-1.8626,-1.8637,-1.9294,-1.8785,-1.814,-1.7527,-1.7037,-1.6095,-1.4569,-1.4672,-1.4438,-1.3423,-1.34,-1.3477,-1.3477,-1.2712,-1.2011,-1.1896,-1.0492,-0.9567,-0.9224,-0.8079,-0.7481,-0.7554,-0.667,-0.6062,-0.5857,-0.4301,-0.3522,-0.3525,-0.2483,-0.1833,-0.1573,-0.0916,-0.1438,-0.2481,-0.1046,0.0,0.0783,0.1436,0.1956,0.2478,0.3262,0.3653,0.4046,0.444,0.4831,0.5091,0.5485,0.6258,0.6903,0.6903,0.7939,0.9102,0.9237,0.9495,1.0133,1.0775,1.1417,1.2305,1.3587,1.4104,1.4611,1.5108,1.4466,1.4086,1.4845,1.4992,1.5028,1.518,1.6337,1.7589,1.8504,1.9608,2.0533,2.1314,2.2057,2.2673,2.2984,2.4381,2.5296,2.565,2.5931,2.6092,2.5992,2.6224,2.6274,2.588,2.736,2.8048,2.7768,2.884,2.9858,3.0937,3.0021,3.0057,3.0957,3.0815,3.0691,-0.791,-0.8766,-0.9726,-1.262,-1.4682,-1.6285,-1.7141,-1.8179,-1.9308,-2.0182,-1.9688,-1.9326,-2.0303,-2.0477,-2.0477,-2.0503,-1.9875,-1.9121,-1.8264,-1.7902,-1.7162,-1.603,-1.6157,-1.602,-1.5632,-1.5758,-1.5632,-1.5127,-1.4348,-1.3705,-1.3205,-1.1921,-1.1153,-1.1153,-1.0755,-1.0242,-0.9471,-0.844,-0.7795,-0.7537,-0.5987,-0.5208,-0.5341,-0.4304,-0.3785,-0.3527,-0.3001,-0.352,-0.4431,-0.3133,-0.2351,-0.1958,-0.1304,-0.0913,-0.0652,0.013,0.0914,0.1699,0.2221,0.2876,0.3531,0.4056,0.4834,0.5478,0.5478,0.6518,0.7685,0.7949,0.8333,0.8844,0.9231,0.9998,1.0897,1.1538,1.2432,1.2876,1.2241,1.1945,1.2077,1.319,1.3235,1.3337,1.389,1.4973,1.6105,1.7,1.8096,1.9238,1.9967,2.1352,2.2171,2.183,2.3803,2.4846,2.4157,2.4646,2.4747,2.4328,2.456,2.4605,2.4129,2.5667,2.6456,2.6456,2.7574,2.7869,2.7259,2.7985,2.8699,2.951,2.9143,2.9059,-0.9679,-1.0818,-1.2305,-1.6207,-1.8375,-1.9726,-2.0575,-2.0892,-2.1172,-2.1206,-1.986,-1.8998,-1.948,-2.1199,-2.2578,-2.282,-2.1334,-2.0096,-1.9591,-1.8986,-1.8377,-1.7641,-1.7527,-1.7527,-1.7527,-1.7777,-1.7516,-1.6136,-1.6377,-1.6,-1.4874,-1.4747,-1.4747,-1.462,-1.462,-1.3723,-1.1666,-0.9728,-0.8693,-0.8564,-0.7666,-0.7541,-0.7805,-0.7033,-0.7033,-0.7407,-0.6635,-0.638,-0.6384,-0.625,-0.6128,-0.5746,-0.4958,-0.4304,-0.365,-0.2737,-0.1435,0.0,0.0653,0.183,0.3007,0.3793,0.4056,0.4056,0.4056,0.4961,0.5991,0.6778,0.7939,0.8838,0.8838,0.9998,1.0769,1.0126,1.1139,1.1473,0.9073,0.8718,0.9192,1.0261,1.049,1.0828,1.1999,1.3342,1.4455,1.5163,1.6644,1.7649,1.7612,1.9425,1.9997,1.8067,2.1558,2.3329,2.1453,2.3484,2.4477,2.3566,2.5036,2.554,2.4648,2.6268,2.7234,2.7234,2.777,2.6313,2.265,2.5351,2.7077,2.7712,2.7978,2.8446,-1.2034,-1.4302,-1.634,-1.963,-2.075,-2.1252,-2.2172,-2.257,-2.2903,-2.3483,-2.332,-2.282,-2.2578,-2.2941,-2.3076,-2.2713,-2.2699,-2.2079,-2.0451,-2.0329,-1.9702,-1.797,-1.7992,-1.8015,-1.7527,-1.7527,-1.7527,-1.7151,-1.7151,-1.7277,-1.7141,-1.7141,-1.689,-1.6,-1.6,-1.537,-1.385,-1.3205,-1.244,-1.1431,-0.9612,-0.858,-0.8198,-0.6903,-0.781,-1.0274,-0.885,-0.8208,-0.8208,-0.6773,-0.6128,-0.5746,-0.4697,-0.4041,-0.352,-0.261,-0.1828,-0.1045,-0.0653,-0.0131,0.0392,0.0914,0.1045,0.1045,0.1045,0.1305,0.1565,0.1826,0.2086,0.2475,0.2997,0.3776,0.4819,0.6254,0.7049,0.7667,0.8311,0.8736,0.9192,1.0261,1.0648,1.1043,1.1957,1.2913,1.3871,1.4653,1.6027,1.7036,1.7237,1.8233,1.8765,1.8484,1.9661,2.0498,2.0345,2.0962,2.1194,2.101,2.135,2.1417,2.0998,2.146,2.1789,2.1961,2.3804,2.4531,2.4139,2.4703,2.5356,2.6083,2.543,2.5331,-1.2536,-1.5886,-1.9002,-2.1436,-2.2244,-2.27,-2.3005,-2.3263,-2.3583,-2.4337,-2.5351,-2.6044,-2.5674,-2.5556,-2.5319,-2.4367,-2.4487,-2.4009,-2.2051,-2.1943,-2.1564,-2.007,-1.985,-1.9628,-1.9381,-1.9146,-1.8762,-1.8264,-1.8264,-1.8264,-1.8027,-1.8027,-1.7891,-1.738,-1.738,-1.6879,-1.5884,-1.5884,-1.5,-1.3358,-1.1296,-1.0139,-0.9882,-0.8844,-0.9612,-1.1816,-1.0911,-1.0146,-0.9513,-0.8467,-0.7944,-0.7561,-0.6644,-0.5865,-0.5345,-0.457,-0.3527,-0.261,-0.2088,-0.1436,-0.0653,-0.0131,0.0,0.0,0.0,0.0261,0.0391,0.0515,0.1154,0.179,0.2021,0.3018,0.4277,0.5535,0.6208,0.66,0.6875,0.7153,0.7562,0.8249,0.8914,0.9574,1.0233,1.1144,1.1848,1.228,1.3751,1.4899,1.5029,1.6866,1.7792,1.6896,1.859,1.9532,1.8808,1.9663,2.0131,1.9845,1.9991,1.9793,1.9382,1.98,2.0121,2.0271,2.1582,2.2559,2.3019,2.3482,2.3804,2.3891,2.3087,2.2809,-1.2889,-1.6501,-2.0291,-2.2615,-2.3763,-2.4347,-2.4188,-2.4185,-2.4279,-2.4995,-2.6749,-2.8126,-2.8126,-2.8126,-2.7779,-2.6732,-2.6481,-2.591,-2.4279,-2.4039,-2.3799,-2.3076,-2.2457,-2.2093,-2.1741,-2.1375,-2.0626,-1.9381,-1.9492,-1.9245,-1.8513,-1.8525,-1.8513,-1.8626,-1.8626,-1.8264,-1.7527,-1.7402,-1.6524,-1.4874,-1.2975,-1.208,-1.2336,-1.1769,-1.2065,-1.2961,-1.2961,-1.2324,-1.1179,-1.1179,-1.1042,-1.0639,-0.9827,-0.8906,-0.813,-0.7324,-0.6006,-0.4564,-0.3781,-0.274,-0.1566,-0.091,-0.0781,-0.0913,-0.0647,-0.0259,0.0,0.0502,0.1741,0.2845,0.2773,0.4068,0.5385,0.5866,0.6294,0.6202,0.4897,0.4758,0.5099,0.5427,0.6512,0.7481,0.8013,0.887,0.9626,0.9732,1.1231,1.2385,1.2329,1.5172,1.6405,1.4266,1.7302,1.8696,1.67,1.8339,1.9328,1.8852,1.9098,1.9046,1.8656,1.9554,1.9969,1.9929,2.0233,2.0378,2.0378,2.1796,2.222,2.1604,2.1214,2.1056,-1.6781,-1.8486,-1.9696,-2.5376,-2.6641,-2.6996,-2.8069,-2.7851,-2.753,-2.8072,-2.8205,-2.8126,-2.8126,-2.8126,-2.8126,-2.7895,-2.7895,-2.7547,-2.6631,-2.7082,-2.6715,-2.505,-2.5184,-2.459,-2.2457,-2.22,-2.1605,-2.0393,-2.0393,-2.0393,-2.0503,-2.0503,-2.0121,-1.9357,-1.9121,-1.8513,-1.7527,-1.6911,-1.6671,-1.666,-1.5389,-1.4503,-1.4003,-1.4766,-1.5187,-1.5323,-1.5323,-1.5196,-1.5061,-1.5061,-1.4789,-1.4501,-1.2977,-1.1543,-1.0062,-0.8939,-0.77,-0.6404,-0.627,-0.5616,-0.4945,-0.4324,-0.4867,-0.5297,-0.3702,-0.4198,-0.4875,-0.304,-0.2291,-0.1928,-0.1201,-0.036,0.0719,0.2513,0.2064,0.1428,0.1853,0.2926,0.3998,0.4648,0.6066,0.7261,0.7792,0.8763,0.9839,1.0797,1.1646,1.2054,1.1813,1.2753,1.3142,1.2506,1.2981,1.3435,1.3544,1.3801,1.4213,1.46,1.4927,1.5438,1.6452,1.6879,1.69,1.6453,1.7604,1.8238,1.8238,1.9706,2.0212,2.0085,2.0784,2.1002,-1.6058,-1.8387,-2.058,-2.447,-2.6657,-2.7859,-2.8285,-2.8188,-2.855,-3.0685,-3.0368,-2.9842,-3.0087,-3.0106,-2.9861,-2.9159,-2.9045,-2.8816,-2.7797,-2.7779,-2.7512,-2.6564,-2.6246,-2.5556,-2.4352,-2.3754,-2.3138,-2.2549,-2.2549,-2.2549,-2.2685,-2.1957,-2.1212,-2.0723,-2.0109,-1.9393,-1.8525,-1.8661,-1.8151,-1.7015,-1.6503,-1.5741,-1.4945,-1.8725,-1.9723,-1.8239,-1.7455,-1.6384,-1.5375,-1.5375,-1.498,-1.4377,-1.3271,-1.2286,-1.1496,-1.0572,-0.9624,-0.8591,-0.8462,-0.7949,-0.7417,-0.7058,-0.7341,-0.7637,-0.668,-0.6614,-0.6442,-0.5422,-0.4251,-0.3138,-0.286,-0.1936,-0.0796,0.0454,-0.0111,-0.0758,-0.0217,0.0651,0.1409,0.1953,0.2822,0.3691,0.401,0.4879,0.5922,0.7183,0.8406,0.9113,0.909,1.0024,1.0652,1.0359,1.0594,1.1015,1.1742,1.2185,1.2802,1.3565,1.4042,1.4543,1.5109,1.377,1.3105,1.3425,1.476,1.5298,1.5035,1.6299,1.6702,1.6302,1.6894,1.7268,-1.5835,-1.8644,-2.151,-2.3812,-2.6615,-2.8809,-2.9106,-2.9067,-2.9653,-3.2389,-3.241,-3.1878,-3.1808,-3.1919,-3.1697,-3.0538,-3.0313,-2.9955,-2.893,-2.8683,-2.8435,-2.8205,-2.7396,-2.6814,-2.6581,-2.5625,-2.5018,-2.4765,-2.4544,-2.4337,-2.4248,-2.3138,-2.2535,-2.2443,-2.1592,-2.0858,-2.0257,-2.0749,-1.9986,-1.8094,-1.8209,-1.7827,-1.7162,-2.1893,-2.2985,-2.0807,-1.9634,-1.8142,-1.681,-1.6677,-1.6395,-1.5877,-1.513,-1.4519,-1.4043,-1.3322,-1.2169,-1.0786,-1.0779,-0.9991,-0.894,-0.8871,-0.9044,-0.9229,-0.8688,-0.8076,-0.7461,-0.6851,-0.5283,-0.3698,-0.3711,-0.2709,-0.184,-0.2156,-0.2811,-0.3255,-0.2935,-0.2393,-0.185,-0.1522,-0.087,-0.0327,0.0,0.0757,0.1599,0.2796,0.4588,0.6011,0.623,0.7637,0.8505,0.8355,0.8809,0.9335,0.9962,1.0666,1.1411,1.2151,1.2746,1.3154,1.3324,1.0556,0.9565,1.07,1.1718,1.202,1.1632,1.2469,1.2557,1.203,1.2168,1.2507,-2.0453,-2.1312,-2.1704,-2.6234,-2.901,-3.1319,-3.3906,-3.3869,-3.3133,-3.278,-3.3501,-3.3588,-3.1656,-3.2189,-3.265,-3.1828,-3.1717,-3.1474,-3.0744,-3.1119,-3.1007,-2.9842,-3.0162,-3.0011,-2.9143,-2.8055,-2.7013,-2.6463,-2.5475,-2.4694,-2.4321,-2.4202,-2.4083,-2.4083,-2.3724,-2.3379,-2.2926,-2.24,-2.2037,-2.1835,-2.2375,-2.2666,-2.2707,-2.2522,-2.2463,-2.2696,-2.2311,-2.2586,-2.3167,-2.2893,-2.3165,-2.3965,-2.2721,-2.1199,-1.9468,-1.8486,-1.5864,-1.2644,-1.3261,-1.1602,-0.9198,-0.9411,-1.015,-1.0687,-0.8485,-0.8811,-0.9441,-0.7117,-0.5899,-0.523,-0.4463,-0.3806,-0.4125,-0.7255,-0.8234,-0.824,-0.7691,-0.6497,-0.5414,-0.4867,-0.368,-0.2709,-0.2274,-0.116,-0.0309,-0.0205,0.239,0.4283,0.4365,0.5828,0.6803,0.678,0.6945,0.7053,0.7193,0.7338,0.7523,0.7599,0.7978,0.8668,0.9727,0.7352,0.6768,0.8254,0.8433,0.8439,0.8388,0.8492,0.8452,0.8275,0.8269,0.819,-1.6429,-1.9607,-2.2336,-2.3139,-2.6499,-3.0113,-3.1912,-3.2599,-3.313,-3.3825,-3.2904,-3.1679,-3.0996,-3.2631,-3.3461,-3.1412,-3.2375,-3.3284,-3.2848,-3.2759,-3.2671,-3.2079,-3.1858,-3.1616,-3.1335,-3.0554,-2.9992,-2.9709,-2.9275,-2.8496,-2.7495,-2.6513,-2.5576,-2.4678,-2.3589,-2.2883,-2.2762,-2.2549,-2.2321,-2.2093,-2.233,-2.4326,-2.7677,-2.6872,-2.5954,-2.5062,-2.4043,-2.3269,-2.2773,-2.2178,-2.1694,-2.1397,-2.0568,-1.9562,-1.8548,-1.7923,-1.6509,-1.4894,-1.5139,-1.419,-1.3083,-1.3403,-1.3813,-1.3986,-1.2905,-1.2701,-1.2485,-1.1057,-0.9534,-0.8328,-0.8007,-0.7368,-0.7158,-0.8126,-0.887,-0.9291,-0.885,-0.8837,-0.8717,-0.8384,-0.7299,-0.6471,-0.6357,-0.516,-0.3957,-0.3272,-0.1825,-0.0465,0.0455,0.1272,0.1907,0.1998,0.2277,0.2937,0.4009,0.4432,0.5088,0.6078,0.5963,0.4608,0.184,0.135,0.1483,0.2111,0.2784,0.3012,0.2696,0.3476,0.3633,0.3215,0.3536,0.3025,-1.4348,-1.7967,-2.1528,-2.0959,-2.411,-2.7814,-2.9871,-3.0813,-3.2186,-3.5013,-3.3224,-3.0975,-3.0421,-3.2294,-3.3284,-3.1054,-3.279,-3.447,-3.4277,-3.3739,-3.3414,-3.3414,-3.2869,-3.2629,-3.3175,-3.2499,-3.2149,-3.2369,-3.2039,-3.1374,-3.0255,-2.8934,-2.7771,-2.6797,-2.5576,-2.4615,-2.4052,-2.4559,-2.4337,-2.3634,-2.4161,-2.632,-2.9792,-2.9238,-2.8256,-2.7013,-2.5899,-2.4631,-2.331,-2.3072,-2.2333,-2.14,-2.0983,-2.0369,-1.979,-1.9051,-1.8124,-1.7055,-1.7179,-1.6489,-1.5796,-1.6594,-1.6589,-1.6234,-1.5852,-1.501,-1.4081,-1.3393,-1.2056,-1.0789,-1.0364,-1.0478,-1.0478,-0.9923,-1.074,-1.1461,-1.0748,-1.1461,-1.2082,-1.1364,-1.0444,-0.9896,-0.9872,-0.8717,-0.7507,-0.6665,-0.6091,-0.517,-0.3641,-0.3282,-0.2824,-0.1754,-0.1419,-0.0669,0.0848,0.108,0.1536,0.2582,0.2521,0.0263,-0.4602,-0.4238,-0.3794,-0.3482,-0.2581,-0.23,-0.269,-0.2102,-0.2041,-0.2464,-0.2468,-0.3206,-1.6623,-1.7552,-1.8849,-2.1178,-2.2884,-2.4951,-2.8842,-2.9449,-3.0735,-3.619,-3.4998,-3.2388,-3.0321,-3.1095,-3.1804,-3.1039,-3.3143,-3.479,-3.479,-3.3955,-3.3414,-3.3414,-3.3175,-3.3414,-3.4321,-3.3522,-3.3263,-3.3783,-3.2848,-3.2079,-3.1707,-3.1414,-3.1211,-3.1211,-3.0968,-2.9955,-2.8126,-2.9273,-2.9026,-2.7512,-2.9546,-2.9645,-2.8259,-2.8144,-2.8162,-2.8144,-2.8144,-2.7565,-2.6682,-2.7648,-2.7694,-2.71,-2.71,-2.6209,-2.4697,-2.3691,-2.1584,-1.928,-1.9521,-1.8054,-1.641,-1.7736,-1.7595,-1.6563,-1.5962,-1.4919,-1.3811,-1.3039,-1.2491,-1.1752,-1.0585,-1.2261,-1.4054,-1.3824,-1.5116,-1.6028,-1.4459,-1.5151,-1.5528,-1.3719,-1.2854,-1.2343,-1.2025,-1.115,-1.042,-1.0429,-0.9997,-0.9111,-0.7696,-0.7519,-0.6367,-0.3405,-0.3318,-0.3079,-0.217,-0.3044,-0.3858,-0.4333,-0.3421,-0.4481,-0.8155,-0.881,-0.8601,-0.7528,-0.726,-0.7136,-0.7118,-0.8294,-0.8767,-0.8709,-0.9963,-1.0721,-1.6421,-1.8484,-2.0632,-2.1149,-2.2611,-2.5108,-2.9891,-3.0854,-3.0721,-3.0754,-3.1531,-3.1688,-3.0028,-3.3677,-3.6002,-3.3074,-3.5306,-3.6964,-3.61,-3.6367,-3.6367,-3.5681,-3.5927,-3.6113,-3.5891,-3.5259,-3.4834,-3.4812,-3.4277,-3.3501,-3.243,-3.221,-3.1878,-3.108,-3.0519,-2.9955,-2.9387,-2.9122,-2.8761,-2.8303,-3.1633,-3.2636,-3.1667,-2.9917,-2.8816,-2.8374,-2.7298,-2.6615,-2.6162,-2.6512,-2.6357,-2.5782,-2.4466,-2.3286,-2.2187,-2.0892,-2.0056,-1.96,-1.9717,-1.9842,-2.0099,-2.0889,-2.0933,-2.0545,-1.9862,-1.8759,-1.7567,-1.6781,-1.5599,-1.4956,-1.6629,-1.7087,-1.6729,-1.5656,-1.6329,-1.7093,-1.6544,-1.7902,-1.8834,-1.7549,-1.7187,-1.6922,-1.6436,-1.538,-1.4624,-1.4732,-1.3977,-1.3124,-1.2352,-1.1058,-0.9955,-0.9169,-0.7911,-0.6541,-0.5172,-0.6023,-0.654,-0.6334,-0.8976,-1.1264,-1.2954,-1.2583,-1.2176,-1.186,-1.1845,-1.2382,-1.3433,-1.3819,-1.4616,-1.5807,-1.6112,-1.6811,-1.6698,-1.887,-2.1253,-2.1693,-2.189,-2.3379,-2.8743,-2.9402,-2.8692,-2.8139,-2.9714,-3.0971,-3.0246,-3.3857,-3.6066,-3.3479,-3.5687,-3.7777,-3.7987,-3.8284,-3.8284,-3.7702,-3.7679,-3.7475,-3.701,-3.6517,-3.61,-3.5891,-3.5658,-3.5214,-3.447,-3.4277,-3.3933,-3.3329,-3.2676,-3.2128,-3.1667,-3.1516,-3.0915,-3.0069,-3.279,-3.3847,-3.3372,-3.1727,-3.0836,-3.0368,-2.8921,-2.8374,-2.8381,-2.7848,-2.7382,-2.6919,-2.5371,-2.4026,-2.2735,-2.1476,-2.1133,-2.146,-2.1362,-2.1819,-2.2676,-2.3445,-2.3618,-2.3314,-2.2895,-2.209,-2.12,-2.053,-1.9333,-1.8736,-2.0689,-2.0495,-1.9632,-1.8708,-1.9335,-1.9959,-1.9472,-2.0368,-2.0928,-1.9749,-1.9329,-1.9025,-1.8644,-1.7878,-1.7368,-1.752,-1.6761,-1.6112,-1.5886,-1.4467,-1.3417,-1.3242,-1.1421,-0.9786,-0.8648,-0.9643,-1.0337,-1.0286,-1.4856,-1.7803,-1.8438,-1.7655,-1.7318,-1.7595,-1.75,-1.7873,-1.869,-1.8765,-1.9278,-2.0167,-2.0205,-2.0721,-1.7362,-1.8832,-2.0614,-2.2493,-2.1203,-2.0829,-2.619,-2.5967,-2.5383,-2.7744,-2.8921,-2.9855,-3.0451,-3.1816,-3.2855,-3.292,-3.4708,-3.7021,-3.9694,-3.9366,-3.8831,-3.8883,-3.8216,-3.7689,-3.7756,-3.7295,-3.701,-3.701,-3.6908,-3.701,-3.7192,-3.6724,-3.6621,-3.7192,-3.6494,-3.5568,-3.4547,-3.5463,-3.4931,-3.2763,-3.3482,-3.3783,-3.3524,-3.3503,-3.3482,-3.316,-3.2103,-3.1976,-3.2428,-3.1153,-3.0404,-2.9901,-2.9148,-2.7593,-2.5752,-2.4717,-2.4227,-2.4041,-2.3907,-2.3889,-2.4041,-2.5352,-2.5537,-2.5088,-2.5196,-2.4915,-2.4469,-2.3838,-2.3388,-2.3104,-2.3166,-2.2929,-2.2706,-2.2624,-2.348,-2.4022,-2.2771,-2.2591,-2.2174,-2.0733,-1.9845,-1.9392,-1.9375,-1.9171,-1.9054,-1.9291,-1.876,-1.844,-1.8764,-1.777,-1.6718,-1.604,-1.4111,-1.2787,-1.2578,-1.3596,-1.4726,-1.5872,-2.0602,-2.349,-2.3914,-2.3231,-2.3163,-2.3861,-2.3393,-2.303,-2.2761,-2.3012,-2.288,-2.2471,-2.2849,-2.3072,-1.7959,-1.8049,-1.8757,-2.1087,-2.3276,-2.5218,-2.6787,-2.6747,-2.6053,-2.4705,-2.4647,-2.5356,-2.7264,-2.8946,-3.172,-3.6832,-3.5205,-3.4051,-3.6531,-3.5383,-3.4695,-3.5593,-3.6579,-3.7505,-3.8214,-3.8006,-3.7601,-3.7295,-3.6678,-3.6286,-3.6055,-3.5658,-3.5576,-3.5658,-3.547,-3.4879,-3.3709,-3.4459,-3.5161,-3.5735,-3.7229,-3.6674,-3.4337,-3.4573,-3.344,-3.1373,-3.106,-3.088,-3.0642,-3.0433,-3.0489,-3.0741,-3.0021,-2.9118,-2.8164,-2.6937,-2.537,-2.4003,-2.5135,-2.5324,-2.5355,-2.6922,-2.7331,-2.7138,-2.6558,-2.5909,-2.5135,-2.3832,-2.5853,-2.8357,-2.7689,-2.6856,-2.61,-2.5606,-2.4982,-2.4381,-2.4031,-2.3854,-2.3472,-2.2492,-2.2706,-2.2903,-2.2414,-2.2352,-2.2735,-2.3756,-2.3203,-2.3037,-2.4077,-2.1648,-1.9897,-2.0003,-1.7198,-1.5905,-1.7303,-1.5892,-1.6842,-2.1332,-2.2684,-2.3614,-2.418,-2.3821,-2.359,-2.3471,-2.335,-2.3741,-2.4607,-2.4702,-2.56,-2.734,-2.7423,-2.75,-1.8545,-1.9036,-1.9668,-2.0134,-2.1728,-2.328,-2.3396,-2.3511,-2.3105,-2.171,-2.1742,-2.2966,-2.6009,-2.6818,-2.887,-3.4519,-3.4389,-3.4733,-3.7889,-3.804,-3.7853,-3.7693,-3.933,-3.996,-3.874,-3.9402,-3.9622,-3.8933,-3.856,-3.8236,-3.816,-3.7934,-3.7617,-3.7161,-3.6938,-3.6263,-3.5146,-3.4906,-3.4846,-3.5133,-3.6389,-3.62,-3.4497,-3.4643,-3.3836,-3.235,-3.1783,-3.1755,-3.2038,-3.1475,-3.1104,-3.0821,-3.0487,-2.9457,-2.8155,-2.7499,-2.6397,-2.5375,-2.5994,-2.611,-2.6059,-2.7119,-2.7841,-2.8353,-2.8091,-2.8259,-2.8205,-2.7257,-2.8342,-2.9514,-2.8322,-2.8073,-2.7963,-2.6933,-2.6136,-2.5696,-2.5747,-2.5242,-2.4738,-2.434,-2.4562,-2.475,-2.4528,-2.4648,-2.5077,-2.5924,-2.5379,-2.522,-2.6037,-2.3438,-2.1552,-2.1653,-1.9438,-1.8416,-1.9496,-1.8885,-1.9805,-2.2943,-2.3873,-2.4751,-2.5765,-2.6032,-2.5787,-2.5023,-2.5817,-2.6137,-2.6047,-2.6451,-2.7221,-2.8325,-2.7774,-2.7575,-1.9027,-2.0459,-2.1551,-1.975,-1.9397,-1.945,-1.9329,-1.933,-1.9429,-1.9429,-2.0169,-2.1782,-2.5141,-2.52,-2.5884,-2.9569,-3.2814,-3.6185,-3.9731,-4.126,-4.1626,-4.0476,-4.2042,-4.2119,-3.9392,-4.0841,-4.1658,-4.0997,-4.0651,-4.0574,-4.0789,-4.0298,-3.9662,-3.8942,-3.8433,-3.7729,-3.6678,-3.5961,-3.4825,-3.3302,-3.4388,-3.4731,-3.431,-3.447,-3.4466,-3.4249,-3.3132,-3.3252,-3.4225,-3.335,-3.2102,-3.0964,-3.1383,-2.9994,-2.7841,-2.7875,-2.7823,-2.7741,-2.6925,-2.668,-2.6803,-2.7148,-2.8081,-2.9067,-2.9376,-3.0289,-3.1236,-3.0963,-3.0057,-2.8848,-2.753,-2.8196,-2.8913,-2.7743,-2.7301,-2.7249,-2.7373,-2.6609,-2.5879,-2.604,-2.5909,-2.5834,-2.6083,-2.6372,-2.6646,-2.6949,-2.659,-2.6341,-2.6598,-2.4509,-2.2899,-2.2705,-2.1585,-2.0987,-2.1249,-2.2058,-2.2796,-2.3382,-2.4874,-2.6246,-2.7422,-2.8241,-2.8215,-2.7249,-2.8602,-2.8505,-2.6769,-2.7496,-2.7622,-2.7104,-2.6196,-2.5855,-1.8875,-2.0404,-2.1718,-2.0665,-2.046,-2.0353,-1.9601,-1.9429,-1.9429,-1.9429,-2.0073,-2.1076,-2.2554,-2.4321,-2.5835,-2.6531,-3.0596,-3.3981,-3.4857,-3.4452,-3.4446,-3.5675,-3.7235,-3.8721,-3.9924,-4.1193,-4.1804,-4.1523,-3.9952,-3.9012,-3.9038,-3.745,-3.6506,-3.6332,-3.6241,-3.5622,-3.4537,-3.6402,-3.6112,-3.3789,-3.6263,-3.6113,-3.3769,-3.4882,-3.4837,-3.3736,-3.3559,-3.3665,-3.3981,-3.4733,-3.4201,-3.2952,-3.3938,-3.3259,-3.1517,-3.0323,-3.0522,-3.115,-2.8722,-2.7975,-2.8223,-2.9313,-2.979,-2.9777,-2.9083,-2.9219,-2.9484,-2.9228,-2.9082,-2.8977,-2.8831,-2.9115,-2.9472,-2.9388,-2.8717,-2.819,-2.8225,-2.7457,-2.6819,-2.6983,-2.707,-2.7149,-2.7306,-2.7622,-2.7884,-2.7824,-2.7907,-2.8079,-2.8337,-2.6994,-2.5969,-2.5928,-2.467,-2.4425,-2.5842,-2.4458,-2.4301,-2.6225,-2.673,-2.692,-2.6792,-2.7618,-2.8109,-2.8162,-2.8432,-2.7605,-2.57,-2.6154,-2.5968,-2.514,-2.5314,-2.5722,-2.0373,-2.1493,-2.2388,-2.1809,-2.1194,-2.0719,-2.0702,-2.0201,-1.9849,-2.0237,-2.0525,-2.0898,-2.1494,-2.3026,-2.4497,-2.5563,-2.8176,-3.0729,-3.2572,-3.4528,-3.6027,-3.6658,-3.9147,-4.0503,-3.9381,-4.0874,-4.1603,-4.0969,-3.9433,-3.8396,-3.8281,-3.7548,-3.6807,-3.5993,-3.6542,-3.5655,-3.3277,-3.5804,-3.6146,-3.4262,-3.6189,-3.6377,-3.51,-3.4968,-3.4613,-3.4025,-3.331,-3.3017,-3.309,-3.364,-3.2607,-3.0764,-3.1367,-3.0335,-2.8385,-2.7778,-2.7973,-2.8303,-2.7007,-2.6569,-2.6708,-2.7484,-2.8018,-2.8298,-2.82,-2.8641,-2.9049,-2.859,-2.9104,-2.9613,-2.8814,-2.9355,-2.9897,-2.9181,-2.8718,-2.8484,-2.8563,-2.8256,-2.8007,-2.8145,-2.8183,-2.8299,-2.8426,-2.8574,-2.8699,-2.872,-2.8782,-2.9107,-3.0026,-2.8842,-2.8182,-2.8959,-2.758,-2.6854,-2.75,-2.6412,-2.606,-2.6864,-2.5641,-2.4842,-2.4658,-2.4912,-2.5499,-2.6457,-2.6971,-2.6552,-2.5143,-2.5774,-2.5644,-2.487,-2.4443,-2.4215,-2.3549,0.0,-2.6109,-2.5754,-2.4353,-2.3036,0.0,-2.1852,-2.0717,-2.084,-2.0949,-2.1089,-2.1181,-2.2022,-2.3323,-2.5295,-2.6269,-2.8047,-3.1487,-3.4859,-3.6965,-3.7119,-4.0381,-4.135,-3.7984,-3.9867,-4.0982,-4.0244,-3.8527,-3.7636,-3.7684,-3.7231,-3.6456,-3.5367,-3.63,-3.5507,-3.2674,-3.4919,-3.5366,-3.4124,-3.5081,-3.5396,-3.5368,-3.4357,-3.4083,-3.4276,-3.3288,-3.2936,-3.3171,-3.3264,-3.1904,-2.9699,-2.9595,-2.8158,-2.6136,-2.603,-2.6018,-2.6018,-2.6139,-2.6061,-2.6032,-2.635,-2.6936,-2.7589,-2.7899,-2.8426,-2.8851,-2.8364,-2.9112,-2.9743,-2.8594,-2.9157,-2.9811,-2.8736,-2.8628,-2.8766,-2.8883,-2.8961,-2.8987,-2.9025,-2.9061,-2.9051,-2.9043,-2.9301,-2.9579,-2.9668,-2.9829,-3.038,-3.1476,-3.0511,-3.0157,-3.1208,-2.9975,-2.9017,-2.8785,-2.8192,-2.7689,-2.7203,-2.5198,-2.3941,-2.386,-2.3467,-2.3793,-2.4976,-2.5724,-2.5719,-2.5038,-2.5362,-2.5091,-2.4229,-2.3361,-2.2743,0.0,-3.3139,-3.5761,-3.4995,-3.2459,-2.9605,-2.746,-2.4693,0.0,-2.0759,-2.1181,-2.1756,-2.1274,-2.1935,-2.3226,-2.5156,-2.5576,-2.7043,-3.1129,-3.1769,-3.2326,-3.364,-3.6504,-3.7535,-3.5452,-3.8045,-3.9676,-3.9407,-3.6927,-3.5885,-3.7106,-3.4582,-3.3034,-3.2924,-3.3914,-3.3874,-3.2642,-3.3918,-3.3939,-3.2594,-3.2784,-3.2744,-3.239,-3.2376,-3.2991,-3.4031,-3.3945,-3.436,-3.5212,-3.5721,-3.4756,-3.2991,-3.2162,-3.0864,-2.9299,-2.8474,-2.8166,-2.8179,-2.8566,-2.8663,-2.8705,-2.8861,-2.9231,-2.9451,-2.9139,-2.8765,-2.8404,-2.8401,-2.8457,-2.8527,-2.8531,-2.8645,-2.8721,-2.8724,-2.9016,-2.9282,-2.9326,-2.952,-2.9609,-2.937,-2.9331,-2.9218,-2.8883,-2.9814,-3.0579,-3.0599,-3.1648,-3.246,-3.2537,-3.2247,-3.203,-3.2041,-3.1575,-3.1215,-3.1102,-2.9929,-2.8956,-2.8301,-2.7514,-2.6909,-2.6578,-2.5752,-2.5287,-2.545,-2.5484,-2.5528,-2.5569,-2.4559,-2.3261,-2.1847,-2.2004,-2.2079,-3.2852,-3.5162,-3.6433,-3.5818,-3.2595,-2.9682,-3.0107,-2.6436,-2.2873,-2.2535,-2.2206,-2.1935,-2.1683,-2.2085,-2.3079,-2.5156,-2.5125,-2.6109,-2.9639,-3.1503,-3.2502,-3.2586,-3.4852,-3.6234,-3.5572,-3.6015,-3.6288,-3.6096,-3.4302,-3.3391,-3.3733,-3.291,-3.2459,-3.2424,-3.3654,-3.399,-3.3235,-3.5397,-3.5823,-3.467,-3.5649,-3.5853,-3.5358,-3.5064,-3.4888,-3.4879,-3.45,-3.4544,0.0,-3.5095,-3.4307,-3.2841,-3.1478,-3.0104,-2.8733,-2.7418,-2.7004,-2.7076,-2.7324,-2.7428,-2.7524,-2.7539,-2.8031,-2.8513,-2.8251,-2.8655,-2.9211,-2.9137,-2.9111,-2.9084,-2.8966,-2.8934,-2.8943,-2.8892,-2.9002,-2.9104,-2.9103,-2.9111,-2.9067,-2.8916,-2.887,-2.8698,-2.8241,-2.863,-2.8947,-2.8682,-2.8876,-2.9374,-3.0243,-3.0829,-3.1518,-3.2349,-3.2028,-3.1866,-3.224,-3.0381,-2.9065,-2.865,-2.6869,-2.5584,-2.5069,-2.3814,-2.3138,-2.3083,-2.2618,-2.2562,-2.2875,-2.263,-2.2128,-2.1241,-2.1369,-2.0894,-3.6029,-3.7892,-3.9109,-3.8715,-3.5887,-3.3084,-3.2885,-2.9004,-2.5054,-2.3843,-2.2722,-2.1935,-2.1846,-2.2331,-2.3373,-2.5212,-2.5586,-2.652,-2.9022,-3.0968,-3.2016,-3.1638,-3.2824,-3.3985,-3.4888,-3.3951,-3.303,-3.2535,-3.1265,-3.075,-3.1405,-3.1392,-3.1352,-3.1414,-3.2891,-3.329,-3.2381,-3.5269,-3.6108,-3.4883,-3.6469,-3.6967,-3.6496,-3.6213,-3.5785,-3.5234,-3.4851,-3.4841,-3.5004,-3.48,-3.4353,-3.3478,-3.1309,-2.9867,-2.8861,-2.7126,-2.6536,-2.6622,-2.6984,-2.7169,-2.7258,-2.7357,-2.7775,-2.8302,-2.8211,-2.8954,-2.9765,-2.9568,-2.9481,-2.9348,-2.9073,-2.8973,-2.8953,-2.8874,-2.8837,-2.8799,-2.8709,-2.8605,-2.8491,-2.8209,-2.8052,-2.7864,-2.7386,-2.7678,-2.7808,-2.7533,-2.7589,-2.8187,-2.9566,-2.9987,-3.0863,-3.2731,-3.212,-3.1754,-3.2094,-3.0715,-2.9617,-2.9229,-2.7288,-2.5745,-2.4824,-2.333,-2.2507,-2.2383,-2.1252,-2.0833,-2.1171,-2.1029,-2.0712,-2.0374,-2.0398,-1.9617,-3.8803,-4.2258,-4.53,-4.5306,-4.384,-4.1078,-3.6106,-3.2606,-2.8997,-2.434,-2.2582,-2.1891,-2.1593,-2.272,-2.4129,-2.5454,-2.705,-2.8544,-2.9598,-2.9882,-3.008,-3.05,-2.998,-3.0529,-3.2978,-3.1803,-3.0287,-2.8874,-2.7722,-2.8153,-3.0757,-2.9934,-2.9423,-2.9569,-3.1222,-3.132,-2.9783,-3.2986,-3.3845,-3.2508,-3.4173,-3.4922,-3.4807,-3.4956,-3.4997,-3.4997,-3.4997,-3.536,-3.5888,-3.5243,-3.536,-3.5615,-3.2075,-3.0647,-3.031,-2.821,-2.7349,-2.7386,-2.8264,-2.8573,-2.8641,-2.8892,-2.9132,-2.938,-2.9498,-2.9686,-2.9823,-2.9579,-2.9326,-2.905,-2.8669,-2.8573,-2.8551,-2.8573,-2.8536,-2.848,-2.8046,-2.8065,-2.7967,-2.7327,-2.6966,-2.6681,-2.6314,-2.7094,-2.7763,-2.7589,-2.8668,-2.9989,-3.1228,-3.0206,-3.0344,-3.3099,-3.1883,-3.0755,-3.0521,-3.0959,-3.0959,-3.0166,-2.9393,-2.8275,-2.6649,-2.4996,-2.4106,-2.4129,-2.1909,-2.0903,-2.1165,-1.9781,-1.9116,-1.9058,-1.881,-1.8211,-4.3907,-4.5559,-4.6276,-4.525,-4.3029,-4.0326,-3.7187,-3.2664,-2.8248,-2.5306,-2.3092,-2.1683,-2.1593,-2.2888,-2.4304,-2.5251,-2.6183,-2.7412,-2.9245,-3.012,-3.0578,-3.0405,-3.1478,-3.1907,-3.0856,-3.0387,-2.978,-2.8958,-2.8599,-2.8836,-2.9894,-2.9138,-2.9376,-3.0851,-3.1496,-3.1764,-3.168,-3.261,-3.2885,-3.2467,-3.409,-3.465,-3.4303,-3.5999,-3.5928,-3.4478,-3.5044,-3.4857,-3.4168,-3.3969,-3.4832,-3.5904,-3.2553,-3.1953,-3.2634,-2.9712,-2.8595,-2.8625,-2.9006,-2.9166,-2.9303,-2.9438,-2.964,-2.952,-2.8283,-2.7712,-2.7439,-2.7352,-2.791,-2.8444,-2.832,-2.8092,-2.7864,-2.7777,-2.7622,-2.7359,-2.6835,-2.6585,-2.6178,-2.5448,-2.5596,-2.5715,-2.5208,-2.6015,-2.6327,-2.5196,-2.6128,-2.6743,-2.6061,-2.7175,-2.8217,-2.8861,-2.86,-2.8768,-2.9608,-2.9506,-2.9262,-2.8955,-2.8204,-2.7369,-2.6259,-2.4957,-2.4083,-2.3665,-2.2372,-2.1781,-2.1976,-2.1548,-2.1451,-2.1507,-2.1402,-2.1031,-4.516,-4.6094,-4.5965,-4.4498,-4.3287,-4.1384,-3.7314,-3.3547,-2.9853,-2.6209,-2.3723,-2.2351,-2.2694,-2.3821,-2.5103,-2.6271,-2.7214,-2.8196,-2.9405,-2.951,-2.9424,-2.9332,-2.9624,-2.939,-2.8081,-2.8046,-2.7897,-2.7467,-2.7587,-2.8109,-2.9018,-2.8801,-2.9152,-3.0269,-3.1063,-3.129,-3.0994,-3.2151,-3.246,-3.1949,-3.3402,-3.4004,-3.3827,-3.5251,-3.5222,-3.4128,-3.5241,-3.5331,-3.4628,-3.5311,-3.6287,-3.7013,-3.3844,-3.3162,-3.3624,-3.0475,-2.9241,-2.9158,-2.9382,-2.9506,-2.9554,-2.9649,-2.9032,-2.8093,-2.6924,-2.6685,-2.68,-2.6665,-2.7118,-2.7553,-2.7553,-2.7062,-2.6491,-2.615,-2.5932,-2.5676,-2.5252,-2.498,-2.4603,-2.4053,-2.4498,-2.4916,-2.4679,-2.5396,-2.5526,-2.4047,-2.4977,-2.5489,-2.4555,-2.5736,-2.6989,-2.7877,-2.7109,-2.7161,-2.8722,-2.8303,-2.7977,-2.8068,-2.7573,-2.6735,-2.5648,-2.4753,-2.4111,-2.3735,-2.2528,-2.2054,-2.2158,-2.1646,-2.1402,-2.1475,-2.1457,-2.0771,-4.412,-4.5056,-4.5194,-4.3695,-4.4327,-4.3571,-3.6989,-3.4968,-3.2777,-2.7085,-2.4689,-2.383,-2.4472,-2.54,-2.651,-2.7872,-2.9242,-3.0132,-2.9921,-2.83,-2.7269,-2.7643,-2.5797,-2.4671,-2.5076,-2.5338,-2.5311,-2.4928,-2.5475,-2.655,-2.8119,-2.8714,-2.8884,-2.8675,-3.0126,-3.026,-2.8821,-3.1409,-3.2085,-3.091,-3.224,-3.3017,-3.3261,-3.3405,-3.3541,-3.3704,-3.5269,-3.5837,-3.5889,-3.7569,-3.8383,-3.8234,-3.5185,-3.403,-3.373,-3.0637,-2.9267,-2.8986,-2.9195,-2.9153,-2.903,-2.9073,-2.747,-2.5597,-2.5526,-2.6257,-2.7018,-2.6795,-2.659,-2.6463,-2.6463,-2.574,-2.4804,-2.4227,-2.3941,-2.3759,-2.3484,-2.3424,-2.3315,-2.3209,-2.3773,-2.4368,-2.452,-2.5198,-2.5226,-2.3832,-2.4837,-2.5634,-2.5233,-2.5345,-2.6354,-2.8586,-2.666,-2.5916,-2.7605,-2.7093,-2.6879,-2.7283,-2.6975,-2.6259,-2.4986,-2.4521,-2.4311,-2.417,-2.2822,-2.2059,-2.192,-2.0644,-1.9986,-1.9827,-1.9705,-1.8746,-4.6842,-4.7135,-4.7105,-4.6342,-4.5869,-4.4217,-3.9008,-3.6067,-3.3152,-2.8696,-2.6615,-2.5605,-2.5562,-2.7459,-2.8656,-2.7471,-2.913,-3.027,-2.9434,-2.7657,-2.6595,-2.6991,-2.5453,-2.4285,-2.4193,-2.4153,-2.3975,-2.3606,-2.4871,-2.6031,-2.6791,-2.8374,-2.9238,-2.9212,-2.9544,-2.9496,-2.9077,-2.9703,-2.9797,-2.9453,-3.0952,-3.1711,-3.1814,-3.3108,-3.3153,-3.2186,-3.2498,-3.2128,-3.1314,-3.2998,-3.4541,-3.5573,-3.3295,-3.3296,-3.4169,-3.0446,-2.8329,-2.7305,-2.7139,-2.6296,-2.5295,-2.5391,-2.4635,-2.3828,-2.4413,-2.4526,-2.4525,-2.4572,-2.4818,-2.5149,-2.5217,-2.4702,-2.4084,-2.3874,-2.3533,-2.3186,-2.283,-2.262,-2.2649,-2.3298,-2.3997,-2.4564,-2.4775,-2.5358,-2.5158,-2.3231,-2.4019,-2.4382,-2.3137,-2.4519,-2.5493,-2.5107,-2.5074,-2.4852,-2.4245,-2.457,-2.4807,-2.5001,-2.5409,-2.5584,-2.5364,-2.4951,-2.4636,-2.4399,-2.3704,-2.2819,-2.1836,-2.1579,-2.0999,-2.0179,-2.025,-1.9736,-4.7669,-4.7295,-4.671,-4.6361,-4.5306,-4.3399,-3.971,-3.7573,-3.5138,-3.0948,-2.9155,-2.8119,-2.7415,-2.8137,-2.8657,-2.8317,-2.9183,-2.9695,-2.9234,-2.7575,-2.622,-2.5684,-2.4846,-2.3934,-2.298,-2.3451,-2.3713,-2.3512,-2.5005,-2.6142,-2.6688,-2.8358,-2.9354,-2.9513,-2.9615,-2.9596,-2.9508,-2.9476,-2.9409,-2.9353,-3.0037,-3.0399,-3.0577,-3.139,-3.1448,-3.0886,-3.1693,-3.2055,-3.2194,-3.3903,-3.5609,-3.676,-3.3175,-3.2438,-3.2853,-2.8293,-2.6136,-2.5395,-2.525,-2.4681,-2.3808,-2.2554,-2.2262,-2.2547,-2.3377,-2.363,-2.3647,-2.3681,-2.3693,-2.365,-2.3758,-2.3296,-2.2768,-2.2701,-2.2321,-2.2129,-2.2436,-2.2562,-2.2575,-2.2704,-2.3372,-2.3991,-2.4287,-2.4981,-2.4886,-2.3187,-2.3955,-2.4236,-2.2816,-2.3606,-2.4226,-2.401,-2.423,-2.4181,-2.3901,-2.4153,-2.4415,-2.4422,-2.4902,-2.5256,-2.5337,-2.4953,-2.4544,-2.4194,-2.3364,-2.2522,-2.1774,-2.1172,-2.0669,-2.0196,-2.0071,-1.9595,-4.7157,-4.6419,-4.5373,-4.5519,-4.4343,-4.2521,-4.0075,-3.9052,-3.7515,-3.3425,-3.1698,-3.0649,-2.9643,-2.8473,-2.8016,-2.9202,-2.8963,-2.8736,-2.903,-2.7555,-2.6041,-2.4852,-2.4205,-2.3454,-2.2358,-2.3061,-2.3721,-2.4029,-2.5536,-2.6637,-2.7062,-2.8513,-2.9451,-2.9764,-2.9861,-2.9951,-2.9952,-2.9845,-2.9743,-2.9713,-2.9495,-2.9489,-2.9688,-2.9617,-2.9702,-2.9993,-3.1318,-3.2616,-3.3812,-3.5476,-3.6959,-3.7664,-3.2989,-3.124,-3.0772,-2.5763,-2.3712,-2.34,-2.3346,-2.3163,-2.2634,-2.0881,-2.1016,-2.1909,-2.273,-2.3177,-2.3454,-2.3343,-2.286,-2.2364,-2.2336,-2.1885,-2.133,-2.1238,-2.1008,-2.1071,-2.1905,-2.2369,-2.2626,-2.2399,-2.2913,-2.3558,-2.3837,-2.4471,-2.4556,-2.3224,-2.3938,-2.4148,-2.296,-2.2704,-2.2852,-2.3359,-2.3454,-2.3657,-2.4153,-2.4276,-2.4355,-2.4458,-2.4653,-2.4894,-2.5333,-2.4709,-2.4146,-2.3725,-2.2599,-2.1762,-2.1213,-2.0148,-1.9576,-1.9529,-1.9312,-1.8793,-4.5029,-4.4968,-4.4242,-4.5378,-4.4799,-4.3372,-4.1114,-3.9953,-3.8605,-3.5951,-3.3517,-3.1983,-3.2249,-2.9806,-2.797,-2.8609,-2.7908,-2.7616,-2.8515,-2.701,-2.592,-2.6272,-2.3919,-2.2743,-2.4003,-2.3084,-2.2989,-2.4461,-2.6229,-2.7288,-2.7342,-2.8921,-2.9838,-2.9915,-2.9954,-2.995,-2.9951,-2.9914,-2.9794,-2.9573,-2.9541,-2.955,-2.9559,-2.9545,-2.9621,-2.9777,-2.9765,-2.9875,-3.0176,-3.1758,-3.2511,-3.2446,-2.9962,-2.9138,-2.8844,-2.4644,-2.2382,-2.1337,-2.1141,-2.017,-1.9374,-2.1649,-2.2479,-2.2626,-2.3012,-2.3124,-2.3067,-2.2635,-2.2029,-2.152,-2.1556,-2.1035,-2.0381,-1.9726,-2.0298,-2.0806,-2.0144,-2.0963,-2.2136,-2.3574,-2.3904,-2.4107,-2.45,-2.4583,-2.4129,-2.3012,-2.2744,-2.2622,-2.23,-2.2118,-2.1685,-2.0809,-2.2414,-2.317,-2.2217,-2.2537,-2.3321,-2.438,-2.3654,-2.3989,-2.5558,-2.4208,-2.3309,-2.2913,-2.2101,-2.0718,-1.8941,-1.8689,-1.811,-1.7007,-1.7168,-1.6995,-4.2516,-4.2789,-4.2832,-4.4251,-4.331,-4.1958,-4.1454,-4.0197,-3.8521,-3.6289,-3.3754,-3.1534,-3.0431,-2.893,-2.7589,-2.6749,-2.6695,-2.6982,-2.7501,-2.6849,-2.6471,-2.692,-2.6509,-2.6175,-2.6024,-2.5393,-2.5325,-2.6032,-2.778,-2.8814,-2.8815,-2.9534,-2.9951,-2.9953,-2.9818,-2.9766,-2.982,-2.9697,-2.9533,-2.9451,-2.9355,-2.942,-2.9538,-2.9475,-2.9461,-2.952,-2.9406,-2.9731,-3.0391,-3.1097,-3.1885,-3.2295,-2.8448,-2.7048,-2.6644,-2.2042,-1.995,-1.9536,-2.0026,-2.0004,-2.0099,-2.2003,-2.2624,-2.2703,-2.2957,-2.2762,-2.235,-2.1763,-2.1135,-2.0646,-2.0688,-2.0525,-2.0271,-2.0142,-2.0499,-2.0993,-2.1423,-2.1562,-2.214,-2.3565,-2.3125,-2.2576,-2.2783,-2.2257,-2.1556,-2.0903,-2.068,-2.0531,-2.0402,-2.0197,-2.0099,-2.0389,-2.1249,-2.1712,-2.1574,-2.2131,-2.2546,-2.2531,-2.2438,-2.2939,-2.4184,-2.2768,-2.2102,-2.2335,-2.07,-1.9256,-1.8022,-1.7405,-1.6732,-1.6196,-1.5715,-1.5598,-3.9861,-4.027,-4.0707,-4.252,-4.152,-4.0306,-4.0763,-3.9721,-3.8115,-3.6431,-3.3664,-3.1089,-2.9539,-2.7751,-2.6204,-2.5329,-2.5523,-2.6017,-2.6624,-2.7021,-2.7355,-2.777,-2.8488,-2.8677,-2.7921,-2.7511,-2.7454,-2.7885,-2.9157,-2.9926,-2.9914,-2.9841,-2.9803,-2.9793,-2.9565,-2.9495,-2.9582,-2.9376,-2.9221,-2.9159,-2.9132,-2.9221,-2.9409,-2.9259,-2.9218,-2.9282,-2.918,-2.9631,-3.0419,-3.0345,-3.0776,-3.1031,-2.6707,-2.4802,-2.4004,-1.9988,-1.8549,-1.8788,-1.999,-2.061,-2.0988,-2.2392,-2.2629,-2.2386,-2.2593,-2.2291,-2.1735,-2.0876,-2.0285,-1.9972,-2.0118,-2.0215,-2.0224,-2.0465,-2.0706,-2.1173,-2.2135,-2.2048,-2.2012,-2.2805,-2.193,-2.1131,-2.1182,-2.0445,-1.9834,-1.9602,-1.9342,-1.9076,-1.867,-1.8548,-1.8913,-1.9785,-2.0235,-2.0652,-2.1154,-2.1762,-2.1866,-2.1259,-2.1185,-2.1646,-2.2569,-2.1246,-2.0652,-2.1121,-1.9258,-1.8025,-1.7318,-1.6442,-1.5811,-1.5489,-1.4776,-1.4508,-3.6895,-3.7527,-3.7248,-4.0083,-4.0114,-3.9349,-3.8637,-3.8109,-3.7633,-3.7021,-3.39,-3.1455,-3.199,-2.6787,-2.3115,-2.5108,-2.4375,-2.4155,-2.6194,-2.7536,-2.8564,-2.9339,-2.8197,-2.7939,-2.9482,-2.8282,-2.8054,-2.9689,-2.9875,-2.9891,-2.9759,-2.9628,-2.9506,-2.9409,-2.9267,-2.9181,-2.9178,-2.9081,-2.8854,-2.8624,-2.886,-2.8994,-2.8979,-2.8865,-2.8912,-2.9141,-2.8776,-2.8581,-2.8536,-2.8373,-2.7407,-2.5859,-2.4005,-2.2293,-2.0746,-1.9608,-1.9364,-1.9826,-2.1434,-2.1236,-2.0615,-2.2922,-2.2831,-2.1817,-2.1809,-2.1824,-2.1511,-2.009,-1.9751,-1.985,-1.9972,-2.0118,-2.0125,-1.9767,-2.0454,-2.1126,-2.0788,-2.1324,-2.1586,-2.1051,-2.0903,-2.0786,-2.0639,-2.061,-2.053,-2.0387,-1.9571,-1.867,-1.7575,-1.8208,-1.8617,-1.8086,-1.9612,-2.0634,-2.0634,-2.093,-2.1318,-2.1902,-2.0188,-1.9749,-2.1052,-1.982,-1.9024,-1.8656,-1.8255,-1.7551,-1.6402,-1.6051,-1.5394,-1.4503,-1.4449,-1.383,-3.2712,-3.4025,-3.5139,-3.6711,-3.7082,-3.6986,-3.6717,-3.5914,-3.5156,-3.4878,-3.197,-2.957,-2.9524,-2.6509,-2.388,-2.342,-2.3751,-2.4368,-2.5195,-2.6664,-2.8161,-2.9633,-2.9305,-2.9192,-2.9797,-2.9347,-2.9184,-2.9544,-2.9645,-2.9625,-2.9527,-2.9457,-2.9378,-2.9227,-2.8957,-2.8807,-2.8801,-2.8558,-2.8443,-2.846,-2.8554,-2.8594,-2.8594,-2.8537,-2.8573,-2.8649,-2.8529,-2.838,-2.8179,-2.6955,-2.613,-2.5413,-2.3158,-2.1871,-2.1254,-2.0443,-2.0256,-2.0485,-2.1363,-2.1585,-2.1464,-2.1432,-2.1396,-2.1213,-2.0875,-2.0869,-2.0729,-1.975,-1.9652,-1.985,-1.9997,-2.02,-2.0412,-2.057,-2.094,-2.1033,-2.0481,-2.0724,-2.072,-1.9611,-1.9611,-1.9534,-1.8504,-1.8477,-1.849,-1.8242,-1.6915,-1.5733,-1.537,-1.5652,-1.6244,-1.7176,-1.7875,-1.8716,-1.9763,-1.9947,-1.9744,-1.9161,-1.829,-1.8093,-1.8734,-1.7452,-1.7212,-1.7922,-1.7095,-1.6427,-1.5846,-1.5042,-1.4381,-1.3824,-1.2826,-1.2346,-2.9821,-3.1551,-3.306,-3.4195,-3.4582,-3.4501,-3.4045,-3.3105,-3.2281,-3.2097,-3.0104,-2.8336,-2.8153,-2.6029,-2.3909,-2.2859,-2.3787,-2.4663,-2.4787,-2.6726,-2.8588,-2.98,-2.9954,-2.9916,-2.9873,-2.9787,-2.9617,-2.9363,-2.9422,-2.9397,-2.9227,-2.9193,-2.9087,-2.8951,-2.8611,-2.8466,-2.8558,-2.8356,-2.8302,-2.8392,-2.8365,-2.8386,-2.8376,-2.8432,-2.8412,-2.8386,-2.8344,-2.7814,-2.694,-2.5709,-2.4498,-2.3262,-2.1939,-2.1135,-2.0701,-2.0899,-2.08,-2.0591,-2.1037,-2.1133,-2.1044,-2.0644,-2.0412,-2.0285,-2.0175,-2.0208,-2.0112,-1.9479,-1.9574,-1.9867,-2.0048,-2.0039,-2.0232,-2.108,-2.086,-2.0582,-2.0684,-2.0402,-1.9781,-1.8792,-1.8467,-1.7916,-1.6734,-1.6708,-1.6683,-1.6201,-1.5153,-1.4457,-1.4529,-1.4505,-1.4944,-1.5989,-1.6404,-1.7104,-1.8352,-1.8733,-1.8362,-1.6956,-1.6931,-1.662,-1.5895,-1.5365,-1.5363,-1.5939,-1.5515,-1.5072,-1.4699,-1.3973,-1.3359,-1.2731,-1.1583,-1.1166,-2.8394,-2.9959,-3.084,-3.2429,-3.253,-3.194,-3.0531,-2.9724,-2.922,-2.8989,-2.8397,-2.7982,-2.8293,-2.5289,-2.2991,-2.3688,-2.4467,-2.498,-2.5128,-2.7897,-2.9949,-2.9954,-2.9917,-2.9874,-2.9751,-2.9513,-2.9344,-2.9351,-2.933,-2.9229,-2.898,-2.8833,-2.8703,-2.8577,-2.833,-2.8302,-2.8535,-2.8432,-2.8371,-2.8356,-2.8344,-2.8344,-2.8356,-2.8417,-2.8432,-2.8308,-2.8135,-2.6764,-2.4622,-2.4518,-2.2259,-1.8983,-2.0233,-1.9777,-1.8707,-2.0899,-2.0987,-2.009,-2.0564,-2.0001,-1.9269,-2.0482,-2.0064,-1.9148,-1.9805,-1.9993,-1.9847,-1.9205,-1.9356,-1.9859,-2.0081,-1.9691,-1.9621,-2.0992,-2.0276,-1.9651,-2.1144,-2.0157,-1.885,-1.8425,-1.7335,-1.6188,-1.5389,-1.5366,-1.5205,-1.4678,-1.4577,-1.4794,-1.5161,-1.5112,-1.4914,-1.4603,-1.5442,-1.6173,-1.6465,-1.7393,-1.729,-1.5742,-1.6126,-1.5321,-1.2719,-1.3545,-1.3678,-1.2649,-1.3527,-1.3686,-1.2994,-1.3007,-1.2356,-1.1072,-1.0747,-1.0357,-2.5361,-2.5781,-2.5927,-2.7155,-2.7703,-2.798,-2.8033,-2.7669,-2.7417,-2.8125,-2.6859,-2.5967,-2.7285,-2.5456,-2.4166,-2.5603,-2.6326,-2.6727,-2.6763,-2.8586,-2.9954,-2.9917,-2.9869,-2.9645,-2.9371,-2.9429,-2.9341,-2.897,-2.9031,-2.8951,-2.8685,-2.8571,-2.8428,-2.8308,-2.8139,-2.8035,-2.8035,-2.8083,-2.8118,-2.8083,-2.7605,-2.7357,-2.7236,-2.6728,-2.6497,-2.6497,-2.5291,-2.4437,-2.3666,-2.1214,-1.9616,-1.8687,-1.8485,-1.825,-1.8221,-1.9693,-2.0197,-2.007,-1.9354,-1.9217,-1.9223,-1.8674,-1.8544,-1.8691,-1.8981,-1.9003,-1.8902,-1.8264,-1.8368,-1.8706,-1.8812,-1.8876,-1.9195,-2.0305,-1.9527,-1.8609,-1.8707,-1.7625,-1.6453,-1.5801,-1.4758,-1.3932,-1.3676,-1.3201,-1.3049,-1.3611,-1.2741,-1.2046,-1.2063,-1.2093,-1.2563,-1.386,-1.4399,-1.5103,-1.5905,-1.7184,-1.6667,-1.3517,-1.4751,-1.4252,-1.1489,-1.2198,-1.2624,-1.2611,-1.3339,-1.347,-1.2994,-1.2329,-1.1735,-1.1072,-1.0347,-0.9765,-2.2248,-2.308,-2.3972,-2.46,-2.5018,-2.5215,-2.5047,-2.48,-2.4875,-2.5975,-2.4978,-2.4543,-2.6365,-2.47,-2.3685,-2.5593,-2.6207,-2.6651,-2.7296,-2.8846,-2.9863,-2.9865,-2.9657,-2.9373,-2.9104,-2.9143,-2.9097,-2.8795,-2.881,-2.8738,-2.8549,-2.8386,-2.8258,-2.8184,-2.8035,-2.8024,-2.8047,-2.7811,-2.7654,-2.7665,-2.6935,-2.6565,-2.639,-2.5902,-2.5743,-2.5771,-2.4191,-2.2633,-2.1106,-1.9173,-1.787,-1.7054,-1.7203,-1.7447,-1.7783,-1.8441,-1.8807,-1.8925,-1.847,-1.8547,-1.8732,-1.8037,-1.8075,-1.8362,-1.8079,-1.8027,-1.7923,-1.732,-1.7279,-1.7465,-1.759,-1.7805,-1.8033,-1.8464,-1.8025,-1.7406,-1.7109,-1.6073,-1.5051,-1.4353,-1.3307,-1.2413,-1.1738,-1.1522,-1.13,-1.1273,-1.0498,-1.0047,-1.0104,-1.0164,-1.0707,-1.205,-1.2596,-1.3355,-1.4885,-1.6165,-1.5819,-1.3203,-1.3867,-1.3148,-1.0354,-1.0997,-1.1346,-1.1264,-1.2103,-1.2378,-1.2041,-1.1541,-1.1,-1.0505,-0.985,-0.9248,-1.9271,-2.1229,-2.3181,-2.3296,-2.327,-2.3023,0.0,-2.1715,-2.2021,-2.3183,-2.2969,-2.3164,-2.521,-2.343,-2.2355,-2.4526,-2.5122,-2.5817,-2.7221,-2.8748,-2.964,-2.9393,-2.9255,-2.9097,-2.898,-2.8841,-2.8776,-2.8793,-2.8482,-2.8315,-2.8308,-2.7913,-2.7693,-2.7786,-2.7658,-2.7753,-2.8055,-2.7419,-2.7071,-2.7035,-2.625,-2.583,-2.571,-2.5482,-2.5384,-2.5188,-2.3818,-2.1168,-1.7904,-1.784,-1.6549,-1.4776,-1.6163,-1.6921,-1.7248,-1.7191,-1.7249,-1.7395,-1.7861,-1.805,-1.8079,-1.8183,-1.8235,-1.8109,-1.7298,-1.7031,-1.6924,-1.6273,-1.6052,-1.6139,-1.6376,-1.6455,-1.6372,-1.6233,-1.6173,-1.6045,-1.5887,-1.4905,-1.3947,-1.3432,-1.2389,-1.1166,-0.9822,-1.0008,-0.9828,-0.8225,-0.8294,-0.8581,-0.8722,-0.8809,-0.8943,-0.9545,-1.0348,-1.1626,-1.3476,-1.463,-1.4765,-1.3434,-1.3363,-1.2052,-0.9217,-0.9855,-0.9972,-0.9187,-1.0294,-1.0741,-1.0628,-1.0541,-1.0307,-0.9785,-0.9484,-0.8535,0.0,0.0,0.0,0.0,0.0,0.0,0.0,-2.006,-2.0248,-2.1451,-2.0832,-2.067,-2.2438,-2.235,-2.2669,-2.4583,-2.6035,-2.7068,-2.7373,-2.8675,-2.9004,-2.7433,-2.8285,-2.8934,-2.883,-2.8794,-2.8758,-2.8776,-2.7484,-2.6686,-2.6685,-2.5255,-2.4704,-2.5329,-2.5229,-2.551,-2.6174,-2.6147,-2.6055,-2.5929,-2.5285,-2.4874,-2.4722,-2.4073,-2.3063,-2.1795,-2.1452,-1.9628,-1.672,-1.5364,-1.4379,-1.3787,-1.4906,-1.5585,-1.5956,-1.6017,-1.6689,-1.7644,-1.7743,-1.781,-1.7893,-1.7945,-1.805,-1.7975,-1.7063,-1.6741,-1.6307,-1.4883,-1.4426,-1.4484,-1.4751,-1.468,-1.4696,-1.5555,-1.4505,-1.3533,-1.4245,-1.2555,-1.0988,-1.1572,-1.014,-0.8721,-0.8636,-0.8288,-0.7726,-0.6902,-0.7128,-0.7141,-0.6694,-0.643,-0.6804,-0.7924,-0.9777,-1.0912,-1.1006,-1.3556,-1.3842,-1.0535,-1.2044,-1.1533,-0.7883,-0.8645,-0.8835,-0.8255,-0.8885,-0.9503,-1.0057,-0.9633,-0.9739,-1.0354,-0.9672,-0.772,0.0,0.0,0.0,0.0,0.0,0.0,0.0,0.0,0.0,0.0,0.0,-1.8982,-2.1331,0.0,-2.242,-2.3274,-2.4973,-2.6157,-2.6152,-2.7339,-2.7512,-2.5771,-2.6815,-2.7661,-2.7607,-2.8302,-2.8776,-2.8867,-2.7229,-2.6413,-2.6793,-2.5158,-2.4534,-2.5252,-2.5286,-2.5384,-2.5678,-2.5449,-2.5313,-2.5178,-2.453,-2.3698,-2.2756,-2.2423,-2.1328,-1.9676,-1.879,-1.7584,-1.6092,-1.4327,-1.3568,-1.3594,-1.4236,-1.4726,-1.508,-1.5334,-1.5897,-1.6533,-1.6349,-1.6349,-1.6437,-1.6491,-1.6579,-1.647,-1.5627,-1.5238,-1.4902,-1.3663,-1.3198,-1.2988,-1.2693,-1.309,-1.3481,-1.293,-1.2517,-1.2201,-1.1976,-1.0653,-0.9484,-0.956,-0.8713,-0.787,-0.7364,-0.6886,-0.6223,-0.5429,-0.5913,-0.6062,-0.5177,-0.544,-0.5758,-0.596,-0.7363,-0.9093,-1.0983,-1.2961,-1.3398,-1.1878,-1.202,-1.0972,-0.8432,-0.8301,-0.8023,-0.7607,-0.757,-0.7918,-0.8671,-0.7772,-0.7493,-0.7943,-0.7523,-0.6009,0.0,0.0,0.0,0.0,0.0,0.0,0.0,0.0,0.0,0.0,0.0,0.0,0.0,0.0,0.0,-2.1893,-2.3312,-2.4522,-2.4857,-2.573,-2.5761,-2.4158,-2.5168,-2.5959,-2.5939,-2.7079,-2.7847,-2.7829,-2.6414,-2.5783,-2.6316,-2.4968,-2.4512,-2.5187,-2.5285,-2.5287,-2.5282,-2.4532,-2.4144,-2.4077,-2.321,0.0,-2.0716,-2.0791,-1.9878,-1.822,-1.6585,-1.5739,-1.5436,-1.3708,-1.3189,-1.3504,-1.363,-1.3892,-1.4259,-1.4801,-1.5101,-1.5277,-1.5109,-1.4996,-1.4996,-1.5089,-1.5126,-1.4977,-1.4142,-1.3797,0.0,-1.2659,-1.2064,-1.1509,-1.0951,-1.1658,-1.2121,-1.0201,-1.0621,-1.105,-0.9728,-0.8883,-0.8203,-0.7777,-0.7521,-0.7008,-0.5984,-0.5208,-0.4481,-0.3724,-0.4253,-0.4406,-0.3528,-0.4098,-0.4365,-0.3697,-0.4626,-0.6777,-1.0607,-1.1891,-1.2846,-1.353,-1.2163,-1.0639,-0.919,-0.8371,-0.7489,-0.642,-0.6081,-0.6208,-0.673,-0.5722,-0.5452,-0.5723,-0.5292,-0.4277,0.0,0.0,0.0,0.0,0.0,0.0,0.0,0.0,0.0,0.0,0.0,0.0,0.0,0.0,0.0,0.0,-2.2338,-2.3165,-2.467,-2.4799,-2.4097,-2.2296,-2.3429,-2.4336,-2.4223,-2.4369,-2.4276,-2.3848,-2.3364,-2.2957,-2.2619,-2.2065,0.0,0.0,0.0,-2.3134,-2.3923,-2.2284,-2.1577,-2.1907,-2.0207,-1.9486,-1.9615,-1.9511,-1.8608,-1.7037,-1.6031,-1.5081,-1.4125,-1.287,-1.2654,-1.306,-1.2726,-1.2695,-1.2999,-1.3945,-1.466,-1.5182,-1.5126,0.0,0.0,-1.4996,-1.4996,-1.4826,-1.3912,-1.339,-1.2906,-1.2049,-1.0965,-1.0158,-1.0307,-1.0343,-0.9972,-0.88,-0.9056,-0.9315,-0.811,-0.7001,-0.6322,-0.6659,-0.5892,-0.4949,-0.4253,-0.2684,-0.1475,-0.1399,-0.136,-0.1211,-0.0842,-0.0598,-0.0718,-0.1484,-0.2533,0.0,-0.6879,-0.9365,-1.1074,-1.192,-1.1615,-1.057,-0.8523,-0.8596,-0.7073,-0.3666,-0.4065,-0.431,-0.4276,-0.4567,-0.5488,-0.6755,-0.5134,-0.3454,0.0,0.0,0.0,0.0,0.0,0.0,0.0,0.0,0.0,0.0,0.0,0.0,0.0,0.0,0.0,0.0,-2.1682,-2.3469,-2.3411,-2.2468,-2.1467,-2.0607,-2.1885,-2.2839,-2.279,-2.3584,-2.3941,-2.351,-2.244,-2.1697,-2.1406,-2.0307,-1.9831,-2.0175,-2.0438,-2.0602,-2.0791,-2.0338,-2.0139,-2.0205,-1.9581,-1.8866,-1.7999,-1.8231,-1.718,-1.517,-1.4819,-1.4132,-1.3265,-1.2466,-1.2338,-1.2677,0.0,0.0,0.0,0.0,-1.3768,-1.4005,-1.3582,-1.3448,-1.3349,-1.3098,-1.3039,-1.2847,-1.1794,-1.1331,-1.0983,-0.9936,-0.9271,-0.8798,-0.8497,-0.8661,-0.8716,-0.7429,-0.739,-0.7375,-0.6621,-0.572,-0.5208,-0.5726,-0.5036,0.0,-0.2868,-0.0974,0.054,0.1081,0.0285,0.0099,0.1187,0.1344,0.073,-0.1281,-0.2329,-0.4238,-0.7601,-0.8852,0.0,0.0,0.0,-1.1088,-0.986,-0.9129,0.0,0.0,0.0,-0.3708,-0.3538,-0.3718,0.0,0.0,-0.2935,-0.199,0.0,0.0,0.0,0.0,0.0,0.0,0.0,0.0,0.0,0.0,0.0,0.0,0.0,0.0,0.0,0.0,-2.0576,-2.2283,-2.1581,-2.0834,-2.0309,-2.0351,-2.0752,-2.1244,-2.1717,-2.2307,-2.2459,-2.1975,-2.1107,-2.0542,-2.0371,-1.947,-1.8861,-1.8668,-1.9212,-1.9119,-1.8424,-1.85,-1.8458,-1.8344,-1.801,-1.7278,-1.6135,-1.6423,-1.5602,-1.397,-1.3752,-1.3337,-1.2803,-1.2295,-1.2222,-1.2446,-1.2322,-1.2534,-1.2856,-1.2586,-1.2577,-1.2692,-1.2199,-1.1779,-1.1524,-1.1779,-1.1388,-1.0816,-1.0106,-0.9691,-0.9271,-0.8381,-0.7965,-0.768,-0.712,-0.7356,-0.7411,-0.606,-0.5888,-0.5892,-0.5089,-0.4303,-0.3911,-0.4699,-0.3738,-0.2342,-0.0956,0.0446,0.1737,0.2958,0.1861,0.1535,0.3205,0.277,0.1594,-0.02,-0.1009,-0.2975,-0.6682,-0.7021,-0.8117,-1.0704,-1.1285,-1.1404,-1.1108,-0.9457,-0.7593,-0.5432,-0.3642,-0.2644,0.0,0.0,0.0,0.0,0.0,0.0,0.0,0.0,0.0,0.0,0.0,0.0,0.0,0.0,0.0,0.0,0.0,0.0,0.0,0.0,0.0,0.0,0.0,0.0,-1.9228,-2.061,-2.1647,-2.2056,-2.0101,-1.9395,-2.106,-1.9515,-1.8206,-1.7532,-1.8482,-1.9022,-1.8755,-1.9626,-1.9858,-1.9257,-1.9729,-1.9267,-1.7731,-1.6729,-1.6181,-1.6031,-1.4248,-1.3665,-1.4086,-1.3846,-1.382,-1.3939,-1.32,-1.287,-1.2796,-1.2408,-1.2333,-1.2386,-1.1596,-1.1872,-1.2472,-1.1101,-1.0997,-1.1494,-1.1509,-1.066,-0.9925,-1.1659,-1.0755,-0.9124,-0.9739,-0.9113,-0.8183,-0.7996,-0.7462,-0.6857,-0.6802,-0.6526,-0.5986,-0.4783,-0.4879,-0.4879,-0.3296,-0.2366,-0.2262,-0.3662,-0.1827,0.0261,0.1565,0.1573,0.1951,0.3778,0.3548,0.0,0.5466,0.3727,0.2573,0.3104,0.2698,0.1155,-0.194,-0.2664,-0.4677,-0.8933,-1.0416,-1.1275,-1.1622,-0.9397,-0.8022,-0.7652,-0.3208,-0.0685,-0.0295,0.0,0.0,0.0,0.0,0.0,0.0,0.0,0.0,0.0,0.0,0.0,0.0,0.0,0.0,0.0,0.0,0.0,0.0,0.0,0.0,0.0,0.0,0.0,0.0,-1.9395,-2.0304,-2.1011,-2.0345,-2.0172,-2.1097,-1.9885,-1.8835,-1.8367,-1.7095,-1.6321,-1.633,-1.6108,-1.5928,-1.591,-1.6759,-1.6847,-1.613,-1.5546,-1.5197,-1.5163,-1.4104,-1.3762,-1.3983,-1.4105,-1.3952,-1.3605,-1.3415,-1.3027,-1.2567,-1.2437,-1.1669,-1.062,-1.0355,-1.0319,-1.0368,-0.9629,-0.9461,-0.9579,-0.9074,-0.8738,-0.8577,-0.8985,-0.8635,-0.7807,-0.6647,-0.5952,-0.5313,-0.418,-0.3875,-0.3826,-0.3756,-0.4142,-0.4423,-0.3863,-0.3812,-0.3743,-0.303,-0.2423,-0.2167,-0.267,-0.0167,0.2082,0.2327,0.3488,0.4547,0.4884,0.576,0.6221,0.597,0.5628,0.5352,0.4969,0.3845,0.2346,0.0385,-0.0849,-0.2926,-0.6058,-0.8128,-0.9183,-0.9336,-0.7853,-0.6721,-0.6093,-0.3863,-0.2798,-0.3023,0.0,0.0,0.0,0.0,0.0,0.0,0.0,0.0,0.0,0.0,0.0,0.0,0.0,0.0,0.0,0.0,0.0,0.0,0.0,0.0,0.0,0.0,0.0,0.0,0.0,0.0,-2.0937,-2.056,0.0,-2.1492,-2.0552,-1.9755,-1.9509,-1.7971,-1.6869,-1.6517,-1.5285,-1.4342,-1.3744,-1.4076,-1.4276,-1.4235,-1.4266,-1.4523,-1.4981,-1.4295,-1.4024,-1.4201,-1.3983,-1.3579,-1.3034,-1.2854,-1.2357,-1.1667,-1.1487,-1.0779,-0.9743,-0.9358,-0.9356,-0.941,-0.8499,-0.8174,-0.7987,-0.6749,-0.6682,-0.7015,-0.638,-0.6209,-0.6086,-0.5242,-0.4452,-0.3609,-0.1944,-0.1819,-0.2079,-0.2014,-0.2443,-0.2895,-0.2665,-0.2759,-0.2846,-0.2814,-0.2004,-0.1188,-0.0388,0.1985,0.382,0.3573,0.4512,0.5529,0.6149,0.6937,0.7415,0.7167,0.7757,0.7947,0.7248,0.6328,0.5415,0.4782,0.2126,-0.0372,-0.2559,-0.4618,-0.6081,-0.6899,-0.5459,-0.4441,-0.394,-0.3431,-0.2968,0.0,0.0,0.0,0.0,0.0,0.0,0.0,0.0,0.0,0.0,0.0,0.0,0.0,0.0,0.0,0.0,0.0,0.0,0.0,0.0,0.0,0.0,0.0,0.0,0.0,0.0,0.0,-2.1479,-2.0504,0.0,0.0,0.0,0.0,-2.044,-2.0508,-2.0038,-1.8862,-1.7173,-1.5269,-1.3136,-1.2352,-1.2105,-1.2314,-1.302,-1.3989,-1.5185,-1.4389,-1.4184,-1.4412,-1.3446,-1.2803,-1.2384,-1.1639,-1.0968,-1.0303,-0.9679,-0.9557,-0.9647,-0.8589,-0.8762,-0.9409,-0.7608,-0.6975,-0.6644,-0.4654,-0.4573,-0.5251,-0.3942,-0.365,-0.3993,-0.5256,-0.4499,0.0,0.0,-0.1226,-0.1616,-0.1616,-0.1483,-0.1386,-0.1249,-0.155,-0.2021,-0.2283,-0.0956,0.0824,0.2819,0.4435,0.5443,0.5301,0.0,0.5166,0.7494,0.7428,0.7655,0.9125,1.0045,1.0403,0.9802,0.9873,1.0203,1.0828,0.6521,0.3206,0.174,-0.0176,-0.2063,-0.4079,-0.2291,-0.129,-0.1292,-0.1713,0.0,0.0,0.0,0.0,0.0,0.0,0.0,0.0,0.0,0.0,0.0,0.0,0.0,0.0,0.0,0.0,0.0,0.0,0.0,0.0,0.0,0.0,0.0,0.0,0.0,0.0,-1.484,-1.6135,-1.8148,-1.836,-1.874,0.0,0.0,0.0,0.0,0.0,0.0,-1.8114,-1.8059,-1.7507,-1.6336,-1.6496,-1.551,-1.3286,-1.2787,-1.2719,-1.3049,-1.1849,-1.1864,-1.2969,-1.2621,-1.2363,-1.2157,-1.2042,-1.146,-1.0485,-0.8967,-0.7905,-0.7084,-0.6227,-0.5693,-0.5295,-0.426,-0.3688,-0.3253,-0.2177,-0.2119,-0.2456,-0.1735,-0.1826,-0.228,-0.2913,0.0,0.0,0.0,0.0,-0.0122,0.0672,0.0573,0.0397,0.0586,0.0861,0.0941,0.0596,0.1915,0.3412,0.4247,0.5235,0.5902,0.6074,0.6938,0.0,0.9086,0.9061,0.9768,1.2327,1.2321,1.229,1.2918,1.3366,1.2956,1.1353,1.0582,0.9627,0.8183,0.3715,0.1671,0.2955,0.2977,0.2717,0.2235,0.0,0.0,0.0,0.0,0.0,0.0,0.0,0.0,0.0,0.0,0.0,0.0,0.0,0.0,0.0,0.0,0.0,0.0,0.0,0.0,0.0,0.0,0.0,0.0,0.0,0.0,0.0,-1.2507,-1.4369,-1.6454,-1.7185,-1.7796,0.0,0.0,0.0,0.0,0.0,0.0,0.0,0.0,0.0,-1.6083,-1.6279,-1.598,-1.5078,-1.4499,-1.461,-1.5369,-1.3594,-1.314,-1.3807,-1.3357,-1.2821,-1.2203,-1.2053,-1.0854,-0.889,-0.7515,-0.6337,-0.5311,0.0,0.0,0.0,0.0,-0.2475,-0.1877,-0.0842,-0.0593,-0.0661,-0.0,0.0,0.0,0.0,0.0,0.0,0.0,0.0,0.2307,0.2605,0.2776,0.2947,0.3081,0.2677,0.2209,0.2334,0.4424,0.6275,0.6069,0.6699,0.723,0.7066,0.7757,0.0,0.0,0.0,1.2159,1.4607,1.5196,1.5635,1.6297,1.6818,1.6637,1.5401,1.473,1.3907,1.2498,0.8897,0.6876,0.7175,0.714,0.6675,0.0,0.0,0.0,0.0,0.0,0.0,0.0,0.0,0.0,0.0,0.0,0.0,0.0,0.0,0.0,0.0,0.0,0.0,0.0,0.0,0.0,0.0,0.0,0.0,0.0,0.0,0.0,0.0,0.0,-1.2296,-1.5006,0.0,0.0,0.0,0.0,0.0,0.0,0.0,0.0,0.0,0.0,0.0,0.0,0.0,-1.5179,-1.6478,-1.6417,-1.7186,-1.8699,-1.6585,-1.555,-1.5437,-1.4498,-1.3454,-1.2357,-1.1562,0.0,-0.6726,-0.5821,0.0,0.0,0.0,0.0,0.0,0.0,0.0,0.0,0.0,0.0,0.0,0.0,0.0,0.0,0.0,0.0,0.0,0.0,0.0,0.0,0.0,0.0,0.5654,0.5687,0.4349,0.3346,0.4188,0.6831,0.8833,0.8084,0.8527,0.8762,0.0,0.0,0.0,0.0,0.0,0.0,1.662,1.8502,1.9601,1.9878,2.0467,2.0972,2.1148,1.9157,1.7397,1.6069,1.4833,1.3057,1.0604,1.1025,0.0,0.0,0.0,0.0,0.0,0.0,0.0,0.0,0.0,0.0,0.0,0.0,0.0,0.0,0.0,0.0,0.0,0.0,0.0,0.0,0.0,0.0,0.0,0.0,0.0,0.0,0.0,0.0,0.0,0.0,0.0,0.0,0.0,0.0,0.0,0.0,0.0,0.0,0.0,0.0,0.0,0.0,0.0,0.0,0.0,0.0,0.0,0.0,0.0,0.0,-1.3988,-1.4065,-1.4995,-1.3137,-1.2232,-1.2001,-0.9751,-0.8014,-0.6686,-0.5021,0.0,0.0,0.0,0.0,0.0,0.0,0.0,0.0,0.0,0.0,0.0,0.0,0.0,0.0,0.0,0.0,0.0,0.0,0.0,0.0,0.0,0.0,0.6969,0.681,0.71,0.7904,0.9514,0.0,0.0,0.0,0.0,0.0,0.0,0.0,0.0,0.0,0.0,0.0,1.9632,2.1348,2.2881,2.434,2.4973,2.521,2.4927,2.4545,2.3431,2.1333,2.073,1.9567,0.0,0.0,0.0,0.0,0.0,0.0,0.0,0.0,0.0,0.0,0.0,0.0,0.0,0.0,0.0,0.0,0.0,0.0,0.0,0.0,0.0,0.0,0.0,0.0,0.0,0.0,0.0,0.0,0.0,0.0,0.0,0.0,0.0,0.0,0.0,0.0,0.0,0.0,0.0,0.0,0.0,0.0,0.0,0.0,0.0,0.0,0.0,0.0,0.0,0.0,0.0,0.0,0.0,0.0,0.0,0.0,0.0,0.0,-0.8213,-0.5423,0.0,0.0,0.0,0.0,0.0,0.0,0.0,0.0,0.0,0.0,0.0,0.0,0.0,0.0,0.0,0.0,0.0,0.0,0.0,0.0,0.0,0.0,0.0,0.0,0.0,0.0,0.0,0.0,0.0,0.0,0.0,0.0,0.0,0.0,0.0,0.0,0.0,0.0,0.0,0.0,2.1668,2.4493,2.7095,2.9302,2.969,3.0138,3.075,2.9728,2.8451,2.6928,2.5346,0.0,0.0,0.0,0.0,0.0,0.0,0.0,0.0,0.0,0.0,0.0,0.0,0.0,0.0,0.0,0.0,0.0,0.0,0.0,0.0,0.0,0.0,0.0,0.0,0.0,0.0,0.0,0.0,0.0,0.0,0.0,0.0,0.0,0.0,0.0,0.0,0.0,0.0,0.0,0.0,0.0,0.0,0.0,0.0,0.0,0.0,0.0,0.0,0.0,0.0,0.0,0.0,0.0,0.0,0.0,0.0,0.0,0.0,0.0,-0.4244,-0.1005,0.0,0.0,0.0,0.0,0.0,0.0,0.0,0.0,0.0,0.0,0.0,0.0,0.0,0.0,0.0,0.0,0.0,0.0,0.0,0.0,0.0,0.0,0.0,0.0,0.0,0.0,0.0,0.0,0.0,0.0,0.0,0.0,0.0,0.0,0.0,0.0,0.0,0.0,0.0,0.0,2.4168,2.8211,3.1812,3.4179,3.423,3.4733,3.6457,3.4733,3.308,3.1973,2.9201,0.0,0.0,0.0,0.0,0.0,0.0,0.0,0.0,0.0,0.0,0.0,0.0,0.0,0.0,0.0,0.0,0.0,0.0,0.0,0.0,0.0,0.0,0.0,0.0,0.0,0.0,0.0,0.0,0.0,0.0,0.0,0.0,0.0,0.0,0.0,0.0,0.0,0.0,0.0,0.0,0.0,0.0,0.0,0.0,0.0,0.0,0.0,0.0,0.0,0.0,0.0,0.0,0.0,0.0,0.0,0.0,0.0,0.0,0.0,0.0,0.0,0.0,0.0,0.0,0.0,0.0,0.0,0.0,0.0,0.0,0.0,0.0,0.0,0.0,0.0,0.0,0.0,0.0,0.0,0.0,0.0,0.0,0.0,0.0,0.0,0.0,0.0,0.0,0.0,0.0,0.0,0.0,0.0,0.0,0.0,0.0,0.0,0.0,0.0,0.0,0.0,2.8437,3.2953,3.6658,3.8791,3.798,3.8162,4.0291,3.93,3.7764,3.5795,0.0,0.0,0.0,0.0,0.0,0.0,0.0,0.0,0.0,0.0,0.0,0.0,0.0,0.0,0.0,0.0,0.0,0.0,0.0,0.0,0.0,0.0,0.0,0.0,0.0,0.0,0.0,0.0,0.0,0.0,0.0,0.0,0.0,0.0,0.0,0.0,0.0,0.0,0.0,0.0,0.0,0.0,0.0,0.0,0.0,0.0,0.0,0.0,0.0,0.0,0.0,0.0,0.0,0.0,0.0,0.0,0.0,0.0,0.0,0.0,0.0,0.0,0.0,0.0,0.0,0.0,0.0,0.0,0.0,0.0,0.0,0.0,0.0,0.0,0.0,0.0,0.0,0.0,0.0,0.0,0.0,0.0,0.0,0.0,0.0,0.0,0.0,0.0,0.0,0.0,0.0,0.0,0.0,0.0,0.0,0.0,0.0,0.0,0.0,0.0,0.0,0.0,2.9627,3.3661,3.7764,4.1937,4.0915,4.1041,4.3721,4.2334,4.0009,3.6821,0.0,0.0,0.0,0.0,0.0,0.0,0.0,0.0,0.0,0.0,0.0,0.0,0.0,0.0,0.0,0.0,0.0,0.0,0.0,0.0,0.0,0.0,0.0,0.0,0.0,0.0,0.0,0.0,0.0,0.0,0.0,0.0,0.0,0.0,0.0,0.0,0.0,0.0,0.0,0.0,0.0,0.0,0.0,0.0,0.0,0.0,0.0,0.0,0.0,0.0,0.0,0.0,0.0,0.0,0.0,0.0,0.0,0.0,0.0,0.0,0.0,0.0,0.0,0.0,0.0,0.0,0.0,0.0,0.0,0.0,0.0,0.0,0.0,0.0,0.0,0.0,0.0,0.0,0.0,0.0,0.0,0.0,0.0,0.0,0.0,0.0,0.0,0.0,0.0,0.0,0.0,0.0,0.0,0.0,0.0,0.0,0.0,0.0,0.0,0.0,0.0,0.0,3.1594,3.5425,3.9738,4.4857,4.3518,4.3675,4.7035,4.4946,4.1906,3.8342,0.0,0.0,0.0,0.0,0.0,0.0,0.0,0.0,0.0,0.0,0.0,0.0,0.0,0.0,0.0,0.0,0.0,0.0,0.0,0.0,0.0,0.0,0.0,0.0,0.0,0.0,0.0,0.0,0.0,0.0,0.0,0.0,0.0,0.0,0.0,0.0,0.0,0.0,0.0,0.0,0.0,0.0,0.0,0.0,0.0,0.0,0.0,0.0,0.0,0.0,0.0,0.0,0.0,0.0,0.0,0.0,0.0,0.0,0.0,0.0,0.0,0.0,0.0,0.0,0.0,0.0,0.0,0.0,0.0,0.0,0.0,0.0,0.0,0.0,0.0,0.0,0.0,0.0,0.0,0.0,0.0,0.0,0.0,0.0,0.0,0.0,0.0,0.0,0.0,0.0,0.0,0.0,0.0,0.0,0.0,0.0,0.0,0.0,0.0,0.0,0.0,0.0,3.5338,3.9532,4.3693,4.7914,4.5911,4.6031,5.0341,4.7124,4.3747,0.0,0.0,0.0,0.0,0.0,0.0,0.0,0.0,0.0,0.0,0.0,0.0,0.0,0.0,0.0,0.0,0.0,0.0,0.0,0.0,0.0,0.0,0.0,0.0,0.0,0.0,0.0,0.0,0.0,0.0,0.0,0.0,0.0,0.0,0.0,0.0,0.0,0.0,0.0,0.0,0.0,0.0,0.0,0.0,0.0,0.0,0.0,0.0,0.0,0.0,0.0,0.0,0.0,0.0,0.0,0.0,0.0,0.0,0.0,0.0,0.0,0.0,0.0,0.0,0.0,0.0,0.0,0.0,0.0,0.0,0.0,0.0,0.0,0.0,0.0,0.0,0.0,0.0,0.0,0.0,0.0,0.0,0.0,0.0,0.0,0.0,0.0,0.0,0.0,0.0,0.0,0.0,0.0,0.0,0.0,0.0,0.0,0.0,0.0,0.0,0.0,0.0,0.0,3.6081,3.9415,4.3528,0.0,4.8221,4.8316,5.1025,5.0467,4.6882,3.9629,0.0,0.0,0.0,0.0,0.0,0.0,0.0,0.0,0.0,0.0,0.0,0.0,0.0,0.0,0.0,0.0,0.0,0.0,0.0,0.0,0.0,0.0,0.0,0.0,0.0,0.0,0.0,0.0,0.0,0.0,0.0,0.0,0.0,0.0,0.0,0.0,0.0,0.0,0.0,0.0,0.0,0.0,0.0,0.0,0.0,0.0,0.0,0.0,0.0,0.0,0.0,0.0,0.0,0.0,0.0,0.0,0.0,0.0,0.0,0.0,0.0,0.0,0.0,0.0,0.0,0.0,0.0,0.0,0.0,0.0,0.0,0.0,0.0,0.0,0.0,0.0,0.0,0.0,0.0,0.0,0.0,0.0,0.0,0.0,0.0,0.0,0.0,0.0,0.0,0.0,0.0,0.0,0.0,0.0,0.0,0.0,0.0,0.0,0.0,0.0,0.0,0.0,0.0,4.0421,4.47,0.0,4.972,4.9957,5.2387,5.1851,4.7936,3.9734,0.0,0.0,0.0,0.0,0.0,0.0,0.0,0.0,0.0,0.0,0.0,0.0,0.0,0.0,0.0,0.0,0.0,0.0,0.0,0.0,0.0,0.0,0.0,0.0,0.0,0.0,0.0,0.0,0.0,0.0,0.0,0.0,0.0,0.0,0.0,0.0,0.0,0.0,0.0,0.0,0.0,0.0,0.0,0.0,0.0,0.0,0.0,0.0,0.0,0.0,0.0,0.0,0.0,0.0,0.0,0.0,0.0,0.0,0.0,0.0,0.0,0.0,0.0,0.0,0.0,0.0,0.0,0.0,0.0,0.0,0.0,0.0,0.0,0.0,0.0,0.0,0.0,0.0,0.0,0.0,0.0,0.0,0.0,0.0,0.0,0.0,0.0,0.0,0.0,0.0,0.0,0.0,0.0,0.0,0.0,0.0,0.0,0.0,0.0,0.0,0.0,0.0,0.0,4.2227,4.6818,5.1524,5.0695,5.1092,5.4133,5.1917,4.7641,4.1147,3.8122,0.0,0.0,0.0,0.0,0.0,0.0,0.0,0.0,0.0,0.0,0.0,0.0,0.0,0.0,0.0,0.0,0.0,0.0,0.0,0.0,0.0,0.0,0.0,0.0,0.0,0.0,0.0,0.0,0.0,0.0,0.0,0.0,0.0,0.0,0.0,0.0,0.0,0.0,0.0,0.0,0.0,0.0,0.0,0.0,0.0,0.0,0.0,0.0,0.0,0.0,0.0,0.0,0.0,0.0,0.0,0.0,0.0,0.0,0.0,0.0,0.0,0.0,0.0,0.0,0.0,0.0,0.0,0.0,0.0,0.0,0.0,0.0,0.0,0.0,0.0,0.0,0.0,0.0,0.0,0.0,0.0,0.0,0.0,0.0,0.0,0.0,0.0,0.0,0.0,0.0,0.0,0.0,0.0,0.0,0.0,0.0,0.0,0.0,0.0,0.0,0.0,0.0,4.193,4.6478,5.2717,5.287,5.2973,5.4042,5.4598,5.0588,4.0549,3.9263,0.0,0.0,0.0,0.0,0.0,0.0,0.0,0.0,0.0,0.0,0.0,0.0,0.0,0.0,0.0,0.0,0.0,0.0,0.0,0.0,0.0,0.0,0.0,0.0,0.0,0.0,0.0,0.0,0.0,0.0,0.0,0.0,0.0,0.0,0.0,0.0,0.0,0.0,0.0,0.0,0.0,0.0,0.0,0.0,0.0,0.0,0.0,0.0,0.0,0.0,0.0,0.0,0.0,0.0,0.0,0.0,0.0,0.0,0.0,0.0,0.0,0.0,0.0,0.0,0.0,0.0,0.0,0.0,0.0,0.0,0.0,0.0,0.0,0.0,0.0,0.0,0.0,0.0,0.0,0.0,0.0,0.0,0.0,0.0,0.0,0.0,0.0,0.0,0.0,0.0,0.0,0.0,0.0,0.0,0.0,0.0,0.0,0.0,0.0,0.0,0.0,0.0,4.0911,4.5744,5.3158,5.3167,5.3099,5.4129,5.4315,5.0169,4.0363,3.9759,0.0,0.0,0.0,0.0,0.0,0.0,0.0,0.0,0.0,0.0,0.0,0.0,0.0,0.0,0.0,0.0,0.0,0.0,0.0,0.0,0.0,0.0,0.0,0.0,0.0,0.0,0.0,0.0,0.0,0.0,0.0,0.0,0.0,0.0,0.0,0.0,0.0,0.0,0.0,0.0,0.0,0.0,0.0,0.0,0.0,0.0,0.0,0.0,0.0,0.0,0.0,0.0,0.0,0.0,0.0,0.0,0.0,0.0,0.0,0.0,0.0,0.0,0.0,0.0,0.0,0.0,0.0,0.0,0.0,0.0,0.0,0.0,0.0,0.0,0.0,0.0,0.0,0.0,0.0,0.0,0.0,0.0,0.0,0.0,0.0,0.0,0.0,0.0,0.0,0.0,0.0,0.0,0.0,0.0,0.0,0.0,0.0,0.0,0.0,0.0,0.0,0.0,0.0,4.4732,5.1834,5.2059,5.2463,5.4286,5.2892,4.8472,4.0353,0.0,0.0,0.0,0.0,0.0,0.0,0.0,0.0,0.0,0.0,0.0,0.0,0.0,0.0,0.0,0.0,0.0,0.0,0.0,0.0,0.0,0.0,0.0,0.0,0.0,0.0,0.0,0.0,0.0,0.0,0.0,0.0,0.0,0.0,0.0,0.0,0.0,0.0,0.0,0.0,0.0,0.0,0.0,0.0,0.0,0.0,0.0,0.0,0.0,0.0,0.0,0.0,0.0,0.0,0.0,0.0,0.0,0.0,0.0,0.0,0.0,0.0,0.0,0.0,0.0,0.0,0.0,0.0,0.0,0.0,0.0,0.0,0.0,0.0,0.0,0.0,0.0,0.0,0.0,0.0,0.0,0.0,0.0,0.0,0.0,0.0,0.0,0.0,0.0,0.0,0.0,0.0,0.0,0.0,0.0,0.0,0.0,0.0,0.0,0.0,0.0,0.0,0.0,0.0,4.3132,4.5697,4.949,5.2562,5.4286,5.2869,4.8481,4.0358,0.0,0.0,0.0,0.0,0.0,0.0,0.0,0.0,0.0,0.0,0.0,0.0,0.0,0.0]}],[{"header":{"parameterUnit":"kt","parameterCategory":2,"dx":1,"dy":1,"la1":29.285339999999998,"la2":30.599998999999997,"lo1":-89.70041500000002,"lo2":-87.6738589999976,"nx":112,"ny":82,"refTime":"2022-09-20T12:00:00:Z","depth":0,"parameterNumber":2,"parameterNumberName":"V-component_of_WINDS"},"data":[5.4417,5.3566,5.1532,4.5443,4.4689,4.3509,3.6185,3.3313,3.1855,3.0772,2.7778,2.5827,2.724,2.5003,2.2846,2.2404,2.046,1.8837,0.0,1.7648,0.0,0.0,0.0,0.0,0.0,0.0,0.0,0.0,0.0,0.0,0.0,5.3303,5.3772,5.4673,5.5837,5.7091,5.8405,5.8397,5.8293,5.8082,5.7961,5.7795,5.7659,5.7552,5.7443,5.7333,5.7333,5.7333,5.7333,5.7333,5.7221,5.707,5.6829,5.6658,5.6775,5.8023,5.9298,6.0526,6.0542,5.9855,5.9304,6.1065,6.1222,6.0817,6.1435,6.1222,6.0654,5.9971,5.9324,5.8626,5.7875,5.7174,5.6561,5.6038,5.5846,5.5672,5.5219,5.5166,5.5166,5.5217,5.5028,5.4871,5.4871,5.4297,5.288,4.9908,4.9595,4.9292,4.8104,4.8484,4.8574,4.7808,4.768,4.6489,4.3464,4.18,4.0359,3.9042,3.908,3.8906,3.8402,3.8162,3.8365,3.9072,3.8757,3.8814,3.9304,3.9686,4.0079,4.0374,4.0893,4.1846,4.9689,4.8862,4.7046,3.9768,3.8757,3.7728,3.1005,2.8189,2.6727,2.5611,2.4069,2.2591,2.156,2.1351,2.0804,1.9104,1.7971,1.7112,0.0,0.0,0.0,0.0,0.0,0.0,0.0,0.0,0.0,0.0,5.4521,0.0,5.3789,5.4158,5.4497,5.4488,5.6633,5.82,5.9018,5.8925,5.8821,5.8644,5.8453,5.8241,5.8051,5.7951,5.7891,5.7792,5.7656,5.7621,5.7656,5.7588,5.7443,5.7296,5.7104,5.7185,5.7536,5.8496,5.9387,6.0209,6.0681,5.9765,5.8509,5.908,5.8854,5.8283,5.8283,5.7893,5.7455,5.7295,5.6407,5.5364,5.5249,5.4312,5.3393,5.3494,5.3428,5.3377,5.3479,5.3479,5.3479,5.3579,5.3579,5.3614,5.3614,5.3308,5.1797,4.8203,4.8222,4.8184,4.6992,4.8196,4.8877,4.8058,4.7835,4.6868,4.4532,4.233,4.0519,3.9348,3.905,3.8671,3.8262,3.785,3.7937,3.854,3.8575,3.8852,3.9277,4.0346,4.0724,4.0562,4.1233,4.2088,4.4419,4.2179,4.0125,3.1809,2.9722,2.8834,2.5408,2.3331,2.2177,2.2095,2.0871,1.9831,1.9831,1.9884,1.9365,1.7734,1.7611,0.0,0.0,0.0,0.0,0.0,0.0,0.0,0.0,0.0,0.0,0.0,5.0368,0.0,5.2115,5.3729,5.4634,5.464,5.7805,5.9431,5.9307,5.927,5.9305,5.9305,5.9179,5.8834,5.8341,5.8341,5.8234,5.7961,5.7586,5.7479,5.7588,5.7326,5.7126,5.7004,5.6886,5.7643,5.8826,5.9612,5.9734,5.9749,6.1094,6.0397,5.8666,5.7105,5.5234,5.3681,5.3681,5.2572,5.1287,5.1287,5.1114,5.0936,5.1078,5.0846,5.0522,5.0522,5.0497,5.0519,5.0519,5.0519,5.0567,5.0674,5.058,5.0519,5.0519,4.9959,4.8899,4.7158,4.6903,4.6292,4.4517,4.5536,4.6407,4.644,4.6255,4.5977,4.5661,4.3454,4.13,3.9668,3.9468,3.9229,3.8699,3.822,3.8512,3.9476,4.0312,4.1283,4.2351,4.3582,4.4226,4.4254,4.3781,4.3123,4.0088,3.796,3.5874,3.1096,2.9894,2.8689,2.4025,2.2608,2.1928,2.0714,2.0111,0.0,0.0,0.0,2.1536,2.1045,0.0,2.5459,0.0,2.6093,0.0,0.0,0.0,0.0,0.0,0.0,0.0,0.0,0.0,5.3499,5.2156,5.3805,5.4773,5.4761,5.7908,5.9621,5.9557,5.9501,5.9418,5.9418,5.9288,5.9163,5.9,5.9,5.8977,5.8907,5.8797,5.8772,5.8797,5.8721,5.8644,5.8462,5.8234,5.8743,5.9554,5.989,6.0546,6.1185,6.0378,5.9712,5.9056,5.7496,5.5585,5.3956,5.3956,5.2588,5.1025,5.1025,5.0846,5.0662,5.0709,5.0428,5.0138,5.0235,5.0089,4.9975,5.0109,5.0109,5.0158,5.0207,5.0109,5.0094,5.0094,4.8626,4.7701,4.8306,4.8245,4.8316,4.8841,4.9162,4.9772,5.0808,5.0794,5.0118,4.8689,4.7985,4.6836,4.5117,4.4254,4.3154,4.1762,4.1366,4.0944,4.0447,3.9703,3.9855,4.0925,4.1233,4.1705,4.2333,4.2982,4.3123,3.5953,3.3599,3.1891,2.7822,2.6839,2.5854,2.222,2.1375,2.1107,2.0101,0.0,0.0,0.0,0.0,0.0,0.0,2.6644,0.0,0.0,0.0,3.6098,0.0,0.0,0.0,0.0,0.0,0.0,5.4848,5.3521,5.247,5.2203,5.3874,5.4808,5.4819,5.7969,5.9682,5.9682,5.9606,5.9547,5.9547,5.9382,5.9289,5.927,5.9267,5.9285,5.9285,5.9104,5.9022,5.9022,5.8845,5.8772,5.8635,5.8112,5.8569,5.9528,5.9571,6.0037,6.0569,5.9512,5.8706,5.7939,5.6818,5.5078,5.3363,5.3363,5.2514,5.1511,5.1511,5.1337,5.1016,5.0126,4.9682,4.9277,4.8546,4.822,4.8076,4.8124,4.8172,4.8172,4.8172,4.8063,4.8476,4.9783,4.8797,4.8059,4.8717,4.8516,4.8646,4.9447,4.9935,5.0544,5.134,5.1317,5.0763,4.9749,4.9,4.7708,4.5784,4.5022,4.3726,4.1726,4.1199,4.1263,4.1765,4.0299,4.0412,4.2404,4.179,4.1663,4.2085,4.2705,4.2849,3.1861,2.9224,2.8011,2.3614,2.24,2.202,2.1066,0.0,2.0987,2.1367,0.0,2.3913,2.3723,0.0,0.0,0.0,0.0,0.0,3.1124,3.5657,4.0264,4.3653,4.7595,4.9465,4.7937,4.9052,5.0566,5.2276,5.1024,5.0798,5.2224,5.4083,5.5012,5.4805,5.7984,5.9687,5.9715,5.9696,5.9684,5.9671,5.9447,5.9307,5.9307,5.9289,5.9325,5.9305,5.8939,5.8672,5.8461,5.8147,5.8004,5.7922,5.7264,5.7847,5.9052,5.8957,5.8908,5.8884,5.8755,5.7762,5.641,5.6069,5.4705,5.3137,5.2921,5.2571,5.2285,5.2285,5.221,5.1692,4.9831,4.9237,4.8718,4.6951,4.6463,4.6376,4.6376,4.6376,4.6376,4.6376,4.6153,4.6893,4.984,5.0078,4.9668,4.9155,4.8655,4.838,4.8513,4.924,4.9845,4.9946,4.9757,4.9692,4.9788,4.8133,4.6236,4.4323,4.4006,4.2929,4.0686,4.006,4.0857,4.3306,4.184,4.2289,4.5043,4.3737,4.2995,4.2904,4.2787,4.246,2.742,2.486,2.3569,2.2622,2.1443,2.148,0.0,0.0,0.0,2.9489,3.1423,3.218,3.0804,0.0,0.0,0.0,0.0,0.0,0.0,4.4546,0.0,5.3923,5.2837,5.1634,5.12,5.1537,5.2446,5.4164,5.3982,5.3342,5.2345,5.5189,5.6252,5.4847,5.8076,5.9813,5.9847,5.9738,5.9679,5.9658,5.9619,5.9547,5.9431,5.9452,5.9438,5.944,5.9364,5.8537,5.7279,5.722,5.7099,5.7123,5.8221,5.8804,5.9104,5.9082,5.9037,5.9028,5.892,5.8635,5.8349,5.8171,5.7841,5.7174,5.5484,5.3754,5.2285,5.2285,5.221,5.1982,5.1581,5.1395,5.1209,5.0843,5.0615,5.0533,5.0533,5.0533,5.0533,5.0533,5.0253,5.0344,5.1524,5.1491,5.1518,5.2112,5.1061,5.0548,5.1469,5.0652,5.0303,5.126,5.1193,5.1127,5.1127,4.9562,4.8362,4.7942,4.6718,4.582,4.5373,4.4332,4.3998,4.4402,4.3755,4.3861,4.4668,4.342,4.2998,4.3389,4.3194,4.2378,2.4938,2.2999,2.2165,2.131,2.1156,0.0,0.0,2.6767,2.9285,3.1755,3.4361,3.6118,3.5994,3.8099,3.9836,3.986,4.3401,4.615,4.6099,5.1059,5.4698,5.461,5.393,5.2797,5.1074,5.1676,5.2221,5.2265,5.3047,5.3195,5.234,5.4708,5.5315,5.3607,5.6037,5.7326,5.7352,5.7267,5.7251,5.725,5.717,5.7567,5.8308,5.8242,5.8668,5.9364,5.9364,5.8914,5.8144,5.8067,5.76,5.703,5.7675,5.8462,5.9175,5.9175,5.9147,5.9089,5.9028,5.8991,5.8968,5.8821,5.8796,5.8595,5.7498,5.6386,5.5476,5.528,5.5111,5.4751,5.3656,5.3324,5.2995,5.2044,5.1749,5.1709,5.1709,5.1469,5.1344,5.1552,5.2925,5.4049,5.4116,5.3854,5.3412,5.2798,5.1792,5.1033,5.086,4.9898,4.9462,5.0107,5.0085,5.0259,5.0669,4.9262,4.8424,4.878,4.7264,4.6333,4.617,4.5611,4.4763,4.3741,4.3588,4.4424,4.614,4.3511,4.2107,4.1782,4.1672,4.1199,2.3419,2.2126,2.1607,2.0586,2.1343,0.0,2.4807,2.8566,3.2373,0.0,3.8202,4.086,4.1672,4.2465,4.3296,4.4053,4.5865,4.8664,5.2859,5.5469,5.5944,5.3297,5.4188,5.3863,5.0987,5.1829,5.218,5.1238,5.243,5.3114,5.2803,5.4076,5.4022,5.2351,5.3947,5.4973,5.5316,5.5316,5.5468,5.5806,5.5691,5.635,5.7643,5.7553,5.8209,5.9382,5.9364,5.9158,5.8839,5.8705,5.8236,5.754,5.7365,5.8068,5.9271,5.9271,5.9189,5.9052,5.9052,5.9028,5.9042,5.8884,5.8858,5.8833,5.8766,5.8712,5.862,5.8291,5.8071,5.7509,5.5695,5.5257,5.4854,5.3282,5.288,5.288,5.288,5.2521,5.2232,5.2527,5.481,5.6502,5.5753,5.5317,5.4416,5.2511,5.1851,5.1117,4.9782,4.9396,4.9143,4.9088,4.892,4.9205,5.0189,4.8727,4.7938,4.8478,4.6901,4.5716,4.5163,4.5163,4.4332,4.2715,4.2762,4.4113,4.6578,4.3483,4.126,3.9923,3.9923,3.9731,2.2504,2.1258,2.0427,2.1758,2.2211,0.0,3.3462,3.708,4.0245,0.0,5.0093,5.1888,5.0455,5.2479,5.3566,5.1056,5.3252,5.5835,5.7406,5.6748,5.6121,5.6075,5.6247,5.574,5.4248,5.4225,5.4851,5.6047,5.6441,5.6007,5.4614,5.4709,5.4053,5.2364,5.3955,5.5543,5.7036,5.7074,5.7811,5.9302,5.9299,5.9326,5.9422,5.9506,5.9571,5.9641,5.9628,5.8763,5.7366,5.724,5.7933,5.9062,5.9026,5.9062,5.9097,5.9097,5.9014,5.893,5.893,5.892,5.8884,5.877,5.8744,5.8718,5.8702,5.8712,5.8648,5.8515,5.8204,5.7871,5.7617,5.7478,5.7298,5.7079,5.7079,5.7079,5.7079,5.6858,5.6555,5.6396,5.6135,5.5459,5.3996,5.3458,5.2902,5.2097,5.1904,5.1729,5.1267,5.1212,5.1067,5.0696,5.0088,5.0135,5.139,4.9429,4.8116,4.8101,4.6598,4.4974,4.3326,4.3294,4.2937,4.2276,4.2231,4.2255,4.2268,4.2449,4.1415,3.9486,3.9486,3.8588,2.0875,2.1107,2.1441,2.2191,0.0,0.0,3.4597,3.9744,4.4887,0.0,5.1478,5.2843,5.3847,5.4402,5.4591,5.424,5.6051,5.7342,5.6886,5.7189,5.717,5.6448,5.6322,5.5778,5.4391,5.5103,5.5496,5.5176,5.7111,5.7611,5.6049,5.6154,5.556,5.3931,5.4485,5.5189,5.5984,5.5903,5.6255,5.7046,5.6946,5.7403,5.8298,5.8308,5.8752,5.9565,5.9563,5.9152,5.8498,5.8536,5.8974,5.9601,5.9533,5.9468,5.9411,5.9411,5.9334,5.9232,5.9233,5.9215,5.9214,5.9097,5.9007,5.8907,5.8858,5.877,5.8675,5.8657,5.8448,5.8204,5.8009,5.7841,5.7735,5.7735,5.7626,5.7515,5.7515,5.7134,5.6814,5.6941,5.6646,5.5869,5.4299,5.3672,5.3035,5.1725,5.143,5.1334,5.1187,5.1039,5.0888,5.0701,5.0229,5.0403,5.1362,4.8886,4.7657,4.875,4.6461,4.5118,4.4989,4.4433,4.3494,4.235,4.2561,4.2188,4.0995,4.0046,3.9071,3.7994,3.804,3.7609,2.1562,0.0,0.0,0.0,0.0,0.0,3.6356,4.2386,4.8361,5.0965,5.2445,5.3882,5.6039,5.5526,5.5073,5.5987,5.7146,5.7551,5.6399,5.742,5.7711,5.6245,5.6495,5.6227,5.4815,5.6136,5.656,0.0,5.7616,5.8323,5.6736,5.6916,5.6346,5.4795,5.47,5.4992,5.5538,5.5516,5.5809,5.6358,5.6242,5.6869,5.8049,5.7998,5.8579,5.9645,5.9654,5.9638,5.9668,5.9721,5.9782,5.9831,5.97,5.9659,5.9631,5.9622,5.9557,5.9492,5.9487,5.9457,5.9404,5.9322,5.9252,5.9152,5.9013,5.8893,5.8744,5.8781,5.8648,5.8419,5.814,5.7908,5.777,5.7734,5.7589,5.7441,5.7366,5.7022,5.6829,5.7181,5.7101,5.6472,5.4919,5.4236,5.3543,5.2232,5.1794,5.157,5.157,5.0989,5.0604,5.0604,4.9743,4.9533,5.0403,4.807,4.6947,4.7808,4.5912,4.4735,4.4639,4.4063,4.2987,4.1304,4.1604,4.1159,3.9815,3.8079,3.6908,3.6389,3.6815,3.6668,0.0,0.0,0.0,2.9502,3.2346,3.5221,4.1333,4.671,5.0915,5.2649,5.5607,5.7951,5.8034,5.78,5.7369,5.6688,5.7094,5.7515,5.7332,5.7552,5.7242,5.5966,5.7236,5.7739,5.6448,5.7827,5.8809,5.8772,5.8846,5.8163,5.6494,5.6391,5.5693,5.4109,5.4324,5.5239,5.6863,5.7159,5.8084,5.9714,5.9701,5.9744,5.9788,5.9924,6.0006,6.0047,6.0061,6.0062,6.006,5.991,5.9789,5.9679,5.9689,5.9583,5.9481,5.9457,5.9492,5.9487,5.9479,5.9393,5.9284,5.9307,5.9289,5.9271,5.9271,5.9097,5.8879,5.8907,5.8707,5.847,5.8322,5.814,5.7873,5.7771,5.7735,5.7662,5.7403,5.7514,5.7748,5.7858,5.7688,5.7001,5.5468,5.4639,5.4164,5.3985,5.3546,5.3177,5.3177,5.1772,5.0721,5.0721,4.8232,4.7059,4.8394,4.745,4.6039,4.4225,4.4597,4.3432,4.018,4.0618,4.0227,3.8622,3.8472,3.822,3.7793,3.6858,3.5923,3.5059,3.6237,3.5627,2.5667,2.7312,2.9086,3.3023,3.7627,4.2043,4.5085,4.8739,5.2177,5.4739,5.5356,5.5678,5.6675,5.6901,5.6937,5.6838,5.6968,5.7098,5.7328,5.7515,5.755,5.7367,5.7772,5.7909,5.7568,5.8041,5.8374,5.8374,5.8546,5.8383,5.7826,5.802,5.7948,5.7427,5.7485,5.7795,5.836,5.8544,5.8915,5.947,5.9641,5.973,5.9768,5.9858,5.9996,6.0079,5.9979,5.9893,5.982,5.9939,5.991,5.9829,5.9817,5.9764,5.9744,5.9745,5.9722,5.9735,5.9745,5.9715,5.9693,5.9696,5.9544,5.9434,5.9434,5.9305,5.9137,5.9155,5.9114,5.897,5.8856,5.8735,5.8516,5.8271,5.8187,5.8062,5.7895,5.802,5.8113,5.7924,5.6944,5.5599,5.3824,5.2212,5.1082,5.0838,5.0423,5.0504,5.1456,5.0728,5.0039,4.9856,4.8636,4.808,4.8495,4.7265,4.5652,4.3689,4.2794,4.1242,3.8916,3.8357,3.7905,3.7356,3.6583,3.6545,3.7033,3.562,3.5192,3.5769,3.5138,3.4538,2.6919,2.9833,3.2835,3.6651,4.2044,4.6632,4.7415,5.0633,5.3777,5.5076,5.5214,5.5341,5.6163,5.6261,5.6261,5.6332,5.6517,5.6736,5.7058,5.7212,5.7478,5.7804,5.7769,5.7767,5.7834,5.78,5.7834,5.7969,5.8088,5.8204,5.8358,5.8595,5.8746,5.8746,5.8744,5.8835,5.8964,5.912,5.9209,5.9242,5.9457,5.9531,5.9557,5.9679,5.9752,5.9806,5.9759,5.9692,5.9631,5.979,5.9826,5.9802,5.9782,5.9789,5.9792,5.9796,5.9827,5.9886,5.9869,5.9879,5.9882,5.9886,5.9753,5.9621,5.9621,5.9516,5.9376,5.938,5.9289,5.9177,5.9117,5.8954,5.8795,5.8672,5.8489,5.8082,5.6977,5.6807,5.6818,5.657,5.5662,5.4505,5.323,5.179,5.0693,5.044,5.0057,5.0118,5.1016,4.9998,4.8933,4.8462,4.7482,4.6729,4.6405,4.563,4.4189,4.1717,4.0874,3.9377,3.6978,3.6486,3.6247,3.6247,3.5452,3.5511,3.6504,3.6143,3.5919,3.5799,3.5511,3.494,2.9789,3.2331,3.4992,4.0623,4.548,4.8824,4.8472,5.2365,5.5516,5.3834,5.5314,5.6778,5.6574,5.5953,5.5533,5.5434,5.5942,5.6358,5.6495,5.6742,5.6982,5.7254,5.7328,5.7328,5.7328,5.7251,5.7292,5.7696,5.7588,5.7694,5.8034,5.8066,5.8066,5.8098,5.8098,5.8278,5.8647,5.8922,5.9046,5.9064,5.9226,5.928,5.9284,5.9419,5.9419,5.9259,5.9388,5.9455,5.9492,5.9468,5.9557,5.9672,5.9666,5.9679,5.9684,5.9695,5.9779,5.9872,5.9868,5.9882,5.9872,5.9866,5.9886,5.9886,5.9886,5.9704,5.9495,5.9487,5.9305,5.9139,5.9139,5.8954,5.8818,5.8932,5.8672,5.7679,5.4952,5.4279,5.42,5.4047,5.3964,5.382,5.3571,5.3018,5.2567,5.2447,5.1996,5.1623,5.1515,4.9312,4.7398,4.646,4.4694,4.3192,4.2331,4.2805,4.1762,3.8457,3.8923,3.7864,3.4556,3.5017,3.5332,3.5332,3.4912,3.5078,3.5897,3.7762,3.7439,3.5152,3.6961,3.6409,3.3517,3.8509,4.2568,4.7099,4.9182,5.0371,5.1299,5.2533,5.363,5.4331,5.4938,5.5434,5.5533,5.5384,5.5369,5.5519,5.5484,5.5693,5.619,5.6234,5.6417,5.6992,5.7065,5.7137,5.7328,5.7328,5.7328,5.7442,5.7442,5.7404,5.7405,5.7405,5.748,5.7694,5.7694,5.7865,5.8248,5.8358,5.8526,5.8809,5.9018,5.9177,5.927,5.9434,5.9322,5.9022,5.9214,5.9345,5.9345,5.9449,5.9557,5.9672,5.9687,5.9659,5.9692,5.9777,5.9844,5.9863,5.9868,5.9872,5.9871,5.9865,5.9863,5.9863,5.9863,5.982,5.9775,5.9768,5.9721,5.9669,5.9683,5.96,5.9563,5.9506,5.8461,5.7273,5.6454,5.516,5.42,5.4047,5.2927,5.1953,5.179,5.0384,4.9183,4.9075,4.8603,4.7776,4.641,4.5414,4.4209,4.2511,4.1687,4.1112,4.0806,4.092,4.0071,3.7709,3.7736,3.691,3.4775,3.4849,3.4869,3.4806,3.3526,3.361,3.4959,3.4001,3.3802,3.4301,3.3747,3.3012,3.2235,3.932,4.5592,4.843,5.0854,5.2519,5.2593,5.3184,5.3915,5.4661,5.4365,5.3995,5.413,5.4186,5.4297,5.473,5.4677,5.4889,5.5622,5.5706,5.5813,5.6287,5.6445,5.6603,5.6688,5.6808,5.6896,5.7058,5.7058,5.7058,5.7173,5.7173,5.7176,5.7294,5.7294,5.7443,5.7766,5.7766,5.8001,5.8441,5.8797,5.9007,5.9051,5.9177,5.9018,5.8733,5.8869,5.9044,5.9227,5.9308,5.9342,5.9431,5.9464,5.9546,5.9595,5.9735,5.9806,5.9777,5.9797,5.9817,5.9868,5.9872,5.9872,5.9872,5.9872,5.9871,5.9719,5.8958,5.8759,5.8592,5.7862,5.7591,5.7549,5.748,5.6685,5.5762,5.5002,5.3434,5.2151,5.2085,5.1205,5.0429,5.0299,4.9249,4.842,4.8352,4.7954,4.7252,4.6254,4.5413,4.4037,4.1819,4.151,4.0949,3.9654,3.9873,3.9298,3.7521,3.74,3.6644,3.4965,3.4643,3.4501,3.4413,3.4371,3.4738,3.5616,3.4167,3.3526,3.365,3.2218,3.0966,2.9999,3.795,4.5574,4.7681,5.1545,5.4365,5.277,5.3689,5.4853,5.453,5.3649,5.2897,5.2897,5.2897,5.308,5.3615,5.3697,5.4017,5.4853,5.4958,5.5063,5.5369,5.5583,5.5728,5.5907,5.6048,5.6288,5.6688,5.661,5.6694,5.6978,5.7014,5.6978,5.6901,5.6901,5.7058,5.7328,5.7366,5.7625,5.8034,5.8527,5.8718,5.8665,5.9168,5.9302,5.9074,5.9074,5.9249,5.9592,5.9592,5.9578,5.9575,5.9522,5.959,5.9739,5.9652,5.9646,5.9659,5.9676,5.9771,5.9813,5.9599,5.9639,5.9751,5.9337,5.934,5.915,5.7478,5.6998,5.6649,5.5208,5.4747,5.4672,5.466,5.4192,5.34,5.2049,5.0575,4.9549,4.9553,4.946,4.9323,4.9201,4.9053,4.8949,4.8928,4.8645,4.8325,4.8104,4.7045,4.538,4.2948,4.2556,4.1504,3.9105,3.9329,3.898,3.7605,3.7481,3.6782,3.5272,3.4739,3.4414,3.4173,3.5401,3.6018,3.6018,3.5222,3.4053,3.264,3.1303,2.9656,3.5783,4.0098,4.3469,5.0345,5.2854,5.327,5.2239,5.2656,5.3167,5.2797,5.2769,5.2897,5.2897,5.2897,5.2897,5.3019,5.3019,5.3201,5.3708,5.3439,5.3581,5.4338,5.4317,5.4589,5.5583,5.5645,5.5919,5.6413,5.6413,5.6413,5.6332,5.6332,5.643,5.6616,5.6736,5.6978,5.7328,5.7552,5.7662,5.7626,5.7939,5.8167,5.8328,6.0917,6.2065,6.2032,6.2032,6.2102,6.2135,6.2135,6.22,6.219,6.1052,6.0798,6.0945,5.9815,5.9489,5.9681,5.9657,5.9684,5.9515,5.8193,5.8569,5.9065,5.6486,5.6489,5.7159,5.5689,5.523,5.5206,5.5037,5.4935,5.4932,5.4803,5.2542,5.0322,4.9928,4.9611,4.9422,4.9403,4.9402,4.9317,4.9198,4.9073,4.8907,4.8704,4.8508,4.79,4.6512,4.5987,4.5087,4.3256,4.1805,4.0743,4.0187,3.8973,3.8015,3.7543,3.7414,3.7041,3.6311,3.6198,3.5432,3.392,3.2087,3.1117,3.1117,3.0344,2.9826,2.9499,2.8871,2.8383,3.3857,3.7285,4.039,4.6756,5.0667,5.2952,5.264,5.2735,5.2583,5.1322,5.1555,5.1949,5.1851,5.1884,5.1982,5.2335,5.2398,5.2524,5.3114,5.308,5.3133,5.3571,5.3812,5.4186,5.4696,5.4958,5.5179,5.5463,5.5463,5.5463,5.5449,5.5741,5.5988,5.6171,5.6394,5.6724,5.7014,5.7009,5.7134,5.7443,5.7552,5.8238,5.9387,6.0773,6.1614,6.2069,6.2412,6.2231,6.1667,6.1667,6.1217,6.0464,5.9861,5.9722,5.9841,5.9201,5.9093,5.9252,5.9271,5.938,5.9334,5.8537,5.8731,5.9,5.7511,5.6945,5.6545,5.505,5.401,5.3211,5.239,5.2167,5.2121,5.2011,5.0798,4.9653,4.9697,4.9693,4.9677,4.9697,4.9693,4.9674,4.9573,4.9533,4.9114,4.8062,4.7671,4.6883,4.5185,4.4754,4.3945,4.2335,4.1337,4.0402,3.9325,3.8354,3.7712,3.7525,3.7309,3.7157,3.6931,3.3869,3.1638,3.0511,2.993,2.9231,2.8426,2.7808,2.7123,2.6344,2.6014,2.5721,3.2109,3.5064,3.8212,4.3404,4.8015,5.1443,5.1973,5.2169,5.1882,5.0355,5.0386,5.0769,5.0903,5.0833,5.0972,5.1586,5.1719,5.1883,5.2461,5.2554,5.2645,5.2769,5.3193,5.3489,5.3605,5.4027,5.4269,5.4343,5.4485,5.4661,5.4783,5.5179,5.5428,5.5547,5.5884,5.6161,5.6421,5.6242,5.6438,5.6953,5.7315,5.8309,5.9852,5.9745,6.027,6.1296,6.1801,6.1741,6.1133,6.117,6.0656,5.9773,5.9575,5.9336,5.906,5.8877,5.8506,5.8197,5.816,5.8146,5.8087,5.7636,5.7917,5.8272,5.728,5.6565,5.573,5.3857,5.2469,5.1272,4.9939,4.9623,4.9587,4.9384,4.9503,4.9666,4.9762,4.9829,4.9853,4.9826,4.9841,4.9886,4.9887,4.9577,4.8836,4.7413,4.6586,4.5658,4.4326,4.3874,4.325,4.2002,4.1444,4.0433,3.8521,3.7819,3.7323,3.6849,3.6245,3.5897,3.5875,3.0656,2.7584,2.7164,2.7774,2.7479,2.6281,2.5852,2.5048,2.3867,2.3626,2.3277,3.615,3.767,3.8756,4.5439,4.6652,4.6651,4.8422,4.9279,4.9822,5.0237,4.9667,4.9563,5.0908,5.0527,5.0276,5.0935,5.1004,5.111,5.142,5.1282,5.135,5.1949,5.1719,5.1719,5.2039,5.2763,5.3304,5.3367,5.4014,5.45,5.4626,5.4679,5.4732,5.4732,5.4888,5.5077,5.5349,5.5442,5.5587,5.5789,5.7168,5.791,5.8016,5.8292,5.929,6.0703,6.0886,6.1635,6.2796,6.2897,6.3646,6.4525,6.3282,6.2005,6.0818,5.9536,5.7692,5.5877,5.5773,5.5172,5.4238,5.2698,5.4106,5.5627,5.1393,5.1954,5.3541,5.0642,4.9843,4.9765,4.9763,4.9741,4.964,4.928,4.9203,4.924,4.9252,4.9347,4.9439,4.942,4.9522,4.9623,4.9607,4.8316,4.7266,4.7077,4.561,4.448,4.4319,4.4266,4.4203,4.4053,4.2643,4.1047,3.9287,3.7753,3.6166,3.4636,3.2912,3.1794,3.1327,2.8176,2.6406,2.6378,2.4842,2.3996,2.3853,2.3332,2.3064,2.3047,2.2565,2.2351,3.0737,3.379,3.6628,3.8892,4.1998,4.4855,4.6432,4.6556,4.6879,4.8987,4.81,4.7187,4.7729,4.8606,4.8914,4.7911,4.8913,4.9813,5.0102,5.0205,5.0308,5.0597,5.0737,5.0843,5.0884,5.1356,5.1687,5.1718,5.2009,5.2483,5.31,5.3469,5.3924,5.4466,5.4905,5.5244,5.5294,5.5463,5.5596,5.5728,5.6328,5.6282,5.5816,5.7301,5.8637,5.9765,6.0264,6.1015,6.1728,6.0935,6.0423,6.0006,5.8487,5.7629,5.7086,5.5573,5.4424,5.3707,5.3678,5.3425,5.2965,5.2297,5.2936,5.3597,5.1757,5.1417,5.1509,5.0397,4.9625,4.911,4.9163,4.9301,4.9371,4.9221,4.9053,4.8937,4.8941,4.8867,4.8811,4.8792,4.8122,4.755,4.7489,4.6183,4.5234,4.5365,4.4002,4.2595,4.1722,4.1629,4.1605,4.16,4.0103,3.8385,3.6608,3.4837,3.3058,3.1268,3.0323,2.8291,2.4761,2.2891,2.1894,2.1919,2.1882,2.143,2.0477,2.1052,2.0871,2.0017,2.0849,2.0546,2.6985,3.0351,3.3956,3.471,3.8028,4.1824,4.4285,4.4006,4.4098,4.7533,4.6579,4.528,4.5744,4.6768,4.7096,4.5823,4.7487,4.9,4.9181,4.9552,4.9772,4.9772,5.0133,5.0245,4.9886,5.0284,5.0463,5.0323,5.0533,5.0948,5.1621,5.2199,5.2784,5.3455,5.3924,5.4328,5.4662,5.452,5.4661,5.501,5.5236,5.4873,5.4024,5.5573,5.6673,5.7276,5.783,5.8381,5.8799,5.8199,5.7429,5.6485,5.5385,5.448,5.3642,5.2699,5.1901,5.1343,5.1341,5.1128,5.087,5.0695,5.1056,5.1488,5.1051,5.0672,5.0347,4.9984,4.9268,4.8667,4.876,4.8774,4.8774,4.8774,4.8445,4.8201,4.8482,4.8201,4.801,4.8263,4.711,4.6064,4.5953,4.433,4.3126,4.3302,4.2006,4.0637,3.9621,3.95,3.9155,3.8267,3.6115,3.4049,3.2374,3.0923,2.9307,2.7442,2.6799,2.4145,1.8808,1.7997,1.7475,1.7114,1.8078,1.8078,1.6987,1.7758,1.7574,1.6484,1.7557,1.709,2.726,2.8784,3.1062,3.542,3.5748,3.6474,4.177,4.167,4.1725,4.6114,4.5405,4.4374,4.5811,4.5243,4.4794,4.5374,4.7334,4.8773,4.8773,4.9404,4.9772,4.9772,4.9886,4.9772,4.9243,4.9699,4.9782,4.9384,5.0102,5.0597,5.0742,5.1013,5.1182,5.1182,5.1285,5.1883,5.2897,5.2271,5.2365,5.3133,5.3856,5.3758,5.2869,5.2931,5.2964,5.2931,5.2931,5.3235,5.381,5.5152,5.585,5.6183,5.6183,5.4337,5.1778,5.2287,5.0849,4.8634,4.862,4.7969,4.699,4.6506,4.7694,4.9145,4.7705,4.8796,5.0225,4.8664,4.8298,4.8483,4.8751,4.8278,4.7827,4.7815,4.7223,4.6881,4.7666,4.7331,4.7089,4.7845,4.6747,4.5666,4.5673,4.3115,4.1029,4.1066,3.9726,3.8692,3.8688,3.8684,3.7543,3.4571,3.0916,2.8116,2.683,2.621,2.5066,2.3098,2.1906,1.9032,1.4055,1.4237,1.3831,1.2529,1.3165,1.3491,1.3458,1.3082,1.2816,1.2672,1.2304,1.1649,2.5776,2.8059,3.0733,3.2258,3.384,3.5858,3.9131,3.9491,3.9498,4.0812,4.1843,4.2436,4.2097,4.3691,4.4857,4.4292,4.5599,4.7099,4.7907,4.7609,4.7609,4.822,4.7894,4.7707,4.8064,4.8529,4.8835,4.8804,4.9181,4.9667,5.0418,5.0559,5.0769,5.1218,5.1554,5.1883,5.2207,5.2268,5.2425,5.2674,5.1369,5.0738,5.0678,5.1818,5.2524,5.2807,5.3287,5.3673,5.3938,5.4358,5.4645,5.4666,5.2767,5.0803,4.8967,4.8337,4.7538,4.6741,4.6733,4.6184,4.541,4.5052,4.5408,4.5876,4.568,4.643,4.7299,4.706,4.7305,4.7075,4.4773,4.3378,4.2743,4.3309,4.3101,4.2844,4.31,4.2431,4.1567,4.0847,3.9059,3.7348,3.6276,3.4545,3.3633,3.4496,3.3537,3.3105,3.4169,3.2811,3.1335,3.0227,2.759,2.5523,2.4595,2.248,2.0429,1.8658,1.5947,1.3247,1.0726,1.0987,1.1157,1.1108,1.129,1.11,1.0495,1.0366,0.9628,0.8361,0.8432,0.6835,2.464,2.7201,2.9796,3.0134,3.0973,3.2476,3.5494,3.5986,3.6071,3.6838,3.8549,3.964,3.8713,4.0529,4.2042,4.1527,4.2909,4.4624,4.6081,4.6032,4.6032,4.6559,4.6529,4.6693,4.7159,4.759,4.7907,4.8064,4.8189,4.8468,4.9,4.9181,4.9373,4.9646,5.0078,5.0431,5.0678,5.0682,5.0696,5.0541,4.9776,4.9478,4.9709,5.0774,5.132,5.1555,5.1642,5.1987,5.2545,5.2099,5.2045,5.1987,4.9794,4.7667,4.585,4.528,4.5064,4.4993,4.504,4.4736,4.4265,4.3862,4.3726,4.3846,4.3981,4.4306,4.4697,4.505,4.4998,4.4139,4.1271,4.0007,3.9592,4.012,3.9864,3.9598,3.9924,3.8919,3.7755,3.7142,3.4691,3.2459,3.1494,3.005,2.9338,3.0041,2.9776,2.983,3.068,2.9016,2.7206,2.5849,2.4081,2.224,2.0374,1.8135,1.6148,1.4488,1.0021,0.7013,0.6035,0.5864,0.5794,0.5802,0.5728,0.5294,0.4444,0.4289,0.3486,0.2075,0.2079,0.0588,2.3896,2.6159,2.8243,2.8919,2.7757,2.7516,3.1351,3.1782,3.1911,3.3957,3.5398,3.6056,3.5654,3.628,3.7136,3.8037,3.9752,4.1661,4.37,4.4301,4.467,4.4927,4.5545,4.6129,4.6417,4.6886,4.7159,4.7159,4.7239,4.7159,4.6967,4.743,4.751,4.6967,4.756,4.8067,4.8433,4.8145,4.764,4.7228,4.8716,4.9384,4.9469,4.9437,4.9406,4.9394,4.8273,4.854,4.9696,4.8666,4.8422,4.8556,4.7103,4.5028,4.2859,4.3246,4.3261,4.3148,4.3352,4.3319,4.3148,4.2612,4.2501,4.2591,4.2351,4.2297,4.2381,4.2565,4.1338,3.9618,3.7989,3.76,3.7603,3.7652,3.7034,3.664,3.7341,3.5979,3.4806,3.5375,3.2544,3.0004,2.9835,2.8422,2.7212,2.7045,2.7553,2.786,2.7689,2.6345,2.4212,2.1094,1.9874,1.7927,1.447,1.3302,1.1978,1.0063,0.4238,0.0718,0.047,-0.0406,-0.1265,-0.214,-0.2252,-0.2777,-0.3605,-0.3954,-0.4655,-0.5603,-0.5962,-0.6725,2.3832,2.4616,2.5698,2.7606,2.8489,2.9138,2.9881,2.9967,2.9971,3.0508,3.0847,3.1593,3.3369,3.4192,3.6011,4.0195,3.9618,3.9518,4.184,4.0524,4.0266,4.2986,4.2452,4.2955,4.5744,4.6311,4.6641,4.6886,4.737,4.7719,4.7846,4.8189,4.8298,4.8189,4.8375,4.8007,4.7259,4.831,4.7518,4.4925,4.5769,4.6312,4.6616,4.6299,4.6237,4.6294,4.6048,4.6214,4.6736,4.6419,4.6064,4.5576,4.4092,4.3373,4.2958,4.208,4.06,3.9169,4.003,3.937,3.8307,3.8989,3.9214,3.9302,3.9559,3.9896,4.003,3.9273,3.5747,3.2193,3.242,3.1584,3.0831,3.1341,3.0576,2.9841,3.0076,2.8554,2.6883,2.5874,2.4456,2.3003,2.1551,2.0843,2.0651,2.139,2.0528,2.0026,2.0564,1.7608,1.479,1.3114,1.1437,0.9795,0.8346,0.8361,0.6339,0.1351,-0.0941,-0.2326,-0.2755,-0.3454,-0.3948,-0.4191,-0.4222,-0.4992,-0.6593,-0.6677,-0.8195,-1.0977,-1.0871,-1.2532,2.3524,2.4586,2.5632,2.5655,2.6125,2.6546,2.6444,2.6342,2.6346,2.6336,2.6849,2.786,2.9657,3.0715,3.2347,3.5435,3.5456,3.5968,3.8724,3.804,3.7853,3.9547,4.0023,4.0841,4.2463,4.376,4.4784,4.5384,4.5751,4.5974,4.6086,4.6223,4.6041,4.5482,4.5614,4.5183,4.3987,4.5285,4.4803,4.2431,4.3559,4.411,4.4353,4.4142,4.4096,4.4119,4.3546,4.3707,4.4299,4.3722,4.3007,4.2227,4.1389,4.0544,3.9655,3.891,3.7875,3.692,3.7646,3.7288,3.6534,3.6986,3.6779,3.629,3.6444,3.617,3.5778,3.5362,3.093,2.6342,2.641,2.6064,2.5624,2.5559,2.502,2.4491,2.4327,2.3029,2.1599,2.0606,1.919,1.7736,1.6389,1.593,1.5822,1.6042,1.5552,1.5229,1.549,1.2528,1.0107,0.9135,0.6979,0.5194,0.4144,0.41,0.2563,-0.1102,-0.4317,-0.6343,-0.6964,-0.8584,-0.9068,-0.8372,-0.9975,-1.1297,-1.2146,-1.2973,-1.455,-1.6768,-1.702,-1.8251,2.3185,2.5153,2.6613,2.4065,2.3322,2.3179,2.2934,2.2834,2.2749,2.2749,2.3615,2.4729,2.5808,2.6906,2.7878,2.8679,3.0333,3.2438,3.5306,3.5867,3.6025,3.6126,3.8188,3.9449,3.905,4.1199,4.295,4.3581,4.3593,4.351,4.336,4.3403,4.2906,4.1761,4.2127,4.1536,4.0027,4.0825,4.0955,4.0398,4.1716,4.232,4.2369,4.2189,4.1997,4.1733,4.0733,4.088,4.1703,4.0457,3.9467,3.858,3.824,3.6875,3.5001,3.4731,3.4822,3.5032,3.509,3.5086,3.5088,3.5062,3.4369,3.3438,3.2913,3.1918,3.083,3.0295,2.6244,2.1837,2.1124,2.1441,2.1689,2.0717,2.0294,1.998,1.9615,1.8459,1.7374,1.6992,1.5185,1.352,1.2862,1.2438,1.1933,1.1231,1.1493,1.159,1.1085,0.8921,0.7165,0.635,0.3952,0.1882,0.0696,-0.0048,-0.0995,-0.2354,-0.7191,-1.0338,-1.1079,-1.3546,-1.4454,-1.3586,-1.6596,-1.8072,-1.7887,-1.9704,-2.1004,-2.185,-2.2873,-2.3485,2.3309,2.5197,2.682,2.518,2.471,2.4256,2.3052,2.2749,2.2749,2.2749,2.249,2.2602,2.3871,2.4216,2.4949,2.6998,2.9035,3.1138,3.3368,3.2693,3.2975,3.552,3.6751,3.8217,4.045,4.1918,4.2913,4.3186,4.2843,4.2575,4.2603,4.2144,4.1811,4.1611,4.169,4.0263,3.7199,3.7205,3.8221,4.009,4.0098,4.0284,4.0603,3.96,3.8521,3.7468,3.7271,3.7225,3.7247,3.5968,3.5109,3.4573,3.3497,3.24,3.1517,3.0723,3.106,3.156,3.0003,2.9351,2.9482,3.0488,3.0714,3.0301,2.858,2.7728,2.6547,2.2529,2.0553,1.9637,1.9174,1.9089,1.8957,1.8453,1.7,1.5707,1.5645,1.3765,1.2011,1.1733,1.0731,0.9882,0.967,0.8975,0.826,0.7782,0.7478,0.6806,0.5637,0.3794,0.1987,0.0339,-0.1509,-0.2945,-0.3804,-0.5087,-0.7256,-1.0596,-1.1553,-1.2339,-1.314,-1.4531,-1.6311,-1.8464,-1.9088,-1.9419,-1.9454,-2.1274,-2.2673,-2.3753,-2.5425,-2.6988,2.5271,2.6073,2.6562,2.6106,2.5482,2.4692,2.3606,2.2934,2.2435,2.2085,2.1818,2.183,2.2258,2.2826,2.3657,2.5011,2.6621,2.8281,2.9978,3.0817,3.1874,3.3444,3.5559,3.7114,3.803,3.9818,4.1242,4.1872,4.1192,4.0816,4.0872,4.062,4.0167,3.9625,3.9015,3.7083,3.3568,3.4575,3.5366,3.5947,3.6348,3.6696,3.6826,3.5739,3.4917,3.4323,3.3749,3.3452,3.338,3.2771,3.1764,3.0497,2.9766,2.8537,2.7173,2.6708,2.6779,2.7094,2.6195,2.5883,2.5904,2.6082,2.59,2.5368,2.3979,2.129,1.8064,1.4804,1.4116,1.4284,1.3667,1.3766,1.3862,1.3145,1.2116,1.1077,1.0326,0.9113,0.7833,0.6692,0.6184,0.5629,0.4948,0.427,0.3651,0.3145,0.2518,0.1717,0.0524,-0.0818,-0.2404,-0.4263,-0.5737,-0.7007,-0.795,-1.0537,-1.2993,-1.5045,-1.5559,-1.5979,-1.6398,-1.7041,-1.8189,-2.0027,-2.2134,-2.3388,-2.386,-2.5662,-2.6905,-2.7621,-2.9001,-3.0171,2.7818,0.0,2.7876,2.7739,2.681,2.5697,0.0,2.3332,2.2314,2.1675,2.1411,2.1274,2.1181,2.1736,2.2523,2.3588,2.4603,2.5813,2.7492,2.951,3.1017,3.1424,3.4034,3.5473,3.4806,3.6853,3.8552,3.9376,3.8359,3.78,3.8181,3.7721,3.7098,3.6305,3.5208,3.3401,3.0871,3.2138,3.2549,3.2101,3.2857,3.3297,3.3271,3.2462,3.1922,3.1546,3.0771,3.0312,2.9998,2.9951,2.8852,2.7214,2.6764,2.5465,2.374,2.3233,2.3018,2.3018,2.2823,2.2855,2.283,2.211,2.133,2.0415,1.8995,1.5035,1.0644,0.9148,0.9179,0.9449,0.8538,0.8775,0.8972,0.7902,0.7271,0.6707,0.5614,0.4976,0.4074,0.2348,0.1841,0.1332,0.0127,-0.0703,-0.1421,-0.188,-0.2741,-0.3663,-0.4634,-0.5586,-0.6755,-0.8362,-0.9595,-1.0633,-1.1557,-1.499,-1.7302,-1.792,-1.8731,-1.9301,-1.9581,-2.0399,-2.1236,-2.1903,-2.5389,-2.746,-2.793,-2.9565,-3.0438,-3.0597,-3.2302,-3.3247,0.0,3.2142,3.2341,3.069,2.9483,2.8094,2.5719,2.4055,0.0,2.2067,2.1181,2.0646,2.1089,2.0455,2.073,2.3459,2.3955,2.4998,2.7783,2.8605,2.9234,3.0157,3.1732,3.2629,3.2343,3.366,3.4795,3.5327,3.3542,3.2882,3.3853,3.2389,3.1485,3.138,3.0136,2.9838,3.0573,2.9615,2.9764,3.1066,3.0976,3.1073,3.1279,3.1129,3.0364,2.9194,2.912,2.845,2.7264,2.7163,2.6549,2.5544,2.4567,2.3576,2.2685,2.107,2.0463,2.038,1.9633,1.9424,1.9362,1.8922,1.7913,1.6409,1.3511,1.0328,0.7677,0.7544,0.7625,0.7511,0.6195,0.6023,0.5843,0.4549,0.3563,0.2884,0.2824,0.1806,0.0517,-0.0961,-0.1794,-0.2749,-0.3995,-0.5593,-0.6779,-0.7205,-0.8332,-0.9384,-1.0181,-1.0711,-1.1343,-1.23,-1.3159,-1.3898,-1.4421,-1.7106,-1.8984,-1.9816,-2.0452,-2.1119,-2.1715,-2.4652,-2.63,-2.6354,-2.8804,-3.0022,-2.9937,-3.1014,-3.1292,-3.0771,-3.4373,-3.6029,3.0904,3.1246,3.1117,3.0726,2.922,2.7679,2.699,2.4869,2.2873,2.2242,2.1165,2.0455,2.0667,2.0237,2.078,2.3459,2.4263,2.5213,2.7279,2.8616,2.9265,2.883,3.0565,3.1637,3.1471,3.257,3.3398,3.366,3.241,3.1826,3.2292,3.1504,2.9483,2.6139,2.6176,2.5613,2.4593,2.5365,2.5552,2.5074,2.5664,2.6288,2.6887,2.5242,2.4771,2.5109,2.3601,2.2648,0.0,2.2143,2.1542,2.0521,1.9765,1.8811,1.778,1.6802,1.6387,1.6269,1.5696,1.5282,1.4789,1.4107,1.2922,1.152,1.0073,0.6681,0.3199,0.2806,0.2675,0.2545,0.1518,0.139,0.12,0.0126,-0.0443,-0.0953,-0.178,-0.2675,-0.3762,-0.5229,-0.5874,-0.6494,-0.7699,-0.8549,-0.9196,-0.9876,-1.0796,-1.1719,-1.2604,-1.3645,-1.4697,-1.5603,-1.6584,-1.7846,-1.9468,-2.088,-2.1802,-2.2283,-2.2848,-2.3443,-2.4103,-2.4768,-2.581,-2.7267,-2.8435,-2.9537,-3.0633,-3.217,-3.3432,-3.4494,-3.72,-3.8682,3.0772,3.0548,3.0418,3.0795,2.9583,2.8257,2.7963,2.5774,2.3568,2.2528,2.1281,2.0455,2.0551,2.0643,2.1417,2.351,2.4386,2.5277,2.6828,2.7278,2.7344,2.7261,2.8035,2.8898,2.9535,3.0037,3.0266,3.0075,2.9155,2.8927,2.9672,2.9018,2.6425,2.159,2.2185,2.1722,2.0038,2.1719,2.1803,2.0445,2.1268,2.1993,2.2695,2.0802,2.0556,2.1486,1.9818,1.8819,1.8514,1.8895,1.8362,1.7335,1.6647,1.5964,1.5104,1.3747,1.323,1.3056,1.2014,1.1393,1.0875,0.9755,0.8492,0.7319,0.6903,0.3748,0.013,-0.0645,-0.103,-0.1474,-0.2671,-0.2917,-0.3107,-0.4058,-0.431,-0.4561,-0.5711,-0.6211,-0.7038,-0.8759,-0.925,-0.9799,-1.1065,-1.1749,-1.2308,-1.2912,-1.3755,-1.4673,-1.5721,-1.6537,-1.7461,-1.8707,-1.93,-2.1017,-2.4405,-2.4872,-2.5184,-2.5633,-2.6122,-2.6544,-2.6738,-2.6603,-2.7303,-2.8908,-2.9657,-3.0597,-3.1834,-3.3329,-3.4814,-3.6194,-3.7569,-3.892,3.0316,3.0843,3.128,3.1138,3.0983,3.0396,2.8464,2.6878,2.5207,2.2997,2.143,2.0503,2.0761,2.156,2.2501,2.3529,2.4143,2.5032,2.6533,2.409,2.2977,2.5254,2.3847,2.3638,2.6115,2.5639,2.4856,2.4121,2.2954,2.3207,2.5241,2.4025,2.1574,1.7943,1.8208,1.8265,1.7807,1.8949,1.9051,1.802,1.8458,1.8666,1.8801,1.8684,1.8608,1.8608,1.8608,1.7823,1.6735,1.8054,1.7823,1.6513,1.5905,1.57,1.5443,1.2339,1.1258,1.1065,0.8709,0.7924,0.7674,0.6141,0.4875,0.3998,0.3687,0.1556,-0.1041,-0.2068,-0.2824,-0.3889,-0.6094,-0.6531,-0.6789,-0.7924,-0.7914,-0.7831,-0.8642,-0.858,-0.902,-1.111,-1.1865,-1.2583,-1.3992,-1.5564,-1.6599,-1.6741,-1.774,-1.8922,-2.0087,-1.9429,-1.9706,-2.1598,-2.1303,-2.3281,-2.8837,-2.887,-2.887,-2.9644,-3.0305,-3.0321,-2.9596,-3.1005,-3.1845,-3.1875,-3.3258,-3.3944,-3.3871,-3.461,-3.5025,-3.51,-3.519,-3.6525,3.2638,3.2497,3.2403,3.1684,3.0551,2.9433,2.9054,2.6687,2.4448,2.391,2.2106,2.0667,2.0761,2.1437,2.2368,2.3857,2.3575,2.3206,2.3367,2.1583,1.9763,1.8541,1.7991,1.8236,1.9752,1.9639,1.9804,2.0466,2.0118,1.9911,1.9975,1.8207,1.662,1.5466,1.5362,1.5066,1.4437,1.4776,1.4814,1.454,1.5,1.5609,1.627,1.5466,1.5343,1.5713,1.4605,1.3119,1.1432,1.1779,1.1234,1.0042,0.9335,0.9087,0.905,0.7477,0.6931,0.6806,0.5967,0.534,0.4772,0.3549,0.2724,0.1806,-0.0309,-0.2546,-0.4407,-0.47,-0.6188,-0.7821,-0.8523,-0.9128,-0.9799,-1.0802,-1.109,-1.1332,-1.2159,-1.2609,-1.3266,-1.4618,-1.5994,-1.7345,-1.8398,-1.9604,-2.0384,-2.0042,-2.1064,-2.1753,-2.1388,-2.2602,-2.3782,-2.4432,-2.4212,-2.5007,-2.7369,-2.7756,-2.8013,-2.833,-2.9079,-2.9608,-2.9943,-2.9611,-3.0277,-3.2127,-3.1655,-3.2751,-3.5513,-3.5685,-3.7153,-3.9818,-3.9831,-4.1055,3.3113,3.2727,3.2185,3.1302,3.0451,2.9655,2.8891,2.7287,2.561,2.4334,2.2709,2.1397,2.0978,2.1827,2.2504,2.2438,2.2136,2.1441,2.0021,1.7819,1.6143,1.5432,1.4609,1.4653,1.6131,1.6192,1.6597,1.7583,1.7322,1.6311,1.4547,1.2598,1.1557,1.1619,1.1229,1.0698,1.0145,1.1228,1.1495,1.1001,1.224,1.2798,1.2731,1.2138,1.1871,1.1668,1.069,0.955,0.8473,0.8396,0.8045,0.7362,0.6349,0.6071,0.608,0.4895,0.4175,0.3645,0.3023,0.2517,0.1872,0.0323,-0.0824,-0.2088,-0.4264,-0.6099,-0.7495,-0.7962,-0.9404,-1.0853,-1.0853,-1.1837,-1.3064,-1.3977,-1.43,-1.4601,-1.5323,-1.5762,-1.6207,-1.7078,-1.8714,-2.0087,-2.0616,-2.1883,-2.2485,-2.1747,-2.2588,-2.3153,-2.2599,-2.3894,-2.5168,-2.5996,-2.7707,-2.9127,-3.0003,-2.9825,-2.9611,-2.9577,-3.0091,-3.0485,-3.0567,-3.0028,-3.0448,-3.2075,-3.2473,-3.3799,-3.6158,-3.7304,-3.9011,-4.1253,-4.1219,-4.212,3.2796,3.2287,3.1499,3.0596,3.0751,3.0508,2.8255,2.8065,2.7503,2.4388,2.3124,2.232,2.1556,2.2571,2.2742,2.0157,2.0192,1.9475,1.65,1.3423,1.2212,1.4237,1.2582,1.2033,1.4043,1.4118,1.432,1.4904,1.434,1.2593,0.9408,0.7694,0.6868,0.7083,0.6541,0.6088,0.5733,0.8196,0.8898,0.785,0.9857,1.0173,0.8912,0.9107,0.844,0.7241,0.7176,0.7047,0.6976,0.6878,0.6854,0.6828,0.5494,0.501,0.4966,0.3423,0.2175,0.1076,-0.0064,-0.0509,-0.0887,-0.3056,-0.4906,-0.656,-0.7926,-0.9105,-1.0236,-1.1305,-1.2329,-1.3122,-1.3122,-1.4489,-1.6108,-1.6964,-1.7235,-1.7421,-1.8102,-1.8055,-1.8134,-1.8878,-2.0394,-2.1559,-2.1789,-2.3191,-2.3939,-2.2814,-2.3466,-2.4114,-2.4261,-2.4582,-2.545,-2.7127,-3.1353,-3.4236,-3.4704,-3.3606,-3.2752,-3.2515,-3.287,-3.2718,-3.1837,-3.2101,-3.2261,-3.2367,-3.4975,-3.6352,-3.6481,-3.9031,-4.0306,-4.0427,-4.0402,-4.0898,3.562,3.5358,3.4697,3.2903,3.1525,3.0106,2.8082,2.6445,2.5209,2.4509,2.3547,2.2854,2.3016,2.2736,2.2088,2.0889,1.8647,1.6095,1.3414,1.0478,0.8449,0.7931,0.7238,0.7309,0.8567,0.8791,0.9263,1.0264,1.0686,0.9733,0.7241,0.5837,0.5155,0.5085,0.4944,0.5002,0.5193,0.5774,0.6266,0.6597,0.736,0.7613,0.7345,0.7644,0.7274,0.6329,0.6317,0.5376,0.3845,0.3833,0.3326,0.2332,0.0291,-0.0145,0.0,-0.2664,-0.3228,-0.281,-0.3573,-0.3579,-0.333,-0.3738,-0.5349,-0.7628,-1.0112,-1.1633,-1.2496,-1.2655,-1.4113,-1.5563,-1.5453,-1.6195,-1.71,-1.7585,-1.7976,-1.836,-1.9157,-1.9405,-1.995,-2.1442,-2.2972,-2.4564,-2.6107,-2.7795,-2.8687,-2.8182,-2.9009,-2.9447,-2.87,-3.0414,-3.1482,-3.0866,-3.2826,-3.3893,-3.3067,-3.3817,-3.4301,-3.4254,-3.5458,-3.6033,-3.5724,-3.5967,-3.6183,-3.6344,-3.7207,-3.7978,-3.8595,-3.913,-3.9702,-4.0252,-4.0174,-4.1146,3.6413,3.5964,3.5039,3.2613,3.1138,2.9688,2.7548,2.6431,2.5529,2.4397,2.414,2.4016,2.3727,2.2382,2.082,1.919,1.6343,1.3299,1.0138,0.8365,0.7026,0.6048,0.5793,0.5857,0.6211,0.678,0.7363,0.7981,0.8306,0.7311,0.4526,0.4428,0.4191,0.3558,0.2982,0.2785,0.2906,0.3554,0.4068,0.4452,0.5432,0.5566,0.498,0.5183,0.456,0.3246,0.3191,0.2031,0.0211,0.0148,-0.0466,-0.1444,-0.283,-0.2981,-0.2586,-0.4355,-0.5021,-0.5051,-0.5195,-0.5134,-0.5224,-0.6467,-0.8213,-1.0216,-1.2561,-1.441,-1.5726,-1.5674,-1.6667,-1.7822,-1.7741,-1.8283,-1.8936,-1.9133,-1.9575,-2.0189,-2.1198,-2.2269,-2.3378,-2.4561,-2.5957,-2.7236,-2.8186,-2.964,-3.0459,-2.9678,-3.0523,-3.0882,-2.9869,-3.264,-3.476,-3.4772,-3.5587,-3.585,-3.4939,-3.564,-3.5691,-3.4716,-3.6232,-3.7094,-3.7038,-3.7344,-3.7614,-3.7795,-3.8314,-3.8814,-3.9282,-3.961,-3.9917,-4.0286,-4.1153,-4.2262,3.6021,3.5298,3.4036,3.1431,3.0192,2.9224,2.7286,2.6965,2.6513,2.4846,2.5101,2.5491,2.5095,2.2447,1.9891,1.8604,1.54,1.1976,0.8668,0.8032,0.7529,0.6254,0.5867,0.5577,0.5265,0.575,0.608,0.6103,0.6013,0.4817,0.213,0.2934,0.3095,0.2147,0.1043,0.0457,0.0392,0.1434,0.1884,0.1752,0.3035,0.3099,0.2141,0.2071,0.1232,-0.0065,-0.0478,-0.1495,-0.2958,-0.3104,-0.3559,-0.4125,-0.4783,-0.4669,-0.4188,-0.495,-0.5802,-0.6544,-0.631,-0.6261,-0.6866,-1.0016,-1.189,-1.3294,-1.5116,-1.6994,-1.8573,-1.8651,-1.9181,-1.9699,-1.9674,-2.023,-2.0869,-2.0962,-2.1566,-2.2399,-2.349,-2.5173,-2.6609,-2.7293,-2.8295,-2.9092,-2.9305,-3.0355,-3.0871,-3.013,-3.0777,-3.1047,-3.0331,-3.3503,-3.6218,-3.7201,-3.7902,-3.8044,-3.737,-3.7561,-3.7148,-3.5754,-3.6722,-3.7611,-3.8094,-3.8231,-3.8455,-3.8716,-3.934,-3.9462,-3.907,-3.9758,-3.9916,-3.9601,-4.1179,-4.2459,3.4865,3.4195,3.2887,3.0897,2.9511,2.8571,2.8522,2.733,2.6409,2.6603,2.69,2.7558,2.9037,2.4244,2.1173,2.4435,1.9451,1.4453,1.2399,1.1955,1.0538,0.6978,0.5248,0.4369,0.4449,0.3244,0.2467,0.2625,0.2064,0.1609,0.1313,0.0694,0.0391,0.0326,-0.0261,-0.0523,-0.0457,-0.0392,-0.0715,-0.155,-0.1419,-0.1226,-0.0968,-0.2001,-0.2006,-0.1235,-0.2604,-0.3404,-0.3772,-0.397,-0.4064,-0.4272,-0.6028,-0.626,-0.6,-0.8306,-0.8648,-0.7978,-0.8381,-0.8149,-0.8475,-1.3137,-1.4808,-1.5406,-1.7658,-1.8559,-1.8931,-1.9504,-2.0186,-2.0782,-2.0635,-2.122,-2.1952,-2.2493,-2.3454,-2.4469,-2.5211,-2.6355,-2.7458,-2.8095,-2.8362,-2.8985,-3.0527,-3.1044,-3.1589,-3.2411,-3.2785,-3.2915,-3.2906,-3.4886,-3.5913,-3.4977,-3.6936,-3.7809,-3.6612,-3.7881,-3.9005,-3.9784,-3.8981,-3.9533,-4.1912,-4.1303,-4.0989,-4.1125,-4.1567,-4.0661,-3.8409,-3.8532,-3.7968,-3.6892,-3.7027,-3.8853,3.3517,3.2982,3.1984,2.9989,2.9213,2.8702,2.8093,2.7241,2.6598,2.6975,2.7333,2.7899,2.8878,2.3637,1.977,2.1564,1.5646,1.0223,0.8605,0.8401,0.7403,0.4747,0.3962,0.362,0.36,0.2837,0.2383,0.2564,0.0788,-0.0314,-0.0251,-0.0451,-0.0457,-0.0327,-0.1172,-0.1495,-0.1106,-0.2012,-0.2649,-0.3095,-0.328,-0.3027,-0.2584,-0.3228,-0.3357,-0.3168,-0.3806,-0.4975,-0.6391,-0.6539,-0.685,-0.7456,-0.8225,-0.8141,-0.7766,-0.8683,-0.8675,-0.8292,-0.9338,-1.0247,-1.1429,-1.4495,-1.5477,-1.5897,-1.8343,-1.9355,-1.9773,-2.0473,-2.1227,-2.1756,-2.1611,-2.1818,-2.2414,-2.3688,-2.443,-2.5353,-2.7298,-2.8485,-2.9381,-3.0298,-3.0968,-3.165,-3.2387,-3.2843,-3.3352,-3.3944,-3.408,-3.417,-3.4292,-3.5159,-3.626,-3.7358,-3.8532,-3.8969,-3.8132,-3.9518,-3.9851,-3.8634,-3.8863,-3.9933,-4.1888,-4.1075,-4.092,-4.1786,-4.0627,-3.9481,-3.843,-3.7754,-3.7143,-3.6592,-3.7707,-3.9598,3.2279,3.1889,3.0955,2.936,2.8803,2.8353,2.7624,2.6792,2.6318,2.6591,2.6778,2.7025,2.7666,2.2074,1.7842,1.9,1.2795,0.7337,0.6024,0.599,0.5317,0.3103,0.2806,0.2824,0.275,0.2226,0.198,0.2317,0.0127,-0.1307,-0.1568,-0.1499,-0.1497,-0.1692,-0.2717,-0.3035,-0.2523,-0.3737,-0.4563,-0.4945,-0.4875,-0.4563,-0.4068,-0.4569,-0.4824,-0.49,-0.5474,-0.6841,-0.8651,-0.8773,-0.9189,-0.9784,-0.9655,-0.9335,-0.8975,-0.9056,-0.8997,-0.9113,-1.108,-1.2507,-1.3826,-1.5679,-1.6067,-1.6339,-1.879,-1.9896,-2.0447,-2.143,-2.2041,-2.2376,-2.2245,-2.2157,-2.266,-2.4607,-2.5343,-2.6381,-2.9242,-3.0627,-3.1583,-3.2418,-3.329,-3.3981,-3.4397,-3.4883,-3.5235,-3.5364,-3.5074,-3.5133,-3.5865,-3.6013,-3.6722,-3.8622,-3.95,-3.9884,-3.9577,-4.05,-4.0271,-3.8352,-3.822,-3.905,-4.0925,-3.9958,-3.9884,-4.1009,-3.9268,-3.8218,-3.8002,-3.7147,-3.6801,-3.6938,-3.8492,-4.0132,3.1511,3.0935,2.9895,2.9122,2.7699,2.6666,2.7687,2.6192,2.4791,2.5563,2.497,2.4797,2.6371,2.0094,1.6035,2.0514,1.4864,0.9637,0.8701,0.8748,0.752,0.3732,0.2219,0.1525,0.1803,0.037,-0.0367,0.013,-0.0456,-0.124,-0.2211,-0.2853,-0.3623,-0.4592,-0.5424,-0.5672,-0.5276,-0.5785,-0.6662,-0.7737,-0.7129,-0.6561,-0.6094,-0.7264,-0.7075,-0.6061,-0.8183,-0.9218,-0.9479,-0.9839,-0.984,-0.954,-0.9396,-0.9177,-0.9128,-1.0591,-1.0955,-1.1217,-1.4526,-1.5078,-1.4772,-1.7273,-1.7519,-1.7276,-1.9637,-2.0352,-2.0682,-2.2117,-2.2521,-2.2535,-2.2376,-2.2245,-2.2748,-2.5074,-2.6656,-2.8291,-3.0674,-3.237,-3.3559,-3.3853,-3.3944,-3.4593,-3.648,-3.6802,-3.6847,-3.6969,-3.5858,-3.5865,-3.8344,-3.8174,-3.734,-3.6078,-3.8284,-3.985,-3.985,-3.9781,-4.0306,-4.1629,-3.7768,-3.6754,-3.9803,-3.8689,-3.8156,-3.8464,-3.8488,-3.7853,-3.6625,-3.6697,-3.6936,-3.7295,-3.7397,-3.8519,3.0107,2.9839,2.9354,2.8553,2.7691,2.7119,2.7418,2.6333,2.5309,2.5691,2.4754,2.4053,2.4883,1.8734,1.4066,1.5723,1.0021,0.4958,0.3765,0.3688,0.3022,0.1035,0.0512,0.0446,0.0585,0.0128,-0.0828,-0.252,-0.2203,-0.2462,-0.3756,-0.4271,-0.4785,-0.5219,-0.6552,-0.7182,-0.7048,-0.8256,-0.89,-0.8973,-0.8798,-0.8538,-0.8267,-0.8725,-0.8736,-0.835,-0.9132,-0.9703,-1.0048,-1.0078,-0.99,-0.9755,-1.0615,-1.0845,-1.0888,-1.2344,-1.2719,-1.2925,-1.5808,-1.7324,-1.801,-1.8224,-1.8846,-1.9782,-2.1058,-2.133,-2.1466,-2.2421,-2.2607,-2.2535,-2.2405,-2.3238,-2.4651,-2.6567,-2.8428,-3.046,-3.2776,-3.3653,-3.4145,-3.4663,-3.4663,-3.488,-3.6121,-3.6263,-3.6683,-3.8031,-3.9136,-4.0198,-4.1109,-4.1043,-4.0976,-4.1212,-4.2112,-4.2534,-4.2142,-4.2055,-4.1395,-3.9948,-3.8345,-3.7934,-3.9058,-3.7857,-3.755,-3.8434,-3.7728,-3.7112,-3.6662,-3.6999,-3.722,-3.7471,-3.7784,-3.8861,2.9562,2.9293,2.8865,2.7814,2.6776,2.588,2.5539,2.4385,2.3454,2.3642,2.2378,2.1256,2.1119,1.5872,1.134,1.0538,0.5656,0.1616,0.0487,0.0292,0.0062,-0.039,-0.0261,-0.0261,-0.0587,-0.0975,-0.2071,-0.4127,-0.3678,-0.387,-0.5219,-0.5807,-0.6315,-0.675,-0.8069,-0.8567,-0.8256,-0.9419,-0.9814,-0.9431,-0.9629,-0.9567,-0.9357,-0.9307,-0.9369,-0.9567,-0.9691,-1.0055,-1.0544,-1.0453,-1.0399,-1.0479,-1.1788,-1.2141,-1.2133,-1.403,-1.4905,-1.5446,-1.7809,-1.9196,-1.9796,-1.9335,-1.9798,-2.0733,-2.173,-2.1957,-2.2045,-2.2707,-2.3224,-2.3572,-2.3369,-2.4417,-2.6012,-2.823,-2.9516,-3.0949,-3.3588,-3.4292,-3.461,-3.5157,-3.5286,-3.5739,-3.6933,-3.7527,-3.8368,-3.9848,-4.1917,-4.3524,-4.406,-4.3668,-4.34,-4.3633,-4.4168,-4.4268,-4.3765,-4.3603,-4.2482,-3.9945,-3.9171,-3.8685,-3.8373,-3.6866,-3.6414,-3.7324,-3.5895,-3.5507,-3.6155,-3.6401,-3.6954,-3.7776,-3.8184,-3.894,2.9791,2.9313,2.8384,2.7091,2.4961,2.2888,2.2182,2.0429,1.9066,1.9279,1.7745,1.6074,1.5203,1.1525,0.7861,0.5578,0.2572,0.0272,-0.0493,-0.067,-0.0588,-0.0261,-0.0131,-0.0521,-0.1755,-0.3232,-0.4255,-0.4714,-0.4842,-0.5417,-0.6624,-0.739,-0.8298,-0.9354,-0.9963,-0.9814,-0.886,-0.9307,-0.9493,-0.9419,-0.9691,-0.9691,-0.9419,-0.9233,-0.9307,-0.9678,-1.0171,-1.0678,-1.1156,-1.1109,-1.1341,-1.1747,-1.2828,-1.2905,-1.2797,-1.5606,-1.7455,-1.8816,-2.0564,-2.0532,-1.9867,-2.0752,-2.0418,-2.0089,-2.1708,-2.2204,-2.2335,-2.2989,-2.4334,-2.5533,-2.5359,-2.5662,-2.6759,-2.998,-2.992,-2.9972,-3.303,-3.4392,-3.5082,-3.5393,-3.594,-3.701,-3.9068,-4.0827,-4.206,-4.2327,-4.3884,-4.5532,-4.7009,-4.5827,-4.4252,-4.2714,-4.391,-4.4737,-4.4631,-4.4155,-4.3338,-4.2105,-4.0165,-3.8646,-3.774,-3.5752,-3.4723,-3.499,-3.3066,-3.3041,-3.4985,-3.5021,-3.614,-3.8296,-3.8427,-3.8652,2.6493,2.635,2.6154,2.5212,2.3976,2.2759,2.1901,1.9919,1.8147,1.732,1.4583,1.2316,1.2363,0.8271,0.4807,0.4342,0.1783,-0.0175,-0.0409,-0.0374,-0.0261,-0.0065,-0.0782,-0.2203,-0.4586,-0.4201,-0.4778,-0.7156,-0.6569,-0.675,-0.8225,-0.8872,-0.9443,-1.0024,-1.0381,-1.0552,-1.0552,-1.064,-1.0653,-1.064,-1.1434,-1.1824,-1.1913,-1.2749,-1.3139,-1.3139,-1.2748,-1.2586,-1.2584,-1.2002,-1.1729,-1.1791,-1.3246,-1.3505,-1.3544,-1.7044,-1.9419,-2.0783,-2.0574,-2.1063,-2.1823,-2.1294,-2.1808,-2.2674,-2.3026,-2.3155,-2.3238,-2.3695,-2.4046,-2.46,-2.5893,-2.7336,-2.8863,-3.0678,-3.2338,-3.3744,-3.4815,-3.5544,-3.6102,-3.6557,-3.6991,-3.7512,-3.8091,-3.9741,-4.1386,-4.2522,-4.5557,-4.7432,-4.6644,-4.7185,-4.7298,-4.6419,-4.6732,-4.6828,-4.6522,-4.4766,-4.3419,-4.2871,-4.0528,-3.8892,-3.8173,-3.6193,-3.5161,-3.5125,-3.3224,-3.313,-3.4985,-3.5305,-3.6386,-3.8296,-3.8616,-3.8806,2.5481,2.5298,2.4932,2.355,2.2825,2.1919,1.9924,1.8184,1.6621,1.5072,1.2183,0.9792,0.9596,0.6388,0.3593,0.3086,0.1201,-0.0233,-0.0298,-0.0692,-0.0978,-0.0912,-0.2529,-0.4324,-0.6054,-0.5863,-0.6451,-0.8393,-0.7922,-0.8037,-0.907,-0.9567,-0.9938,-1.0258,-1.0552,-1.0687,-1.0626,-1.1025,-1.1314,-1.1388,-1.2488,-1.3172,-1.3519,-1.4432,-1.4713,-1.4433,-1.3756,-1.3266,-1.2934,-1.251,-1.2339,-1.2504,-1.3807,-1.4705,-1.5595,-1.8766,-2.0615,-2.1579,-2.1721,-2.24,-2.3132,-2.2473,-2.2928,-2.3715,-2.3884,-2.3923,-2.4001,-2.4394,-2.5024,-2.5771,-2.6829,-2.8494,-3.0311,-3.182,-3.3371,-3.472,-3.5669,-3.6314,-3.679,-3.7149,-3.7577,-3.7922,-3.8097,-4.0181,-4.2173,-4.3201,-4.5931,-4.7779,-4.7534,-4.8336,-4.8802,-4.8331,-4.827,-4.7751,-4.65,-4.5023,-4.3169,-4.0939,-3.9433,-3.7915,-3.6408,-3.5146,-3.4156,-3.3423,-3.2157,-3.2458,-3.424,-3.4492,-3.598,-3.8533,-3.8785,-3.8893,2.5458,2.4856,2.3795,2.1724,2.1417,2.073,0.0,1.6289,1.5348,1.3452,1.1017,0.8834,0.7528,0.5679,0.3741,0.193,0.0768,0.0,-0.0119,-0.1318,-0.2268,-0.2507,-0.483,-0.6451,-0.6624,-0.7661,-0.8456,-0.8666,-0.8776,-0.8928,-0.9198,-0.9543,-0.9943,-1.0458,-1.0686,-1.0653,-1.028,-1.1287,-1.1911,-1.2178,-1.3375,-1.4171,-1.4695,-1.516,-1.5177,-1.4763,-1.417,-1.355,-1.2949,-1.2843,-1.3105,-1.3659,-1.4617,-1.6199,-1.8176,-2.0217,-2.1206,-2.1771,-2.3382,-2.3953,-2.3884,-2.3805,-2.3765,-2.3814,-2.4363,-2.455,-2.4624,-2.5059,-2.6453,-2.7814,-2.7939,-2.9382,-3.1283,-3.3098,-3.3718,-3.4409,-3.6106,-3.6891,-3.7304,-3.7412,-3.785,-3.8308,-3.8674,-4.1288,-4.3436,-4.3845,-4.5299,-4.6868,-4.8231,-4.8717,-4.8847,-4.854,-4.8685,-4.7966,-4.586,-4.5026,-4.2578,-3.7935,-3.7477,-3.6282,-3.3808,-3.3272,-3.2364,-3.1015,-3.0545,-3.1195,-3.2953,-3.318,-3.5078,-3.8527,-3.8758,-3.8901,0.0,0.0,0.0,0.0,0.0,0.0,0.0,1.8062,1.7447,1.5945,1.3788,1.134,0.8501,0.6886,0.4922,0.1665,0.0682,0.0295,0.0119,-0.1252,-0.2985,-0.4899,-0.6595,-0.7753,-0.8131,-0.8257,-0.8382,-0.8456,-0.8272,-0.8286,-0.8542,-0.8634,-0.9483,-1.1343,-1.1564,-1.2305,-1.3771,-1.3903,-1.4073,-1.4225,-1.5268,-1.5999,-1.644,-1.757,-1.7777,-1.7182,-1.7064,-1.618,-1.4792,-1.4141,-1.413,-1.4656,-1.5845,-1.7539,-1.9271,-1.9516,-2.1361,-2.3736,-2.4088,-2.4179,-2.4071,-2.4032,-2.3953,-2.3962,-2.4482,-2.4703,-2.4991,-2.5777,-2.6296,-2.6956,-2.8488,-3.0265,-3.2062,-3.3548,-3.5455,-3.6931,-3.711,-3.7795,-3.832,-3.8147,-3.8514,-3.8937,-3.8956,-4.0738,-4.22,-4.2381,-4.3767,-4.4457,-4.349,-4.5755,-4.6928,-4.552,-4.7525,-4.8718,-4.8151,-4.4687,-4.1368,-3.8643,-3.6525,-3.4974,-3.4144,-3.2547,-3.159,-3.1354,-2.9758,-2.9686,-3.1183,-3.2783,-3.4531,-3.6408,-3.8085,-3.8374,0.0,0.0,0.0,0.0,0.0,0.0,0.0,0.0,0.0,0.0,0.0,1.2035,1.0986,0.0,0.5955,0.3999,0.1527,-0.0285,-0.0571,-0.2452,-0.3928,-0.4255,-0.6376,-0.7801,-0.7851,-0.8182,-0.8319,-0.8141,-0.8066,-0.8519,-0.9752,-0.9783,-1.0795,-1.3075,-1.3093,-1.3639,-1.4751,-1.5291,-1.5588,-1.5733,-1.6859,-1.7376,-1.7304,-1.7916,-1.7817,-1.7179,-1.6919,-1.6326,-1.5472,-1.4771,-1.455,-1.4835,-1.6449,-1.8266,-2.0012,-2.0722,-2.2703,-2.4979,-2.5055,-2.5055,-2.4952,-2.4916,-2.4812,-2.4884,-2.5377,-2.5613,-2.581,-2.6529,-2.6764,-2.7077,-2.8177,-3.0284,-3.2346,-3.3466,-3.5843,-3.7831,-3.7983,-3.8414,-3.8758,-3.8701,-3.89,-3.9118,-3.9255,-4.0074,-4.1027,-4.1944,-4.345,-4.4541,-4.4576,-4.6838,-4.7757,-4.6048,-4.7151,-4.7892,-4.7572,-4.3755,-4.1235,-4.075,-3.6453,-3.352,-3.2603,-3.1813,-3.1022,-3.0227,-3.008,-3.0344,-3.1005,-3.2064,-3.3454,-3.5104,-3.6166,-3.591,0.0,0.0,0.0,0.0,0.0,0.0,0.0,0.0,0.0,0.0,0.0,0.0,0.0,0.0,0.0,0.6693,0.2656,-0.0428,-0.0705,-0.3216,-0.4542,-0.3234,-0.558,-0.726,-0.7193,-0.7765,-0.8117,-0.8177,-0.8265,-0.9194,-1.117,-1.1313,-1.2355,-1.4689,-1.4672,-1.4895,-1.5493,-1.6314,-1.675,-1.6781,-1.7649,0.0,-1.7306,-1.7215,-1.6828,-1.619,-1.5946,-1.567,-1.5436,-1.5091,-1.4843,-1.4866,-1.6907,-1.8861,-2.0651,-2.2256,-2.405,-2.5678,-2.5778,-2.5843,-2.5843,-2.5745,-2.5679,-2.581,-2.632,-2.6503,0.0,-2.7148,-2.7418,-2.7615,-2.78,-3.0173,-3.2636,-3.3366,-3.5856,-3.8223,-3.8659,-3.8862,-3.9011,-3.9098,-3.9148,-3.9243,-3.9451,-3.9561,-4.0108,-4.152,-4.3186,-4.4735,-4.6107,-4.8042,-4.8666,-4.697,-4.6964,-4.674,-4.5945,-4.2877,-4.137,-4.2269,-3.6885,-3.2989,-3.1528,-3.1795,-3.1195,-2.957,-3.0571,-3.0855,-3.0357,-3.0872,-3.173,-3.2877,-3.2949,-3.2484,0.0,0.0,0.0,0.0,0.0,0.0,0.0,0.0,0.0,0.0,0.0,0.0,0.0,0.0,0.0,0.0,0.3838,0.1214,0.1509,-0.1843,-0.4357,-0.4283,-0.5517,-0.6578,-0.7118,-0.7161,-0.7596,-0.8739,-0.9262,-1.0042,-1.1216,-1.1794,0.0,0.0,0.0,-1.6274,-1.8027,-1.7726,-1.7395,-1.7039,-1.6731,-1.6351,-1.5955,-1.6083,-1.5683,-1.5007,-1.5753,-1.5414,-1.4437,-1.527,-1.5351,-1.5157,-1.7597,-1.9642,-2.1422,-2.2757,-2.4278,-2.5646,-2.5679,0.0,0.0,-2.5843,-2.5843,-2.5941,-2.6442,-2.6711,-2.6906,-2.7383,-2.7835,-2.8099,-2.8126,-3.0689,-3.3396,-3.3723,-3.6322,-3.8799,-3.8991,-3.9206,-3.9359,-3.9265,-3.9426,-3.9594,-3.9636,-3.9621,-3.9761,-4.0067,-4.155,-4.2694,-4.2893,-4.5707,-4.7034,-4.5345,-4.6401,0.0,-4.4691,-4.2683,-4.1329,-4.0896,-3.7697,-3.5119,-3.3559,-3.3541,-3.2924,-3.1565,-3.0367,-2.8837,-2.6999,-2.8836,-2.8907,-2.7349,-2.7699,-2.8646,0.0,0.0,0.0,0.0,0.0,0.0,0.0,0.0,0.0,0.0,0.0,0.0,0.0,0.0,0.0,0.0,0.6064,0.398,0.5083,0.0588,-0.2731,-0.2576,-0.4403,-0.5695,-0.5735,-0.6154,-0.6865,-0.7866,-0.8057,-0.9322,-1.2049,-1.2202,-1.3439,-1.6048,-1.5896,-1.6241,-1.7215,-1.6691,-1.6454,-1.6434,-1.5998,-1.5552,-1.517,-1.4829,-1.4609,-1.4459,-1.4819,-1.4957,-1.4928,-1.5601,-1.6373,-1.721,0.0,0.0,0.0,0.0,-2.4838,-2.6479,-2.6656,-2.6681,-2.6774,-2.6855,-2.6884,-2.6934,-2.7287,-2.7524,-2.7705,-2.8058,-2.8324,-2.8554,-2.8685,-3.0456,-3.2528,-3.3857,-3.5922,-3.7939,-3.9041,-3.9451,-3.9561,-3.9489,-3.9583,0.0,-3.9761,-4.0574,-4.1265,-4.1292,-4.3584,-4.5293,-4.5315,-4.7362,-4.7793,-4.5161,-4.6374,-4.6124,-4.3109,-4.2094,0.0,0.0,0.0,-3.464,-3.2001,-3.2099,0.0,0.0,0.0,-2.7696,-2.6876,-2.7771,0.0,0.0,-2.5267,-2.6006,0.0,0.0,0.0,0.0,0.0,0.0,0.0,0.0,0.0,0.0,0.0,0.0,0.0,0.0,0.0,0.0,0.8261,0.6023,0.861,0.3627,0.0354,0.2139,-0.2319,-0.4856,-0.3149,-0.515,-0.692,-0.789,-0.8155,-0.9579,-1.2606,-1.2887,-1.402,-1.6371,-1.5908,-1.5901,-1.6589,-1.587,-1.5626,-1.5876,-1.545,-1.5019,-1.4592,-1.4151,-1.4048,-1.4216,-1.4428,-1.4812,-1.5326,-1.5737,-1.6977,-1.8715,-1.9249,-2.086,-2.2956,-2.3923,-2.5504,-2.7217,-2.74,-2.7583,-2.765,-2.7583,-2.7665,-2.7812,-2.7956,-2.8143,-2.8324,-2.8521,-2.8719,-2.8914,-2.9096,-3.0641,-3.2422,-3.3512,-3.5661,-3.7736,-3.8657,-3.9287,-3.971,-3.9701,-3.9726,-3.9719,-3.9814,-4.0887,-4.1878,-4.2304,-4.4875,-4.69,-4.7311,-4.8783,-4.8684,-4.5862,-4.6231,-4.5385,-4.2185,-4.1399,-4.0346,-3.8597,-3.7203,-3.5096,-3.2032,-3.1925,-3.1326,-3.0037,-2.7666,-2.6253,0.0,0.0,0.0,0.0,0.0,0.0,0.0,0.0,0.0,0.0,0.0,0.0,0.0,0.0,0.0,0.0,0.0,0.0,0.0,0.0,0.0,0.0,0.0,0.0,1.1783,0.7197,0.5297,1.0639,0.0922,-0.4255,0.0689,-0.4237,-0.8297,-0.9718,-1.0887,-1.1829,-1.2591,-1.3935,-1.5032,-1.5734,-1.5138,-1.5602,-1.7273,-1.6015,-1.549,-1.5753,-1.5213,-1.4718,-1.4209,-1.4338,-1.4311,-1.4247,-1.4985,-1.527,-1.5183,-1.5599,-1.6897,-1.8891,-2.1136,-2.4074,-2.69,-2.5684,-2.6224,-2.758,-2.7615,-2.7953,-2.8223,-2.7634,-2.7836,-2.8292,-2.8086,-2.8256,-2.8539,-2.8592,-2.8854,-2.9121,-2.9172,-3.172,-3.3949,-3.249,-3.5851,-3.9029,-3.767,-3.8691,-3.9838,-3.9848,-3.986,-3.9863,-3.9833,-4.0023,-4.0614,-4.2125,-4.3859,0.0,-4.7065,-4.8719,-4.9098,-4.7355,-4.5745,-4.4101,-4.2325,-4.065,-3.9512,-3.9084,-3.8872,-3.7761,-3.5504,-3.4468,-3.3097,-3.1272,-2.7108,-2.4136,-2.2512,0.0,0.0,0.0,0.0,0.0,0.0,0.0,0.0,0.0,0.0,0.0,0.0,0.0,0.0,0.0,0.0,0.0,0.0,0.0,0.0,0.0,0.0,0.0,0.0,0.8333,0.5488,0.9742,0.3771,0.1013,0.5309,0.0608,-0.3152,-0.4156,-0.7433,-1.0347,-1.2644,-1.2249,-1.2726,-1.4388,-1.3571,-1.3401,-1.4083,-1.3998,-1.3986,-1.4078,-1.4352,-1.4313,-1.4044,-1.3921,-1.4074,-1.4463,-1.4639,-1.4986,-1.552,-1.6962,-1.8405,-1.9765,-2.0545,-2.3042,-2.5989,-2.4444,-2.5646,-2.782,-2.5624,-2.5741,-2.6793,-2.6659,-2.6775,-2.7225,-2.8507,-2.8931,-2.9017,-2.9278,-2.9435,-2.9556,-2.9527,-3.0434,-3.1468,-3.2039,-3.3459,-3.488,-3.5521,-3.6975,-3.817,-3.8176,-3.8193,-3.8137,-3.8046,-3.9863,-4.1514,-4.2049,-4.4504,-4.6473,-4.6927,-4.846,-4.8873,-4.7273,-4.753,-4.6715,-4.4076,-4.3235,-4.185,-3.9362,-3.7046,-3.4879,-3.2829,-3.1496,-3.0009,-2.8359,-2.7061,-2.555,-2.3765,0.0,0.0,0.0,0.0,0.0,0.0,0.0,0.0,0.0,0.0,0.0,0.0,0.0,0.0,0.0,0.0,0.0,0.0,0.0,0.0,0.0,0.0,0.0,0.0,0.0,0.0,0.9987,0.5413,0.0,0.7663,0.3902,0.0992,0.0468,-0.2526,-0.5932,-0.9584,-0.8604,-0.9492,-1.2929,-1.1811,-1.1509,-1.2211,-1.2292,-1.2459,-1.2682,-1.3506,-1.3841,-1.3714,-1.4044,-1.4435,-1.4928,-1.4984,-1.5397,-1.6207,-1.8206,-1.9852,-2.1135,-2.1267,-2.345,-2.6391,-2.4859,-2.6124,-2.8319,-2.6332,-2.631,-2.7126,-2.7361,-2.7439,-2.7738,-2.8991,-2.9353,-2.9392,-2.9663,-2.9747,-2.973,-2.9735,-3.0198,-3.0768,-3.1246,-3.2343,-3.3365,-3.3863,-3.5289,-3.6276,-3.561,-3.6355,-3.7124,-3.7111,-3.8843,-4.0628,-4.1768,-4.3798,-4.5528,-4.6567,-4.7627,-4.8134,-4.7784,-4.8067,-4.7529,-4.5498,-4.4255,-4.2596,-4.039,-3.7607,-3.4935,-3.2457,-3.0958,-2.8856,-2.5975,-2.5626,-2.4613,0.0,0.0,0.0,0.0,0.0,0.0,0.0,0.0,0.0,0.0,0.0,0.0,0.0,0.0,0.0,0.0,0.0,0.0,0.0,0.0,0.0,0.0,0.0,0.0,0.0,0.0,0.0,1.1602,0.6171,0.0,0.0,0.0,0.0,0.3881,0.3019,0.0568,-0.3838,-0.3377,-0.5558,-1.1219,-0.9781,-0.9846,-1.1788,-1.112,-1.1078,-1.1705,-1.2899,-1.3402,-1.3381,-1.461,-1.5326,-1.5569,-1.5946,-1.6415,-1.7063,-1.91,-2.097,-2.259,-2.2973,-2.509,-2.7718,-2.6532,-2.7215,-2.878,-2.8976,-2.8874,-2.8681,-2.8967,-2.9196,-2.9343,-2.9066,-2.9231,0.0,0.0,-2.955,-2.9607,-2.9607,-3.0868,-3.1747,-3.0119,-3.2272,-3.4261,-3.2647,-3.37,-3.4311,-3.2224,-3.4263,-3.6422,-3.6558,0.0,-3.7957,-4.093,-4.1598,-4.2868,-4.5875,-4.6265,-4.6925,-4.8721,-4.7466,-4.6503,-4.6439,-4.3631,-4.1905,-4.1954,-4.0281,-3.7795,-3.446,-3.276,-2.9547,-2.4644,-2.3057,0.0,0.0,0.0,0.0,0.0,0.0,0.0,0.0,0.0,0.0,0.0,0.0,0.0,0.0,0.0,0.0,0.0,0.0,0.0,0.0,0.0,0.0,0.0,0.0,0.0,0.0,1.2731,1.1831,1.3065,1.0493,1.0122,0.0,0.0,0.0,0.0,0.0,0.0,-0.1108,0.067,-0.1071,-0.7273,-0.6498,-0.7606,-1.1099,-1.1615,-1.1912,-1.2115,-1.3393,-1.4329,-1.4985,-1.5378,-1.5683,-1.5843,-1.5836,-1.6215,-1.6862,-1.8183,-1.9204,-2.0005,-2.0209,-2.1625,-2.3403,-2.1914,-2.3286,-2.5573,-2.3133,-2.3062,-2.3868,-2.2675,-2.3201,-2.4229,-2.4161,0.0,0.0,0.0,0.0,-2.8018,-2.8011,-2.919,-3.0294,-2.9835,-3.036,-3.0814,-3.0367,-3.248,-3.3159,-2.8847,-2.9687,-3.0722,-2.9526,-3.2293,0.0,-3.5453,-3.886,-4.1891,-4.3346,-4.4807,-4.627,-4.7792,-4.7393,-4.6719,-4.5962,-4.4078,-4.2547,-4.1611,-3.8584,-3.6447,-3.5565,-3.1638,-2.8878,-2.7625,0.0,0.0,0.0,0.0,0.0,0.0,0.0,0.0,0.0,0.0,0.0,0.0,0.0,0.0,0.0,0.0,0.0,0.0,0.0,0.0,0.0,0.0,0.0,0.0,0.0,0.0,0.0,1.2727,1.1636,1.1046,1.1592,1.2577,0.0,0.0,0.0,0.0,0.0,0.0,0.0,0.0,0.0,-0.3017,-0.1999,-0.2495,-0.4827,-0.6993,-0.8099,-0.8215,-1.1559,-1.3489,-1.4111,-1.4641,-1.5212,-1.576,-1.5779,-1.6399,-1.7542,-1.8256,-1.9218,-2.0351,0.0,0.0,0.0,0.0,-2.3065,-2.453,-2.2688,-2.2658,-2.3302,-2.2286,0.0,0.0,0.0,0.0,0.0,0.0,0.0,-2.7047,-2.7058,-2.8834,-3.0611,-3.0597,-3.0597,-3.0635,-3.0511,-3.0509,-2.9523,-2.603,-2.6619,-2.7462,-2.6603,-2.8697,0.0,0.0,0.0,-3.9159,-4.1829,-4.3513,-4.5089,-4.6667,-4.6523,-4.6023,-4.537,-4.3393,-4.1867,-4.1199,-3.8157,-3.5792,-3.4494,-3.0926,-2.8071,0.0,0.0,0.0,0.0,0.0,0.0,0.0,0.0,0.0,0.0,0.0,0.0,0.0,0.0,0.0,0.0,0.0,0.0,0.0,0.0,0.0,0.0,0.0,0.0,0.0,0.0,0.0,0.0,0.0,0.9912,0.8404,0.0,0.0,0.0,0.0,0.0,0.0,0.0,0.0,0.0,0.0,0.0,0.0,0.0,0.3088,0.2499,-0.086,-0.2645,-0.2795,-0.8,-1.0687,-1.1113,-1.2603,-1.3872,-1.4857,-1.5626,0.0,-1.848,-1.8745,0.0,0.0,0.0,0.0,0.0,0.0,0.0,0.0,0.0,0.0,0.0,0.0,0.0,0.0,0.0,0.0,0.0,0.0,0.0,0.0,0.0,0.0,-3.0884,-3.0685,-3.0942,-3.1181,-3.0772,-2.7916,-2.4944,-2.3477,-2.4247,-2.509,0.0,0.0,0.0,0.0,0.0,0.0,-4.0373,-4.2048,-4.3512,-4.5175,-4.4911,-4.4468,-4.409,-4.1795,-4.0251,-4.0024,-3.7655,-3.4921,-3.1922,-2.9884,0.0,0.0,0.0,0.0,0.0,0.0,0.0,0.0,0.0,0.0,0.0,0.0,0.0,0.0,0.0,0.0,0.0,0.0,0.0,0.0,0.0,0.0,0.0,0.0,0.0,0.0,0.0,0.0,0.0,0.0,0.0,0.0,0.0,0.0,0.0,0.0,0.0,0.0,0.0,0.0,0.0,0.0,0.0,0.0,0.0,0.0,0.0,0.0,0.0,0.0,-0.2846,-0.3835,-0.4836,-0.8903,-1.0869,-1.129,-1.5306,-1.7585,-1.8495,-1.8739,0.0,0.0,0.0,0.0,0.0,0.0,0.0,0.0,0.0,0.0,0.0,0.0,0.0,0.0,0.0,0.0,0.0,0.0,0.0,0.0,0.0,0.0,-2.6707,-2.5414,-2.6043,-2.6683,-2.5788,0.0,0.0,0.0,0.0,0.0,0.0,0.0,0.0,0.0,0.0,0.0,-3.7118,-3.9731,-4.1707,-4.2587,-4.2395,-4.1545,-3.9892,-3.928,-3.805,-3.5858,-3.3828,-3.1467,0.0,0.0,0.0,0.0,0.0,0.0,0.0,0.0,0.0,0.0,0.0,0.0,0.0,0.0,0.0,0.0,0.0,0.0,0.0,0.0,0.0,0.0,0.0,0.0,0.0,0.0,0.0,0.0,0.0,0.0,0.0,0.0,0.0,0.0,0.0,0.0,0.0,0.0,0.0,0.0,0.0,0.0,0.0,0.0,0.0,0.0,0.0,0.0,0.0,0.0,0.0,0.0,0.0,0.0,0.0,0.0,0.0,0.0,-1.3535,-1.5639,0.0,0.0,0.0,0.0,0.0,0.0,0.0,0.0,0.0,0.0,0.0,0.0,0.0,0.0,0.0,0.0,0.0,0.0,0.0,0.0,0.0,0.0,0.0,0.0,0.0,0.0,0.0,0.0,0.0,0.0,0.0,0.0,0.0,0.0,0.0,0.0,0.0,0.0,0.0,0.0,-3.3687,-3.6829,-3.9239,-4.0703,-3.9759,-3.8749,-3.8314,-3.7041,-3.5291,-3.3105,-3.1161,0.0,0.0,0.0,0.0,0.0,0.0,0.0,0.0,0.0,0.0,0.0,0.0,0.0,0.0,0.0,0.0,0.0,0.0,0.0,0.0,0.0,0.0,0.0,0.0,0.0,0.0,0.0,0.0,0.0,0.0,0.0,0.0,0.0,0.0,0.0,0.0,0.0,0.0,0.0,0.0,0.0,0.0,0.0,0.0,0.0,0.0,0.0,0.0,0.0,0.0,0.0,0.0,0.0,0.0,0.0,0.0,0.0,0.0,0.0,-1.1505,-1.3136,0.0,0.0,0.0,0.0,0.0,0.0,0.0,0.0,0.0,0.0,0.0,0.0,0.0,0.0,0.0,0.0,0.0,0.0,0.0,0.0,0.0,0.0,0.0,0.0,0.0,0.0,0.0,0.0,0.0,0.0,0.0,0.0,0.0,0.0,0.0,0.0,0.0,0.0,0.0,0.0,-3.0112,-3.362,-3.6435,-3.8295,-3.6707,-3.581,-3.6617,-3.4582,-3.2366,-3.0341,-2.8076,0.0,0.0,0.0,0.0,0.0,0.0,0.0,0.0,0.0,0.0,0.0,0.0,0.0,0.0,0.0,0.0,0.0,0.0,0.0,0.0,0.0,0.0,0.0,0.0,0.0,0.0,0.0,0.0,0.0,0.0,0.0,0.0,0.0,0.0,0.0,0.0,0.0,0.0,0.0,0.0,0.0,0.0,0.0,0.0,0.0,0.0,0.0,0.0,0.0,0.0,0.0,0.0,0.0,0.0,0.0,0.0,0.0,0.0,0.0,0.0,0.0,0.0,0.0,0.0,0.0,0.0,0.0,0.0,0.0,0.0,0.0,0.0,0.0,0.0,0.0,0.0,0.0,0.0,0.0,0.0,0.0,0.0,0.0,0.0,0.0,0.0,0.0,0.0,0.0,0.0,0.0,0.0,0.0,0.0,0.0,0.0,0.0,0.0,0.0,0.0,0.0,-2.6287,-3.0461,-3.3444,-3.4019,-3.287,-3.2307,-3.2773,-3.1401,-2.924,-2.6366,0.0,0.0,0.0,0.0,0.0,0.0,0.0,0.0,0.0,0.0,0.0,0.0,0.0,0.0,0.0,0.0,0.0,0.0,0.0,0.0,0.0,0.0,0.0,0.0,0.0,0.0,0.0,0.0,0.0,0.0,0.0,0.0,0.0,0.0,0.0,0.0,0.0,0.0,0.0,0.0,0.0,0.0,0.0,0.0,0.0,0.0,0.0,0.0,0.0,0.0,0.0,0.0,0.0,0.0,0.0,0.0,0.0,0.0,0.0,0.0,0.0,0.0,0.0,0.0,0.0,0.0,0.0,0.0,0.0,0.0,0.0,0.0,0.0,0.0,0.0,0.0,0.0,0.0,0.0,0.0,0.0,0.0,0.0,0.0,0.0,0.0,0.0,0.0,0.0,0.0,0.0,0.0,0.0,0.0,0.0,0.0,0.0,0.0,0.0,0.0,0.0,0.0,-2.2631,-2.6536,-3.0039,-3.2471,-3.0553,-2.9546,-3.0756,-2.8554,-2.5735,-2.2675,0.0,0.0,0.0,0.0,0.0,0.0,0.0,0.0,0.0,0.0,0.0,0.0,0.0,0.0,0.0,0.0,0.0,0.0,0.0,0.0,0.0,0.0,0.0,0.0,0.0,0.0,0.0,0.0,0.0,0.0,0.0,0.0,0.0,0.0,0.0,0.0,0.0,0.0,0.0,0.0,0.0,0.0,0.0,0.0,0.0,0.0,0.0,0.0,0.0,0.0,0.0,0.0,0.0,0.0,0.0,0.0,0.0,0.0,0.0,0.0,0.0,0.0,0.0,0.0,0.0,0.0,0.0,0.0,0.0,0.0,0.0,0.0,0.0,0.0,0.0,0.0,0.0,0.0,0.0,0.0,0.0,0.0,0.0,0.0,0.0,0.0,0.0,0.0,0.0,0.0,0.0,0.0,0.0,0.0,0.0,0.0,0.0,0.0,0.0,0.0,0.0,0.0,-1.9361,-2.2896,-2.6427,-2.9973,-2.7858,-2.6895,-2.8823,-2.595,-2.2753,-1.9748,0.0,0.0,0.0,0.0,0.0,0.0,0.0,0.0,0.0,0.0,0.0,0.0,0.0,0.0,0.0,0.0,0.0,0.0,0.0,0.0,0.0,0.0,0.0,0.0,0.0,0.0,0.0,0.0,0.0,0.0,0.0,0.0,0.0,0.0,0.0,0.0,0.0,0.0,0.0,0.0,0.0,0.0,0.0,0.0,0.0,0.0,0.0,0.0,0.0,0.0,0.0,0.0,0.0,0.0,0.0,0.0,0.0,0.0,0.0,0.0,0.0,0.0,0.0,0.0,0.0,0.0,0.0,0.0,0.0,0.0,0.0,0.0,0.0,0.0,0.0,0.0,0.0,0.0,0.0,0.0,0.0,0.0,0.0,0.0,0.0,0.0,0.0,0.0,0.0,0.0,0.0,0.0,0.0,0.0,0.0,0.0,0.0,0.0,0.0,0.0,0.0,0.0,-1.6478,-1.9495,-2.2624,-2.561,-2.4283,-2.4218,-2.6626,-2.3753,-2.0632,0.0,0.0,0.0,0.0,0.0,0.0,0.0,0.0,0.0,0.0,0.0,0.0,0.0,0.0,0.0,0.0,0.0,0.0,0.0,0.0,0.0,0.0,0.0,0.0,0.0,0.0,0.0,0.0,0.0,0.0,0.0,0.0,0.0,0.0,0.0,0.0,0.0,0.0,0.0,0.0,0.0,0.0,0.0,0.0,0.0,0.0,0.0,0.0,0.0,0.0,0.0,0.0,0.0,0.0,0.0,0.0,0.0,0.0,0.0,0.0,0.0,0.0,0.0,0.0,0.0,0.0,0.0,0.0,0.0,0.0,0.0,0.0,0.0,0.0,0.0,0.0,0.0,0.0,0.0,0.0,0.0,0.0,0.0,0.0,0.0,0.0,0.0,0.0,0.0,0.0,0.0,0.0,0.0,0.0,0.0,0.0,0.0,0.0,0.0,0.0,0.0,0.0,0.0,-1.4578,-1.7036,-1.938,0.0,-2.0967,-2.0261,-2.0357,-1.8743,-1.6257,-1.2686,0.0,0.0,0.0,0.0,0.0,0.0,0.0,0.0,0.0,0.0,0.0,0.0,0.0,0.0,0.0,0.0,0.0,0.0,0.0,0.0,0.0,0.0,0.0,0.0,0.0,0.0,0.0,0.0,0.0,0.0,0.0,0.0,0.0,0.0,0.0,0.0,0.0,0.0,0.0,0.0,0.0,0.0,0.0,0.0,0.0,0.0,0.0,0.0,0.0,0.0,0.0,0.0,0.0,0.0,0.0,0.0,0.0,0.0,0.0,0.0,0.0,0.0,0.0,0.0,0.0,0.0,0.0,0.0,0.0,0.0,0.0,0.0,0.0,0.0,0.0,0.0,0.0,0.0,0.0,0.0,0.0,0.0,0.0,0.0,0.0,0.0,0.0,0.0,0.0,0.0,0.0,0.0,0.0,0.0,0.0,0.0,0.0,0.0,0.0,0.0,0.0,0.0,0.0,-1.4712,-1.6824,0.0,-1.8466,-1.7813,-1.7402,-1.6348,-1.4086,-1.0276,0.0,0.0,0.0,0.0,0.0,0.0,0.0,0.0,0.0,0.0,0.0,0.0,0.0,0.0,0.0,0.0,0.0,0.0,0.0,0.0,0.0,0.0,0.0,0.0,0.0,0.0,0.0,0.0,0.0,0.0,0.0,0.0,0.0,0.0,0.0,0.0,0.0,0.0,0.0,0.0,0.0,0.0,0.0,0.0,0.0,0.0,0.0,0.0,0.0,0.0,0.0,0.0,0.0,0.0,0.0,0.0,0.0,0.0,0.0,0.0,0.0,0.0,0.0,0.0,0.0,0.0,0.0,0.0,0.0,0.0,0.0,0.0,0.0,0.0,0.0,0.0,0.0,0.0,0.0,0.0,0.0,0.0,0.0,0.0,0.0,0.0,0.0,0.0,0.0,0.0,0.0,0.0,0.0,0.0,0.0,0.0,0.0,0.0,0.0,0.0,0.0,0.0,0.0,-1.2508,-1.4762,-1.699,-1.6594,-1.6355,-1.6938,-1.5749,-1.3324,-0.9784,-0.8364,0.0,0.0,0.0,0.0,0.0,0.0,0.0,0.0,0.0,0.0,0.0,0.0,0.0,0.0,0.0,0.0,0.0,0.0,0.0,0.0,0.0,0.0,0.0,0.0,0.0,0.0,0.0,0.0,0.0,0.0,0.0,0.0,0.0,0.0,0.0,0.0,0.0,0.0,0.0,0.0,0.0,0.0,0.0,0.0,0.0,0.0,0.0,0.0,0.0,0.0,0.0,0.0,0.0,0.0,0.0,0.0,0.0,0.0,0.0,0.0,0.0,0.0,0.0,0.0,0.0,0.0,0.0,0.0,0.0,0.0,0.0,0.0,0.0,0.0,0.0,0.0,0.0,0.0,0.0,0.0,0.0,0.0,0.0,0.0,0.0,0.0,0.0,0.0,0.0,0.0,0.0,0.0,0.0,0.0,0.0,0.0,0.0,0.0,0.0,0.0,0.0,0.0,-1.026,-1.1481,-1.2656,-1.3305,-1.3208,-1.1981,-1.2104,-1.0522,-0.6332,-0.5955,0.0,0.0,0.0,0.0,0.0,0.0,0.0,0.0,0.0,0.0,0.0,0.0,0.0,0.0,0.0,0.0,0.0,0.0,0.0,0.0,0.0,0.0,0.0,0.0,0.0,0.0,0.0,0.0,0.0,0.0,0.0,0.0,0.0,0.0,0.0,0.0,0.0,0.0,0.0,0.0,0.0,0.0,0.0,0.0,0.0,0.0,0.0,0.0,0.0,0.0,0.0,0.0,0.0,0.0,0.0,0.0,0.0,0.0,0.0,0.0,0.0,0.0,0.0,0.0,0.0,0.0,0.0,0.0,0.0,0.0,0.0,0.0,0.0,0.0,0.0,0.0,0.0,0.0,0.0,0.0,0.0,0.0,0.0,0.0,0.0,0.0,0.0,0.0,0.0,0.0,0.0,0.0,0.0,0.0,0.0,0.0,0.0,0.0,0.0,0.0,0.0,0.0,-0.648,-0.7963,-0.9852,-1.0214,-0.9961,-0.8694,-0.8967,-0.7722,-0.4242,-0.4179,0.0,0.0,0.0,0.0,0.0,0.0,0.0,0.0,0.0,0.0,0.0,0.0,0.0,0.0,0.0,0.0,0.0,0.0,0.0,0.0,0.0,0.0,0.0,0.0,0.0,0.0,0.0,0.0,0.0,0.0,0.0,0.0,0.0,0.0,0.0,0.0,0.0,0.0,0.0,0.0,0.0,0.0,0.0,0.0,0.0,0.0,0.0,0.0,0.0,0.0,0.0,0.0,0.0,0.0,0.0,0.0,0.0,0.0,0.0,0.0,0.0,0.0,0.0,0.0,0.0,0.0,0.0,0.0,0.0,0.0,0.0,0.0,0.0,0.0,0.0,0.0,0.0,0.0,0.0,0.0,0.0,0.0,0.0,0.0,0.0,0.0,0.0,0.0,0.0,0.0,0.0,0.0,0.0,0.0,0.0,0.0,0.0,0.0,0.0,0.0,0.0,0.0,0.0,-0.48,-0.7631,-0.7664,-0.7256,-0.6786,-0.6611,-0.5523,-0.3087,0.0,0.0,0.0,0.0,0.0,0.0,0.0,0.0,0.0,0.0,0.0,0.0,0.0,0.0,0.0,0.0,0.0,0.0,0.0,0.0,0.0,0.0,0.0,0.0,0.0,0.0,0.0,0.0,0.0,0.0,0.0,0.0,0.0,0.0,0.0,0.0,0.0,0.0,0.0,0.0,0.0,0.0,0.0,0.0,0.0,0.0,0.0,0.0,0.0,0.0,0.0,0.0,0.0,0.0,0.0,0.0,0.0,0.0,0.0,0.0,0.0,0.0,0.0,0.0,0.0,0.0,0.0,0.0,0.0,0.0,0.0,0.0,0.0,0.0,0.0,0.0,0.0,0.0,0.0,0.0,0.0,0.0,0.0,0.0,0.0,0.0,0.0,0.0,0.0,0.0,0.0,0.0,0.0,0.0,0.0,0.0,0.0,0.0,0.0,0.0,0.0,0.0,0.0,0.0,-0.3584,-0.4702,-0.5967,-0.6803,-0.6786,-0.6491,-0.5096,-0.2468,0.0,0.0,0.0,0.0,0.0,0.0,0.0,0.0,0.0,0.0,0.0,0.0,0.0,0.0]}]]]